<?xml version="1.0" encoding="UTF-8" standalone="no" ?>
<gpx xmlns="http://www.topografix.com/GPX/1/1" creator="MapSource 6.16.3" version="1.1" xmlns:xsi="http://www.w3.org/2001/XMLSchema-instance" xsi:schemaLocation="http://www.topografix.com/GPX/1/1 http://www.topografix.com/GPX/1/1/gpx.xsd">

  <metadata>
    <link href="http://www.garmin.com">
      <text>Garmin International</text>
    </link>
    <time>2012-06-27T07:11:18Z</time>
    <bounds maxlat="39.049956751987338" maxlon="-108.60527333803475" minlat="38.994630910456181" minlon="-108.64283910021186"/>
  </metadata>

  <trk>
    <name>Untitled</name>
    <extensions>
      <gpxx:TrackExtension xmlns:gpxx="http://www.garmin.com/xmlschemas/GpxExtensions/v3">
        <gpxx:DisplayColor>Red</gpxx:DisplayColor>
      </gpxx:TrackExtension>
    </extensions>
    <trkseg>
      <trkpt lat="38.994630910456181" lon="-108.64283910021186">
        <ele>2028.800048828125</ele>
        <time>2012-05-18T17:05:30Z</time>
      </trkpt>
      <trkpt lat="38.994683800265193" lon="-108.64282392896712">
        <ele>2028.199951171875</ele>
        <time>2012-05-18T17:05:35Z</time>
      </trkpt>
      <trkpt lat="38.994695199653506" lon="-108.64279635250568">
        <ele>2028</ele>
        <time>2012-05-18T17:05:36Z</time>
      </trkpt>
      <trkpt lat="38.994693690910935" lon="-108.64265327341855">
        <ele>2027</ele>
        <time>2012-05-18T17:05:40Z</time>
      </trkpt>
      <trkpt lat="38.99475303478539" lon="-108.64257146604359">
        <ele>2026.199951171875</ele>
        <time>2012-05-18T17:05:43Z</time>
      </trkpt>
      <trkpt lat="38.994810953736305" lon="-108.64253592677414">
        <ele>2025.5999755859375</ele>
        <time>2012-05-18T17:05:45Z</time>
      </trkpt>
      <trkpt lat="38.994848420843482" lon="-108.64249552600086">
        <ele>2025.199951171875</ele>
        <time>2012-05-18T17:05:48Z</time>
      </trkpt>
      <trkpt lat="38.994969623163342" lon="-108.64236854016781">
        <ele>2024.199951171875</ele>
        <time>2012-05-18T17:05:52Z</time>
      </trkpt>
      <trkpt lat="38.995194844901562" lon="-108.64217567257583">
        <ele>2022.199951171875</ele>
        <time>2012-05-18T17:05:57Z</time>
      </trkpt>
      <trkpt lat="38.995241280645132" lon="-108.64217139780521">
        <ele>2022</ele>
        <time>2012-05-18T17:05:58Z</time>
      </trkpt>
      <trkpt lat="38.995347060263157" lon="-108.64217877388">
        <ele>2021.800048828125</ele>
        <time>2012-05-18T17:06:00Z</time>
      </trkpt>
      <trkpt lat="38.995438842102885" lon="-108.64215270616114">
        <ele>2021.199951171875</ele>
        <time>2012-05-18T17:06:02Z</time>
      </trkpt>
      <trkpt lat="38.995479578152299" lon="-108.64210417494178">
        <ele>2020.5999755859375</ele>
        <time>2012-05-18T17:06:03Z</time>
      </trkpt>
      <trkpt lat="38.995599439367652" lon="-108.64197333343327">
        <ele>2019</ele>
        <time>2012-05-18T17:06:06Z</time>
      </trkpt>
      <trkpt lat="38.995649479329586" lon="-108.64194173365831">
        <ele>2018.199951171875</ele>
        <time>2012-05-18T17:06:07Z</time>
      </trkpt>
      <trkpt lat="38.995809825137258" lon="-108.64183193072677">
        <ele>2016.5999755859375</ele>
        <time>2012-05-18T17:06:10Z</time>
      </trkpt>
      <trkpt lat="38.995876042172313" lon="-108.64172422327101">
        <ele>2015.5999755859375</ele>
        <time>2012-05-18T17:06:12Z</time>
      </trkpt>
      <trkpt lat="38.996024737134576" lon="-108.64158541895449">
        <ele>2014.800048828125</ele>
        <time>2012-05-18T17:06:15Z</time>
      </trkpt>
      <trkpt lat="38.996201176196337" lon="-108.64146882668138">
        <ele>2015</ele>
        <time>2012-05-18T17:06:18Z</time>
      </trkpt>
      <trkpt lat="38.996427152305841" lon="-108.64133840426803">
        <ele>2014.199951171875</ele>
        <time>2012-05-18T17:06:22Z</time>
      </trkpt>
      <trkpt lat="38.99659613147378" lon="-108.6412569321692">
        <ele>2013.199951171875</ele>
        <time>2012-05-18T17:06:25Z</time>
      </trkpt>
      <trkpt lat="38.996639968827367" lon="-108.64122860133648">
        <ele>2012.800048828125</ele>
        <time>2012-05-18T17:06:26Z</time>
      </trkpt>
      <trkpt lat="38.996673412621021" lon="-108.64119021221995">
        <ele>2012.5999755859375</ele>
        <time>2012-05-18T17:06:27Z</time>
      </trkpt>
      <trkpt lat="38.996797548606992" lon="-108.64111075177789">
        <ele>2011.800048828125</ele>
        <time>2012-05-18T17:06:30Z</time>
      </trkpt>
      <trkpt lat="38.996830657124519" lon="-108.64109407179058">
        <ele>2011.800048828125</ele>
        <time>2012-05-18T17:06:31Z</time>
      </trkpt>
      <trkpt lat="38.996878853067756" lon="-108.64105601795018">
        <ele>2011.5999755859375</ele>
        <time>2012-05-18T17:06:33Z</time>
      </trkpt>
      <trkpt lat="38.996896874159575" lon="-108.64102768711746">
        <ele>2011.5999755859375</ele>
        <time>2012-05-18T17:06:34Z</time>
      </trkpt>
      <trkpt lat="38.997036265209317" lon="-108.64088988862932">
        <ele>2011.5999755859375</ele>
        <time>2012-05-18T17:06:39Z</time>
      </trkpt>
      <trkpt lat="38.997149923816323" lon="-108.64085426554084">
        <ele>2011.199951171875</ele>
        <time>2012-05-18T17:06:43Z</time>
      </trkpt>
      <trkpt lat="38.997134920209646" lon="-108.64078846760094">
        <ele>2011.4000244140625</ele>
        <time>2012-05-18T17:06:46Z</time>
      </trkpt>
      <trkpt lat="38.997096531093121" lon="-108.6406940035522">
        <ele>2011.5999755859375</ele>
        <time>2012-05-18T17:06:51Z</time>
      </trkpt>
      <trkpt lat="38.997087813913822" lon="-108.64054379984736">
        <ele>2011.800048828125</ele>
        <time>2012-05-18T17:06:56Z</time>
      </trkpt>
      <trkpt lat="38.997071888297796" lon="-108.64045805297792">
        <ele>2012</ele>
        <time>2012-05-18T17:07:00Z</time>
      </trkpt>
      <trkpt lat="38.997066942974925" lon="-108.64036031998694">
        <ele>2012.199951171875</ele>
        <time>2012-05-18T17:07:05Z</time>
      </trkpt>
      <trkpt lat="38.99708135984838" lon="-108.64032704383135">
        <ele>2012.199951171875</ele>
        <time>2012-05-18T17:07:08Z</time>
      </trkpt>
      <trkpt lat="38.99708035402" lon="-108.64032804965973">
        <ele>2012.199951171875</ele>
        <time>2012-05-18T17:07:09Z</time>
      </trkpt>
      <trkpt lat="38.997080270200968" lon="-108.64034942351282">
        <ele>2012.199951171875</ele>
        <time>2012-05-18T17:07:19Z</time>
      </trkpt>
      <trkpt lat="38.997053783386946" lon="-108.64042653702199">
        <ele>2012.199951171875</ele>
        <time>2012-05-18T17:07:25Z</time>
      </trkpt>
      <trkpt lat="38.997072223573923" lon="-108.64046878181398">
        <ele>2012</ele>
        <time>2012-05-18T17:07:30Z</time>
      </trkpt>
      <trkpt lat="38.997075743973255" lon="-108.6404764931649">
        <ele>2012</ele>
        <time>2012-05-18T17:07:31Z</time>
      </trkpt>
      <trkpt lat="38.997097117826343" lon="-108.64054773934186">
        <ele>2011.800048828125</ele>
        <time>2012-05-18T17:07:37Z</time>
      </trkpt>
      <trkpt lat="38.997149420902133" lon="-108.64055796526372">
        <ele>2011.800048828125</ele>
        <time>2012-05-18T17:07:44Z</time>
      </trkpt>
      <trkpt lat="38.997154198586941" lon="-108.64054673351347">
        <ele>2012</ele>
        <time>2012-05-18T17:07:45Z</time>
      </trkpt>
      <trkpt lat="38.997174398973584" lon="-108.64049912430346">
        <ele>2012</ele>
        <time>2012-05-18T17:07:50Z</time>
      </trkpt>
      <trkpt lat="38.997223684564233" lon="-108.64044774323702">
        <ele>2012.199951171875</ele>
        <time>2012-05-18T17:07:57Z</time>
      </trkpt>
      <trkpt lat="38.997219577431679" lon="-108.64044858142734">
        <ele>2012.199951171875</ele>
        <time>2012-05-18T17:08:03Z</time>
      </trkpt>
      <trkpt lat="38.99724212475121" lon="-108.64037415012717">
        <ele>2012.199951171875</ele>
        <time>2012-05-18T17:09:04Z</time>
      </trkpt>
      <trkpt lat="38.997356705367565" lon="-108.6401778459549">
        <ele>2011.5999755859375</ele>
        <time>2012-05-18T17:09:08Z</time>
      </trkpt>
      <trkpt lat="38.997554602101445" lon="-108.63982605747879">
        <ele>2011.800048828125</ele>
        <time>2012-05-18T17:09:13Z</time>
      </trkpt>
      <trkpt lat="38.997900439426303" lon="-108.63925424404442">
        <ele>2008.5999755859375</ele>
        <time>2012-05-18T17:09:20Z</time>
      </trkpt>
      <trkpt lat="38.998190201818943" lon="-108.63890279084444">
        <ele>2003.199951171875</ele>
        <time>2012-05-18T17:09:24Z</time>
      </trkpt>
      <trkpt lat="38.998252060264349" lon="-108.63880354911089">
        <ele>2001.5999755859375</ele>
        <time>2012-05-18T17:09:25Z</time>
      </trkpt>
      <trkpt lat="38.998385164886713" lon="-108.63855653442442">
        <ele>1997.5999755859375</ele>
        <time>2012-05-18T17:09:28Z</time>
      </trkpt>
      <trkpt lat="38.99856629781425" lon="-108.6381605733186">
        <ele>1993.199951171875</ele>
        <time>2012-05-18T17:09:32Z</time>
      </trkpt>
      <trkpt lat="38.998836446553469" lon="-108.63759412430227">
        <ele>1986</ele>
        <time>2012-05-18T17:09:38Z</time>
      </trkpt>
      <trkpt lat="38.998941890895367" lon="-108.63745850510895">
        <ele>1982.199951171875</ele>
        <time>2012-05-18T17:09:40Z</time>
      </trkpt>
      <trkpt lat="38.999052364379168" lon="-108.63730520009995">
        <ele>1980</ele>
        <time>2012-05-18T17:09:42Z</time>
      </trkpt>
      <trkpt lat="38.999275574460626" lon="-108.63693337887526">
        <ele>1972.199951171875</ele>
        <time>2012-05-18T17:09:47Z</time>
      </trkpt>
      <trkpt lat="38.999393340200186" lon="-108.63675928674638">
        <ele>1967.800048828125</ele>
        <time>2012-05-18T17:09:51Z</time>
      </trkpt>
      <trkpt lat="38.999423179775476" lon="-108.63671720959246">
        <ele>1966.800048828125</ele>
        <time>2012-05-18T17:09:54Z</time>
      </trkpt>
      <trkpt lat="38.999430388212204" lon="-108.63669348880649">
        <ele>1966.4000244140625</ele>
        <time>2012-05-18T17:09:55Z</time>
      </trkpt>
      <trkpt lat="38.999449834227562" lon="-108.63659307360649">
        <ele>1964.5999755859375</ele>
        <time>2012-05-18T17:10:00Z</time>
      </trkpt>
      <trkpt lat="38.999455450102687" lon="-108.63657220266759">
        <ele>1964.199951171875</ele>
        <time>2012-05-18T17:10:02Z</time>
      </trkpt>
      <trkpt lat="38.999458467587829" lon="-108.63657094538212">
        <ele>1964.199951171875</ele>
        <time>2012-05-18T17:10:03Z</time>
      </trkpt>
      <trkpt lat="38.999459221959114" lon="-108.63657144829631">
        <ele>1964.199951171875</ele>
        <time>2012-05-18T17:10:08Z</time>
      </trkpt>
      <trkpt lat="38.999519487842917" lon="-108.63660514354706">
        <ele>1964.4000244140625</ele>
        <time>2012-05-18T17:10:41Z</time>
      </trkpt>
      <trkpt lat="38.999582268297672" lon="-108.63676314242184">
        <ele>1966.5999755859375</ele>
        <time>2012-05-18T17:10:47Z</time>
      </trkpt>
      <trkpt lat="38.999615041539073" lon="-108.63689968362451">
        <ele>1968.800048828125</ele>
        <time>2012-05-18T17:10:53Z</time>
      </trkpt>
      <trkpt lat="38.999663488939404" lon="-108.63708291202784">
        <ele>1971.4000244140625</ele>
        <time>2012-05-18T17:11:01Z</time>
      </trkpt>
      <trkpt lat="38.999779997393489" lon="-108.63718525506556">
        <ele>1971.800048828125</ele>
        <time>2012-05-18T17:11:08Z</time>
      </trkpt>
      <trkpt lat="38.999891392886639" lon="-108.63725901581347">
        <ele>1972</ele>
        <time>2012-05-18T17:11:15Z</time>
      </trkpt>
      <trkpt lat="39.000014439225197" lon="-108.63734006881714">
        <ele>1969.4000244140625</ele>
        <time>2012-05-18T17:11:22Z</time>
      </trkpt>
      <trkpt lat="39.000109490007162" lon="-108.63745993003249">
        <ele>1970.199951171875</ele>
        <time>2012-05-18T17:11:29Z</time>
      </trkpt>
      <trkpt lat="39.000193225219846" lon="-108.63757048733532">
        <ele>1969.5999755859375</ele>
        <time>2012-05-18T17:11:37Z</time>
      </trkpt>
      <trkpt lat="39.000150561332703" lon="-108.63756227307022">
        <ele>1970.5999755859375</ele>
        <time>2012-05-18T17:11:55Z</time>
      </trkpt>
      <trkpt lat="39.000067412853241" lon="-108.63754366524518">
        <ele>1970.800048828125</ele>
        <time>2012-05-18T17:12:03Z</time>
      </trkpt>
      <trkpt lat="38.999969260767102" lon="-108.63752371631563">
        <ele>1974.800048828125</ele>
        <time>2012-05-18T17:12:12Z</time>
      </trkpt>
      <trkpt lat="38.999860463663936" lon="-108.63752447068691">
        <ele>1974.800048828125</ele>
        <time>2012-05-18T17:12:22Z</time>
      </trkpt>
      <trkpt lat="38.999770861119032" lon="-108.63751851953566">
        <ele>1976</ele>
        <time>2012-05-18T17:12:31Z</time>
      </trkpt>
      <trkpt lat="38.999696345999837" lon="-108.63749739713967">
        <ele>1976.800048828125</ele>
        <time>2012-05-18T17:12:39Z</time>
      </trkpt>
      <trkpt lat="38.999628536403179" lon="-108.63751851953566">
        <ele>1978</ele>
        <time>2012-05-18T17:12:46Z</time>
      </trkpt>
      <trkpt lat="38.999559888616204" lon="-108.63753017038107">
        <ele>1979</ele>
        <time>2012-05-18T17:12:54Z</time>
      </trkpt>
      <trkpt lat="38.999462239444256" lon="-108.63754249177873">
        <ele>1980.199951171875</ele>
        <time>2012-05-18T17:13:05Z</time>
      </trkpt>
      <trkpt lat="38.999430052936077" lon="-108.63754509016871">
        <ele>1980.5999755859375</ele>
        <time>2012-05-18T17:13:12Z</time>
      </trkpt>
      <trkpt lat="38.999382443726063" lon="-108.63753654062748">
        <ele>1980.800048828125</ele>
        <time>2012-05-18T17:13:35Z</time>
      </trkpt>
      <trkpt lat="38.999267779290676" lon="-108.63759387284517">
        <ele>1982.4000244140625</ele>
        <time>2012-05-18T17:13:47Z</time>
      </trkpt>
      <trkpt lat="38.999165017157793" lon="-108.63766428083181">
        <ele>1984</ele>
        <time>2012-05-18T17:13:57Z</time>
      </trkpt>
      <trkpt lat="38.999071391299367" lon="-108.63776033744216">
        <ele>1986.199951171875</ele>
        <time>2012-05-18T17:14:08Z</time>
      </trkpt>
      <trkpt lat="38.998990841209888" lon="-108.63782823085785">
        <ele>1988</ele>
        <time>2012-05-18T17:14:16Z</time>
      </trkpt>
      <trkpt lat="38.998918002471328" lon="-108.63790718838573">
        <ele>1990</ele>
        <time>2012-05-18T17:14:24Z</time>
      </trkpt>
      <trkpt lat="38.998825466260314" lon="-108.63798136822879">
        <ele>1991.4000244140625</ele>
        <time>2012-05-18T17:14:33Z</time>
      </trkpt>
      <trkpt lat="38.998721949756145" lon="-108.63805412314832">
        <ele>1992.4000244140625</ele>
        <time>2012-05-18T17:14:43Z</time>
      </trkpt>
      <trkpt lat="38.998647518455982" lon="-108.63812084309757">
        <ele>1992.800048828125</ele>
        <time>2012-05-18T17:14:51Z</time>
      </trkpt>
      <trkpt lat="38.998566381633282" lon="-108.63823877647519">
        <ele>1993.800048828125</ele>
        <time>2012-05-18T17:15:02Z</time>
      </trkpt>
      <trkpt lat="38.998487591743469" lon="-108.63833365961909">
        <ele>1995</ele>
        <time>2012-05-18T17:15:12Z</time>
      </trkpt>
      <trkpt lat="38.998420033603907" lon="-108.63841990940273">
        <ele>1996</ele>
        <time>2012-05-18T17:15:21Z</time>
      </trkpt>
      <trkpt lat="38.998342249542475" lon="-108.63849157467484">
        <ele>1996.5999755859375</ele>
        <time>2012-05-18T17:15:30Z</time>
      </trkpt>
      <trkpt lat="38.998312158510089" lon="-108.63858478143811">
        <ele>1998</ele>
        <time>2012-05-18T17:15:38Z</time>
      </trkpt>
      <trkpt lat="38.998260274529457" lon="-108.63867597654462">
        <ele>1999.5999755859375</ele>
        <time>2012-05-18T17:15:46Z</time>
      </trkpt>
      <trkpt lat="38.998178131878376" lon="-108.63872140645981">
        <ele>2000.5999755859375</ele>
        <time>2012-05-18T17:15:53Z</time>
      </trkpt>
      <trkpt lat="38.998100934550166" lon="-108.63874169066548">
        <ele>2000.5999755859375</ele>
        <time>2012-05-18T17:15:59Z</time>
      </trkpt>
      <trkpt lat="38.998008901253343" lon="-108.63874713890254">
        <ele>2000.4000244140625</ele>
        <time>2012-05-18T17:16:06Z</time>
      </trkpt>
      <trkpt lat="38.997907564043999" lon="-108.63874998874962">
        <ele>2000</ele>
        <time>2012-05-18T17:16:14Z</time>
      </trkpt>
      <trkpt lat="38.997815949842334" lon="-108.63873766735196">
        <ele>1999.199951171875</ele>
        <time>2012-05-18T17:16:21Z</time>
      </trkpt>
      <trkpt lat="38.997707320377231" lon="-108.63872442394495">
        <ele>1998.4000244140625</ele>
        <time>2012-05-18T17:16:29Z</time>
      </trkpt>
      <trkpt lat="38.997578574344516" lon="-108.63870330154896">
        <ele>1998</ele>
        <time>2012-05-18T17:16:39Z</time>
      </trkpt>
      <trkpt lat="38.997462401166558" lon="-108.6386941652745">
        <ele>1998.5999755859375</ele>
        <time>2012-05-18T17:16:48Z</time>
      </trkpt>
      <trkpt lat="38.997363746166229" lon="-108.6387095041573">
        <ele>1999.5999755859375</ele>
        <time>2012-05-18T17:16:56Z</time>
      </trkpt>
      <trkpt lat="38.997240280732512" lon="-108.63874495960772">
        <ele>2000</ele>
        <time>2012-05-18T17:17:06Z</time>
      </trkpt>
      <trkpt lat="38.997158724814653" lon="-108.63875778391957">
        <ele>1999.800048828125</ele>
        <time>2012-05-18T17:17:14Z</time>
      </trkpt>
      <trkpt lat="38.997136931866407" lon="-108.63877220079303">
        <ele>2000</ele>
        <time>2012-05-18T17:17:22Z</time>
      </trkpt>
      <trkpt lat="38.997140033170581" lon="-108.63876909948885">
        <ele>2000</ele>
        <time>2012-05-18T17:17:28Z</time>
      </trkpt>
      <trkpt lat="38.997132070362568" lon="-108.63878678530455">
        <ele>2000.199951171875</ele>
        <time>2012-05-18T17:18:13Z</time>
      </trkpt>
      <trkpt lat="38.997194850817323" lon="-108.63874210976064">
        <ele>1999.800048828125</ele>
        <time>2012-05-18T17:18:18Z</time>
      </trkpt>
      <trkpt lat="38.997371876612306" lon="-108.63870615139604">
        <ele>1999.4000244140625</ele>
        <time>2012-05-18T17:18:23Z</time>
      </trkpt>
      <trkpt lat="38.997621908783913" lon="-108.63873515278101">
        <ele>1998.4000244140625</ele>
        <time>2012-05-18T17:18:28Z</time>
      </trkpt>
      <trkpt lat="38.997865822166204" lon="-108.63884101621807">
        <ele>2001.5999755859375</ele>
        <time>2012-05-18T17:18:34Z</time>
      </trkpt>
      <trkpt lat="38.997897924855351" lon="-108.63885182887316">
        <ele>2002</ele>
        <time>2012-05-18T17:18:35Z</time>
      </trkpt>
      <trkpt lat="38.998043853789568" lon="-108.6388601269573">
        <ele>2002.4000244140625</ele>
        <time>2012-05-18T17:18:39Z</time>
      </trkpt>
      <trkpt lat="38.998257843777537" lon="-108.63879625685513">
        <ele>2001.5999755859375</ele>
        <time>2012-05-18T17:18:44Z</time>
      </trkpt>
      <trkpt lat="38.998364126309752" lon="-108.63865317776799">
        <ele>1999</ele>
        <time>2012-05-18T17:18:48Z</time>
      </trkpt>
      <trkpt lat="38.998381812125444" lon="-108.63861445337534">
        <ele>1998.5999755859375</ele>
        <time>2012-05-18T17:18:49Z</time>
      </trkpt>
      <trkpt lat="38.998490273952484" lon="-108.638412700966">
        <ele>1996</ele>
        <time>2012-05-18T17:18:56Z</time>
      </trkpt>
      <trkpt lat="38.99862052872777" lon="-108.63840733654797">
        <ele>1995.4000244140625</ele>
        <time>2012-05-18T17:19:01Z</time>
      </trkpt>
      <trkpt lat="38.998669562861323" lon="-108.6384039837867">
        <ele>1995</ele>
        <time>2012-05-18T17:19:03Z</time>
      </trkpt>
      <trkpt lat="38.998710550367832" lon="-108.63834405317903">
        <ele>1994.4000244140625</ele>
        <time>2012-05-18T17:19:05Z</time>
      </trkpt>
      <trkpt lat="38.998741060495377" lon="-108.63825193606317">
        <ele>1993.4000244140625</ele>
        <time>2012-05-18T17:19:07Z</time>
      </trkpt>
      <trkpt lat="38.998784981667995" lon="-108.63810097798705">
        <ele>1992.4000244140625</ele>
        <time>2012-05-18T17:19:10Z</time>
      </trkpt>
      <trkpt lat="38.998900819569826" lon="-108.63777006044984">
        <ele>1988.199951171875</ele>
        <time>2012-05-18T17:19:17Z</time>
      </trkpt>
      <trkpt lat="38.999037528410554" lon="-108.6374456807971">
        <ele>1981.5999755859375</ele>
        <time>2012-05-18T17:19:22Z</time>
      </trkpt>
      <trkpt lat="38.999169040471315" lon="-108.63709397614002">
        <ele>1977.199951171875</ele>
        <time>2012-05-18T17:19:28Z</time>
      </trkpt>
      <trkpt lat="38.999310862272978" lon="-108.63676934503019">
        <ele>1968.4000244140625</ele>
        <time>2012-05-18T17:19:34Z</time>
      </trkpt>
      <trkpt lat="38.999344808980823" lon="-108.63655870780349">
        <ele>1964.5999755859375</ele>
        <time>2012-05-18T17:19:38Z</time>
      </trkpt>
      <trkpt lat="38.999356459826231" lon="-108.63652903586626">
        <ele>1964</ele>
        <time>2012-05-18T17:19:39Z</time>
      </trkpt>
      <trkpt lat="38.999411696568131" lon="-108.63650171086192">
        <ele>1963.199951171875</ele>
        <time>2012-05-18T17:19:42Z</time>
      </trkpt>
      <trkpt lat="38.99941261857748" lon="-108.63650741055608">
        <ele>1963.4000244140625</ele>
        <time>2012-05-18T17:19:46Z</time>
      </trkpt>
      <trkpt lat="38.999394681304693" lon="-108.6363993678242">
        <ele>1961.800048828125</ele>
        <time>2012-05-18T17:19:50Z</time>
      </trkpt>
      <trkpt lat="38.999396692961454" lon="-108.63607046194375">
        <ele>1956.5999755859375</ele>
        <time>2012-05-18T17:19:55Z</time>
      </trkpt>
      <trkpt lat="38.999434411525726" lon="-108.63592914305627">
        <ele>1954.199951171875</ele>
        <time>2012-05-18T17:19:57Z</time>
      </trkpt>
      <trkpt lat="38.999505825340748" lon="-108.63573895767331">
        <ele>1951.800048828125</ele>
        <time>2012-05-18T17:20:00Z</time>
      </trkpt>
      <trkpt lat="38.999616717919707" lon="-108.63548406399786">
        <ele>1943.4000244140625</ele>
        <time>2012-05-18T17:20:05Z</time>
      </trkpt>
      <trkpt lat="38.999647395685315" lon="-108.63543947227299">
        <ele>1941.199951171875</ele>
        <time>2012-05-18T17:20:06Z</time>
      </trkpt>
      <trkpt lat="38.999728700146079" lon="-108.63528130576015">
        <ele>1935.5999755859375</ele>
        <time>2012-05-18T17:20:09Z</time>
      </trkpt>
      <trkpt lat="38.999741021543741" lon="-108.63526588305831">
        <ele>1935</ele>
        <time>2012-05-18T17:20:10Z</time>
      </trkpt>
      <trkpt lat="38.999758958816528" lon="-108.63525305874646">
        <ele>1934.4000244140625</ele>
        <time>2012-05-18T17:20:14Z</time>
      </trkpt>
      <trkpt lat="38.999818386510015" lon="-108.6351331975311">
        <ele>1931.4000244140625</ele>
        <time>2012-05-18T17:20:22Z</time>
      </trkpt>
      <trkpt lat="38.999888794496655" lon="-108.63494091667235">
        <ele>1933.4000244140625</ele>
        <time>2012-05-18T17:20:26Z</time>
      </trkpt>
      <trkpt lat="38.999877562746406" lon="-108.63489205017686">
        <ele>1934</ele>
        <time>2012-05-18T17:20:27Z</time>
      </trkpt>
      <trkpt lat="38.999872533604503" lon="-108.63478140905499">
        <ele>1934.4000244140625</ele>
        <time>2012-05-18T17:20:30Z</time>
      </trkpt>
      <trkpt lat="38.999888459220529" lon="-108.63475014455616">
        <ele>1934.4000244140625</ele>
        <time>2012-05-18T17:20:31Z</time>
      </trkpt>
      <trkpt lat="38.999954089522362" lon="-108.63471284508705">
        <ele>1934.199951171875</ele>
        <time>2012-05-18T17:20:33Z</time>
      </trkpt>
      <trkpt lat="39.000020641833544" lon="-108.63455987535417">
        <ele>1928</ele>
        <time>2012-05-18T17:20:37Z</time>
      </trkpt>
      <trkpt lat="39.000060623511672" lon="-108.6344753857702">
        <ele>1926.5999755859375</ele>
        <time>2012-05-18T17:20:41Z</time>
      </trkpt>
      <trkpt lat="39.000075543299317" lon="-108.63435720093548">
        <ele>1924.5999755859375</ele>
        <time>2012-05-18T17:20:46Z</time>
      </trkpt>
      <trkpt lat="39.000086858868599" lon="-108.63434739410877">
        <ele>1924.4000244140625</ele>
        <time>2012-05-18T17:20:47Z</time>
      </trkpt>
      <trkpt lat="39.000126672908664" lon="-108.63433138467371">
        <ele>1924.199951171875</ele>
        <time>2012-05-18T17:20:49Z</time>
      </trkpt>
      <trkpt lat="39.000130360946059" lon="-108.63430188037455">
        <ele>1923.800048828125</ele>
        <time>2012-05-18T17:20:50Z</time>
      </trkpt>
      <trkpt lat="39.000105382874608" lon="-108.63425703719258">
        <ele>1922.800048828125</ele>
        <time>2012-05-18T17:20:52Z</time>
      </trkpt>
      <trkpt lat="39.000092390924692" lon="-108.63422015681863">
        <ele>1922.199951171875</ele>
        <time>2012-05-18T17:20:55Z</time>
      </trkpt>
      <trkpt lat="39.000092390924692" lon="-108.63422225229442">
        <ele>1922.199951171875</ele>
        <time>2012-05-18T17:20:56Z</time>
      </trkpt>
      <trkpt lat="39.000045955181122" lon="-108.63421378657222">
        <ele>1922</ele>
        <time>2012-05-18T17:21:06Z</time>
      </trkpt>
      <trkpt lat="39.000016031786799" lon="-108.63419693894684">
        <ele>1921.5999755859375</ele>
        <time>2012-05-18T17:21:11Z</time>
      </trkpt>
      <trkpt lat="39.000009577721357" lon="-108.63418922759593">
        <ele>1921.4000244140625</ele>
        <time>2012-05-18T17:21:15Z</time>
      </trkpt>
      <trkpt lat="39.000003794208169" lon="-108.63418092951179">
        <ele>1921.4000244140625</ele>
        <time>2012-05-18T17:21:21Z</time>
      </trkpt>
      <trkpt lat="38.999995160847902" lon="-108.63415737636387">
        <ele>1923.199951171875</ele>
        <time>2012-05-18T17:21:26Z</time>
      </trkpt>
      <trkpt lat="38.999972864985466" lon="-108.63413818180561">
        <ele>1922.4000244140625</ele>
        <time>2012-05-18T17:21:31Z</time>
      </trkpt>
      <trkpt lat="38.999979486688972" lon="-108.63413482904434">
        <ele>1922.4000244140625</ele>
        <time>2012-05-18T17:21:38Z</time>
      </trkpt>
      <trkpt lat="38.999982587993145" lon="-108.63412527367473">
        <ele>1922</ele>
        <time>2012-05-18T17:21:50Z</time>
      </trkpt>
      <trkpt lat="38.999952245503664" lon="-108.63409493118525">
        <ele>1921.199951171875</ele>
        <time>2012-05-18T17:22:02Z</time>
      </trkpt>
      <trkpt lat="38.999908408150077" lon="-108.63410792313516">
        <ele>1921.5999755859375</ele>
        <time>2012-05-18T17:22:07Z</time>
      </trkpt>
      <trkpt lat="38.99989290162921" lon="-108.63409803248942">
        <ele>1921.199951171875</ele>
        <time>2012-05-18T17:22:09Z</time>
      </trkpt>
      <trkpt lat="38.999817632138729" lon="-108.63401019014418">
        <ele>1919.5999755859375</ele>
        <time>2012-05-18T17:22:13Z</time>
      </trkpt>
      <trkpt lat="38.99981084279716" lon="-108.63394321873784">
        <ele>1918.800048828125</ele>
        <time>2012-05-18T17:22:15Z</time>
      </trkpt>
      <trkpt lat="38.99980447255075" lon="-108.63387037999928">
        <ele>1918.199951171875</ele>
        <time>2012-05-18T17:22:17Z</time>
      </trkpt>
      <trkpt lat="38.999741775915027" lon="-108.63383266143501">
        <ele>1918.4000244140625</ele>
        <time>2012-05-18T17:22:20Z</time>
      </trkpt>
      <trkpt lat="38.99971310980618" lon="-108.63381288014352">
        <ele>1918.5999755859375</ele>
        <time>2012-05-18T17:22:21Z</time>
      </trkpt>
      <trkpt lat="38.999629374593496" lon="-108.63372093066573">
        <ele>1918.4000244140625</ele>
        <time>2012-05-18T17:22:24Z</time>
      </trkpt>
      <trkpt lat="38.999573634937406" lon="-108.63351574167609">
        <ele>1917.800048828125</ele>
        <time>2012-05-18T17:22:28Z</time>
      </trkpt>
      <trkpt lat="38.999585285782814" lon="-108.63347995094955">
        <ele>1917.5999755859375</ele>
        <time>2012-05-18T17:22:29Z</time>
      </trkpt>
      <trkpt lat="38.999621076509356" lon="-108.63340015523136">
        <ele>1917.5999755859375</ele>
        <time>2012-05-18T17:22:31Z</time>
      </trkpt>
      <trkpt lat="38.999712858349085" lon="-108.6333270650357">
        <ele>1917.5999755859375</ele>
        <time>2012-05-18T17:22:34Z</time>
      </trkpt>
      <trkpt lat="38.999719228595495" lon="-108.63327568396926">
        <ele>1917.800048828125</ele>
        <time>2012-05-18T17:22:35Z</time>
      </trkpt>
      <trkpt lat="38.999695088714361" lon="-108.63321918994188">
        <ele>1917.800048828125</ele>
        <time>2012-05-18T17:22:36Z</time>
      </trkpt>
      <trkpt lat="38.999657789245248" lon="-108.63307049497962">
        <ele>1917.199951171875</ele>
        <time>2012-05-18T17:22:39Z</time>
      </trkpt>
      <trkpt lat="38.999665332958102" lon="-108.63304275088012">
        <ele>1917</ele>
        <time>2012-05-18T17:22:40Z</time>
      </trkpt>
      <trkpt lat="38.999676816165447" lon="-108.63294325768948">
        <ele>1916.5999755859375</ele>
        <time>2012-05-18T17:22:43Z</time>
      </trkpt>
      <trkpt lat="38.999701794236898" lon="-108.63288341090083">
        <ele>1915.800048828125</ele>
        <time>2012-05-18T17:22:45Z</time>
      </trkpt>
      <trkpt lat="38.999778321012855" lon="-108.63274712115526">
        <ele>1913</ele>
        <time>2012-05-18T17:22:49Z</time>
      </trkpt>
      <trkpt lat="38.999822242185473" lon="-108.63258367404342">
        <ele>1910.199951171875</ele>
        <time>2012-05-18T17:22:53Z</time>
      </trkpt>
      <trkpt lat="38.999863313511014" lon="-108.63232417032123">
        <ele>1907</ele>
        <time>2012-05-18T17:22:58Z</time>
      </trkpt>
      <trkpt lat="38.999890303239226" lon="-108.63199065439403">
        <ele>1902.5999755859375</ele>
        <time>2012-05-18T17:23:05Z</time>
      </trkpt>
      <trkpt lat="38.999933553859591" lon="-108.63170499913394">
        <ele>1899.4000244140625</ele>
        <time>2012-05-18T17:23:09Z</time>
      </trkpt>
      <trkpt lat="38.999968841671944" lon="-108.63151313737035">
        <ele>1897.800048828125</ele>
        <time>2012-05-18T17:23:12Z</time>
      </trkpt>
      <trkpt lat="38.999998094514012" lon="-108.63138162530959">
        <ele>1896.199951171875</ele>
        <time>2012-05-18T17:23:14Z</time>
      </trkpt>
      <trkpt lat="38.999999770894647" lon="-108.63130727782845">
        <ele>1895.4000244140625</ele>
        <time>2012-05-18T17:23:15Z</time>
      </trkpt>
      <trkpt lat="39.000022234395146" lon="-108.63106747157872">
        <ele>1891.4000244140625</ele>
        <time>2012-05-18T17:23:18Z</time>
      </trkpt>
      <trkpt lat="39.000063808634877" lon="-108.63088524900377">
        <ele>1888.4000244140625</ele>
        <time>2012-05-18T17:23:21Z</time>
      </trkpt>
      <trkpt lat="39.000098761171103" lon="-108.63084803335369">
        <ele>1887.5999755859375</ele>
        <time>2012-05-18T17:23:22Z</time>
      </trkpt>
      <trkpt lat="39.000204876065254" lon="-108.63072062842548">
        <ele>1884.800048828125</ele>
        <time>2012-05-18T17:23:25Z</time>
      </trkpt>
      <trkpt lat="39.000213090330362" lon="-108.63066430203617">
        <ele>1883.4000244140625</ele>
        <time>2012-05-18T17:23:26Z</time>
      </trkpt>
      <trkpt lat="39.000163553282619" lon="-108.6305021122098">
        <ele>1878.5999755859375</ele>
        <time>2012-05-18T17:23:29Z</time>
      </trkpt>
      <trkpt lat="39.000167157500982" lon="-108.63044360652566">
        <ele>1877</ele>
        <time>2012-05-18T17:23:30Z</time>
      </trkpt>
      <trkpt lat="39.000235805287957" lon="-108.63031234592199">
        <ele>1875.4000244140625</ele>
        <time>2012-05-18T17:23:32Z</time>
      </trkpt>
      <trkpt lat="39.000421799719334" lon="-108.63005510531366">
        <ele>1876.199951171875</ele>
        <time>2012-05-18T17:23:36Z</time>
      </trkpt>
      <trkpt lat="39.000489441677928" lon="-108.62999140284956">
        <ele>1874.5999755859375</ele>
        <time>2012-05-18T17:23:37Z</time>
      </trkpt>
      <trkpt lat="39.000809965655208" lon="-108.62971362657845">
        <ele>1870.199951171875</ele>
        <time>2012-05-18T17:23:42Z</time>
      </trkpt>
      <trkpt lat="39.001107355579734" lon="-108.62940819002688">
        <ele>1865</ele>
        <time>2012-05-18T17:23:47Z</time>
      </trkpt>
      <trkpt lat="39.001185810193419" lon="-108.62933920696378">
        <ele>1863.4000244140625</ele>
        <time>2012-05-18T17:23:49Z</time>
      </trkpt>
      <trkpt lat="39.001234173774719" lon="-108.62932981923223">
        <ele>1862.800048828125</ele>
        <time>2012-05-18T17:23:50Z</time>
      </trkpt>
      <trkpt lat="39.001355208456516" lon="-108.62934675067663">
        <ele>1860.4000244140625</ele>
        <time>2012-05-18T17:23:53Z</time>
      </trkpt>
      <trkpt lat="39.001437518745661" lon="-108.62929503433406">
        <ele>1858.4000244140625</ele>
        <time>2012-05-18T17:23:56Z</time>
      </trkpt>
      <trkpt lat="39.001481188461185" lon="-108.62937055528164">
        <ele>1858</ele>
        <time>2012-05-18T17:23:59Z</time>
      </trkpt>
      <trkpt lat="39.001558553427458" lon="-108.62940626218915">
        <ele>1856.800048828125</ele>
        <time>2012-05-18T17:24:03Z</time>
      </trkpt>
      <trkpt lat="39.001582358032465" lon="-108.62940483726561">
        <ele>1856.4000244140625</ele>
        <time>2012-05-18T17:24:04Z</time>
      </trkpt>
      <trkpt lat="39.001644970849156" lon="-108.62934214062989">
        <ele>1854.800048828125</ele>
        <time>2012-05-18T17:24:08Z</time>
      </trkpt>
      <trkpt lat="39.001739602535963" lon="-108.62926569767296">
        <ele>1852.4000244140625</ele>
        <time>2012-05-18T17:24:11Z</time>
      </trkpt>
      <trkpt lat="39.001803640276194" lon="-108.62914650700986">
        <ele>1850.199951171875</ele>
        <time>2012-05-18T17:24:13Z</time>
      </trkpt>
      <trkpt lat="39.001838676631451" lon="-108.62908808514476">
        <ele>1849.199951171875</ele>
        <time>2012-05-18T17:24:14Z</time>
      </trkpt>
      <trkpt lat="39.001939930021763" lon="-108.62881902605295">
        <ele>1845.800048828125</ele>
        <time>2012-05-18T17:24:17Z</time>
      </trkpt>
      <trkpt lat="39.002038082107902" lon="-108.62861408852041">
        <ele>1842.199951171875</ele>
        <time>2012-05-18T17:24:20Z</time>
      </trkpt>
      <trkpt lat="39.002085691317916" lon="-108.62857209518552">
        <ele>1841</ele>
        <time>2012-05-18T17:24:21Z</time>
      </trkpt>
      <trkpt lat="39.002185771241784" lon="-108.62851400859654">
        <ele>1839</ele>
        <time>2012-05-18T17:24:24Z</time>
      </trkpt>
      <trkpt lat="39.002224914729595" lon="-108.62849045544863">
        <ele>1838</ele>
        <time>2012-05-18T17:24:26Z</time>
      </trkpt>
      <trkpt lat="39.002233715727925" lon="-108.62849632278085">
        <ele>1837.800048828125</ele>
        <time>2012-05-18T17:24:27Z</time>
      </trkpt>
      <trkpt lat="39.002229189500213" lon="-108.62850026227534">
        <ele>1838</ele>
        <time>2012-05-18T17:24:28Z</time>
      </trkpt>
      <trkpt lat="39.002208486199379" lon="-108.62856505438685">
        <ele>1838.800048828125</ele>
        <time>2012-05-18T17:24:53Z</time>
      </trkpt>
      <trkpt lat="39.002070100978017" lon="-108.62863563001156">
        <ele>1841.800048828125</ele>
        <time>2012-05-18T17:25:06Z</time>
      </trkpt>
      <trkpt lat="39.002049146220088" lon="-108.62863663583994">
        <ele>1842.199951171875</ele>
        <time>2012-05-18T17:25:14Z</time>
      </trkpt>
      <trkpt lat="39.002050152048469" lon="-108.6286386474967">
        <ele>1842.199951171875</ele>
        <time>2012-05-18T17:25:36Z</time>
      </trkpt>
      <trkpt lat="39.002078399062157" lon="-108.62865834496915">
        <ele>1841.800048828125</ele>
        <time>2012-05-18T17:25:43Z</time>
      </trkpt>
      <trkpt lat="39.002166325226426" lon="-108.62868374213576">
        <ele>1840.4000244140625</ele>
        <time>2012-05-18T17:25:51Z</time>
      </trkpt>
      <trkpt lat="39.002178562805057" lon="-108.62868449650705">
        <ele>1840.199951171875</ele>
        <time>2012-05-18T17:25:52Z</time>
      </trkpt>
      <trkpt lat="39.002182250842452" lon="-108.62867586314678">
        <ele>1840.199951171875</ele>
        <time>2012-05-18T17:25:56Z</time>
      </trkpt>
      <trkpt lat="39.002130283042789" lon="-108.62863504327834">
        <ele>1840.800048828125</ele>
        <time>2012-05-18T17:26:05Z</time>
      </trkpt>
      <trkpt lat="39.002113100141287" lon="-108.62863093614578">
        <ele>1841</ele>
        <time>2012-05-18T17:26:10Z</time>
      </trkpt>
      <trkpt lat="39.002039087936282" lon="-108.62860537134111">
        <ele>1842.199951171875</ele>
        <time>2012-05-18T17:26:18Z</time>
      </trkpt>
      <trkpt lat="39.0020243357867" lon="-108.62856295891106">
        <ele>1842.199951171875</ele>
        <time>2012-05-18T17:26:22Z</time>
      </trkpt>
      <trkpt lat="39.002008242532611" lon="-108.62854887731373">
        <ele>1842.4000244140625</ele>
        <time>2012-05-18T17:26:28Z</time>
      </trkpt>
      <trkpt lat="39.001971110701561" lon="-108.62854954786599">
        <ele>1843.199951171875</ele>
        <time>2012-05-18T17:26:34Z</time>
      </trkpt>
      <trkpt lat="39.001922998577356" lon="-108.62851769663393">
        <ele>1843.800048828125</ele>
        <time>2012-05-18T17:26:42Z</time>
      </trkpt>
      <trkpt lat="39.001933811232448" lon="-108.62850830890238">
        <ele>1843.4000244140625</ele>
        <time>2012-05-18T17:26:47Z</time>
      </trkpt>
      <trkpt lat="39.001939343288541" lon="-108.62852708436549">
        <ele>1843.5999755859375</ele>
        <time>2012-05-18T17:26:53Z</time>
      </trkpt>
      <trkpt lat="39.001970859244466" lon="-108.62855985760689">
        <ele>1843.199951171875</ele>
        <time>2012-05-18T17:26:59Z</time>
      </trkpt>
      <trkpt lat="39.001997681334615" lon="-108.62857435829937">
        <ele>1842.800048828125</ele>
        <time>2012-05-18T17:27:05Z</time>
      </trkpt>
      <trkpt lat="39.002007739618421" lon="-108.62857075408101">
        <ele>1842.5999755859375</ele>
        <time>2012-05-18T17:27:11Z</time>
      </trkpt>
      <trkpt lat="39.002027520909905" lon="-108.62858064472675">
        <ele>1842.199951171875</ele>
        <time>2012-05-18T17:27:17Z</time>
      </trkpt>
      <trkpt lat="39.00203263387084" lon="-108.6285955645144">
        <ele>1842.199951171875</ele>
        <time>2012-05-18T17:27:22Z</time>
      </trkpt>
      <trkpt lat="39.00204093195498" lon="-108.62858885899186">
        <ele>1842</ele>
        <time>2012-05-18T17:27:26Z</time>
      </trkpt>
      <trkpt lat="39.002050487324595" lon="-108.62859003245831">
        <ele>1841.800048828125</ele>
        <time>2012-05-18T17:27:53Z</time>
      </trkpt>
      <trkpt lat="39.002064066007733" lon="-108.62863789312541">
        <ele>1841.800048828125</ele>
        <time>2012-05-18T17:28:25Z</time>
      </trkpt>
      <trkpt lat="39.002086780965328" lon="-108.6286402400583">
        <ele>1841.4000244140625</ele>
        <time>2012-05-18T17:28:35Z</time>
      </trkpt>
      <trkpt lat="39.002188537269831" lon="-108.62857100553811">
        <ele>1839.199951171875</ele>
        <time>2012-05-18T17:28:39Z</time>
      </trkpt>
      <trkpt lat="39.00237025693059" lon="-108.62839213572443">
        <ele>1834.5999755859375</ele>
        <time>2012-05-18T17:28:44Z</time>
      </trkpt>
      <trkpt lat="39.002547785639763" lon="-108.62817009910941">
        <ele>1830.199951171875</ele>
        <time>2012-05-18T17:28:49Z</time>
      </trkpt>
      <trkpt lat="39.002753645181656" lon="-108.62780833616853">
        <ele>1824.199951171875</ele>
        <time>2012-05-18T17:28:56Z</time>
      </trkpt>
      <trkpt lat="39.002922791987658" lon="-108.62755277194083">
        <ele>1820</ele>
        <time>2012-05-18T17:29:01Z</time>
      </trkpt>
      <trkpt lat="39.003101829439402" lon="-108.62731363624334">
        <ele>1815.800048828125</ele>
        <time>2012-05-18T17:29:06Z</time>
      </trkpt>
      <trkpt lat="39.003141140565276" lon="-108.62726217135787">
        <ele>1814.800048828125</ele>
        <time>2012-05-18T17:29:07Z</time>
      </trkpt>
      <trkpt lat="39.00334557518363" lon="-108.62695430405438">
        <ele>1807</ele>
        <time>2012-05-18T17:29:12Z</time>
      </trkpt>
      <trkpt lat="39.003389161080122" lon="-108.6268890928477">
        <ele>1804.5999755859375</ele>
        <time>2012-05-18T17:29:13Z</time>
      </trkpt>
      <trkpt lat="39.003581022843719" lon="-108.62656085751951">
        <ele>1796.199951171875</ele>
        <time>2012-05-18T17:29:18Z</time>
      </trkpt>
      <trkpt lat="39.003652771934867" lon="-108.6264522280544">
        <ele>1793</ele>
        <time>2012-05-18T17:29:20Z</time>
      </trkpt>
      <trkpt lat="39.003769364207983" lon="-108.62632675096393">
        <ele>1788.199951171875</ele>
        <time>2012-05-18T17:29:23Z</time>
      </trkpt>
      <trkpt lat="39.00390112772584" lon="-108.62615165300667">
        <ele>1786.199951171875</ele>
        <time>2012-05-18T17:29:27Z</time>
      </trkpt>
      <trkpt lat="39.00394563563168" lon="-108.62603145651519">
        <ele>1784.4000244140625</ele>
        <time>2012-05-18T17:29:29Z</time>
      </trkpt>
      <trkpt lat="39.004082176834345" lon="-108.62557799555361">
        <ele>1777.4000244140625</ele>
        <time>2012-05-18T17:29:35Z</time>
      </trkpt>
      <trkpt lat="39.004106903448701" lon="-108.62539996393025">
        <ele>1775.4000244140625</ele>
        <time>2012-05-18T17:29:37Z</time>
      </trkpt>
      <trkpt lat="39.004150405526161" lon="-108.62521816045046">
        <ele>1773.199951171875</ele>
        <time>2012-05-18T17:29:39Z</time>
      </trkpt>
      <trkpt lat="39.004217125475407" lon="-108.6250279750675">
        <ele>1770.5999755859375</ele>
        <time>2012-05-18T17:29:41Z</time>
      </trkpt>
      <trkpt lat="39.00431695394218" lon="-108.62485991790891">
        <ele>1764.800048828125</ele>
        <time>2012-05-18T17:29:43Z</time>
      </trkpt>
      <trkpt lat="39.004439497366548" lon="-108.62470694817603">
        <ele>1764.4000244140625</ele>
        <time>2012-05-18T17:29:45Z</time>
      </trkpt>
      <trkpt lat="39.004547959193587" lon="-108.62453470006585">
        <ele>1760</ele>
        <time>2012-05-18T17:29:47Z</time>
      </trkpt>
      <trkpt lat="39.004796398803592" lon="-108.624128093943">
        <ele>1756.199951171875</ele>
        <time>2012-05-18T17:29:52Z</time>
      </trkpt>
      <trkpt lat="39.004897819831967" lon="-108.62398434430361">
        <ele>1752.4000244140625</ele>
        <time>2012-05-18T17:29:54Z</time>
      </trkpt>
      <trkpt lat="39.00503184646368" lon="-108.62387261353433">
        <ele>1751</ele>
        <time>2012-05-18T17:29:56Z</time>
      </trkpt>
      <trkpt lat="39.005372235551476" lon="-108.62356348894536">
        <ele>1745.800048828125</ele>
        <time>2012-05-18T17:30:02Z</time>
      </trkpt>
      <trkpt lat="39.005421018227935" lon="-108.62353515811265">
        <ele>1744.5999755859375</ele>
        <time>2012-05-18T17:30:03Z</time>
      </trkpt>
      <trkpt lat="39.005522355437279" lon="-108.62351034767926">
        <ele>1741.800048828125</ele>
        <time>2012-05-18T17:30:05Z</time>
      </trkpt>
      <trkpt lat="39.005557056516409" lon="-108.62348620779812">
        <ele>1740.5999755859375</ele>
        <time>2012-05-18T17:30:06Z</time>
      </trkpt>
      <trkpt lat="39.005617406219244" lon="-108.62346324138343">
        <ele>1739</ele>
        <time>2012-05-18T17:30:08Z</time>
      </trkpt>
      <trkpt lat="39.005745984613895" lon="-108.62343742512167">
        <ele>1737</ele>
        <time>2012-05-18T17:30:11Z</time>
      </trkpt>
      <trkpt lat="39.005832402035594" lon="-108.62340146675706">
        <ele>1736.800048828125</ele>
        <time>2012-05-18T17:30:13Z</time>
      </trkpt>
      <trkpt lat="39.005900379270315" lon="-108.6233386863023">
        <ele>1735.5999755859375</ele>
        <time>2012-05-18T17:30:16Z</time>
      </trkpt>
      <trkpt lat="39.005914712324739" lon="-108.62335301935673">
        <ele>1735.5999755859375</ele>
        <time>2012-05-18T17:30:17Z</time>
      </trkpt>
      <trkpt lat="39.00591479614377" lon="-108.62336467020214">
        <ele>1735.5999755859375</ele>
        <time>2012-05-18T17:30:21Z</time>
      </trkpt>
      <trkpt lat="39.005956202745438" lon="-108.62344312481582">
        <ele>1736.4000244140625</ele>
        <time>2012-05-18T17:30:30Z</time>
      </trkpt>
      <trkpt lat="39.005967937409878" lon="-108.62349500879645">
        <ele>1737.4000244140625</ele>
        <time>2012-05-18T17:30:35Z</time>
      </trkpt>
      <trkpt lat="39.005959471687675" lon="-108.62351185642183">
        <ele>1737.800048828125</ele>
        <time>2012-05-18T17:30:37Z</time>
      </trkpt>
      <trkpt lat="39.005968356505036" lon="-108.62357354722917">
        <ele>1738.800048828125</ele>
        <time>2012-05-18T17:30:45Z</time>
      </trkpt>
      <trkpt lat="39.005969446152449" lon="-108.62363188527524">
        <ele>1740</ele>
        <time>2012-05-18T17:30:51Z</time>
      </trkpt>
      <trkpt lat="39.00602568872273" lon="-108.62368427217007">
        <ele>1742.199951171875</ele>
        <time>2012-05-18T17:30:58Z</time>
      </trkpt>
      <trkpt lat="39.006069274619222" lon="-108.62375300377607">
        <ele>1745</ele>
        <time>2012-05-18T17:31:06Z</time>
      </trkpt>
      <trkpt lat="39.006130713969469" lon="-108.62382324412465">
        <ele>1747.199951171875</ele>
        <time>2012-05-18T17:31:14Z</time>
      </trkpt>
      <trkpt lat="39.006191315129399" lon="-108.62385568208992">
        <ele>1748.199951171875</ele>
        <time>2012-05-18T17:31:21Z</time>
      </trkpt>
      <trkpt lat="39.006249904632568" lon="-108.62384604290128">
        <ele>1749.199951171875</ele>
        <time>2012-05-18T17:31:27Z</time>
      </trkpt>
      <trkpt lat="39.00628175586462" lon="-108.62385417334735">
        <ele>1748.4000244140625</ele>
        <time>2012-05-18T17:31:31Z</time>
      </trkpt>
      <trkpt lat="39.006304554641247" lon="-108.6238844320178">
        <ele>1747.5999755859375</ele>
        <time>2012-05-18T17:31:34Z</time>
      </trkpt>
      <trkpt lat="39.00631838478148" lon="-108.6239586956799">
        <ele>1746.199951171875</ele>
        <time>2012-05-18T17:31:42Z</time>
      </trkpt>
      <trkpt lat="39.006318133324385" lon="-108.62400286830962">
        <ele>1745.800048828125</ele>
        <time>2012-05-18T17:31:48Z</time>
      </trkpt>
      <trkpt lat="39.00631939060986" lon="-108.62404913641512">
        <ele>1745.4000244140625</ele>
        <time>2012-05-18T17:31:54Z</time>
      </trkpt>
      <trkpt lat="39.006308997049928" lon="-108.62409632652998">
        <ele>1745.5999755859375</ele>
        <time>2012-05-18T17:32:00Z</time>
      </trkpt>
      <trkpt lat="39.006308661773801" lon="-108.62413764931262">
        <ele>1745.5999755859375</ele>
        <time>2012-05-18T17:32:02Z</time>
      </trkpt>
      <trkpt lat="39.006329281255603" lon="-108.62415776588023">
        <ele>1745.199951171875</ele>
        <time>2012-05-18T17:32:03Z</time>
      </trkpt>
      <trkpt lat="39.00637311860919" lon="-108.62411795184016">
        <ele>1744.199951171875</ele>
        <time>2012-05-18T17:32:06Z</time>
      </trkpt>
      <trkpt lat="39.006386445835233" lon="-108.62410454079509">
        <ele>1744</ele>
        <time>2012-05-18T17:32:07Z</time>
      </trkpt>
      <trkpt lat="39.006483089178801" lon="-108.624009154737">
        <ele>1741.4000244140625</ele>
        <time>2012-05-18T17:32:13Z</time>
      </trkpt>
      <trkpt lat="39.006656929850578" lon="-108.62392533570528">
        <ele>1738.800048828125</ele>
        <time>2012-05-18T17:32:20Z</time>
      </trkpt>
      <trkpt lat="39.006783328950405" lon="-108.62380346283317">
        <ele>1735</ele>
        <time>2012-05-18T17:32:25Z</time>
      </trkpt>
      <trkpt lat="39.00690327398479" lon="-108.62359617836773">
        <ele>1736</ele>
        <time>2012-05-18T17:32:31Z</time>
      </trkpt>
      <trkpt lat="39.007040150463581" lon="-108.62351009622216">
        <ele>1734.199951171875</ele>
        <time>2012-05-18T17:32:36Z</time>
      </trkpt>
      <trkpt lat="39.007156994193792" lon="-108.6233944259584">
        <ele>1732.199951171875</ele>
        <time>2012-05-18T17:32:41Z</time>
      </trkpt>
      <trkpt lat="39.007329158484936" lon="-108.62328336574137">
        <ele>1728.4000244140625</ele>
        <time>2012-05-18T17:32:48Z</time>
      </trkpt>
      <trkpt lat="39.007506854832172" lon="-108.62313366495073">
        <ele>1725.4000244140625</ele>
        <time>2012-05-18T17:32:54Z</time>
      </trkpt>
      <trkpt lat="39.007710367441177" lon="-108.62302369438112">
        <ele>1721.800048828125</ele>
        <time>2012-05-18T17:32:59Z</time>
      </trkpt>
      <trkpt lat="39.00785855948925" lon="-108.62309292890131">
        <ele>1722</ele>
        <time>2012-05-18T17:33:02Z</time>
      </trkpt>
      <trkpt lat="39.007979091256857" lon="-108.62304364331067">
        <ele>1722.5999755859375</ele>
        <time>2012-05-18T17:33:05Z</time>
      </trkpt>
      <trkpt lat="39.008053690195084" lon="-108.62292872741818">
        <ele>1723</ele>
        <time>2012-05-18T17:33:08Z</time>
      </trkpt>
      <trkpt lat="39.008148824796081" lon="-108.62283426336944">
        <ele>1722.800048828125</ele>
        <time>2012-05-18T17:33:12Z</time>
      </trkpt>
      <trkpt lat="39.008158296346664" lon="-108.62282194197178">
        <ele>1722.800048828125</ele>
        <time>2012-05-18T17:33:13Z</time>
      </trkpt>
      <trkpt lat="39.008160810917616" lon="-108.62282353453338">
        <ele>1722.800048828125</ele>
        <time>2012-05-18T17:33:14Z</time>
      </trkpt>
      <trkpt lat="39.008158883079886" lon="-108.62282043322921">
        <ele>1722.5999755859375</ele>
        <time>2012-05-18T17:33:15Z</time>
      </trkpt>
      <trkpt lat="39.008188303560019" lon="-108.62277869135141">
        <ele>1722.4000244140625</ele>
        <time>2012-05-18T17:33:23Z</time>
      </trkpt>
      <trkpt lat="39.008249826729298" lon="-108.62273929640651">
        <ele>1722.199951171875</ele>
        <time>2012-05-18T17:33:30Z</time>
      </trkpt>
      <trkpt lat="39.008288634940982" lon="-108.62273946404457">
        <ele>1722.4000244140625</ele>
        <time>2012-05-18T17:33:36Z</time>
      </trkpt>
      <trkpt lat="39.008291233330965" lon="-108.62274968996644">
        <ele>1722.800048828125</ele>
        <time>2012-05-18T17:33:37Z</time>
      </trkpt>
      <trkpt lat="39.008292909711599" lon="-108.62282428890467">
        <ele>1724.199951171875</ele>
        <time>2012-05-18T17:33:44Z</time>
      </trkpt>
      <trkpt lat="39.008303387090564" lon="-108.62286519259214">
        <ele>1725</ele>
        <time>2012-05-18T17:33:53Z</time>
      </trkpt>
      <trkpt lat="39.008356779813766" lon="-108.62288245931268">
        <ele>1725.800048828125</ele>
        <time>2012-05-18T17:34:06Z</time>
      </trkpt>
      <trkpt lat="39.008414447307587" lon="-108.62293015234172">
        <ele>1726.800048828125</ele>
        <time>2012-05-18T17:34:12Z</time>
      </trkpt>
      <trkpt lat="39.008500277996063" lon="-108.62295563332736">
        <ele>1727.199951171875</ele>
        <time>2012-05-18T17:34:21Z</time>
      </trkpt>
      <trkpt lat="39.008539002388716" lon="-108.62303165718913">
        <ele>1728.199951171875</ele>
        <time>2012-05-18T17:34:28Z</time>
      </trkpt>
      <trkpt lat="39.008571775630116" lon="-108.62301916815341">
        <ele>1727.800048828125</ele>
        <time>2012-05-18T17:34:33Z</time>
      </trkpt>
      <trkpt lat="39.00860857218504" lon="-108.62299754284322">
        <ele>1727.4000244140625</ele>
        <time>2012-05-18T17:34:35Z</time>
      </trkpt>
      <trkpt lat="39.008644782006741" lon="-108.62296150065958">
        <ele>1726.800048828125</ele>
        <time>2012-05-18T17:34:37Z</time>
      </trkpt>
      <trkpt lat="39.008658863604069" lon="-108.62293174490333">
        <ele>1726.199951171875</ele>
        <time>2012-05-18T17:34:39Z</time>
      </trkpt>
      <trkpt lat="39.008668418973684" lon="-108.62292788922787">
        <ele>1726.199951171875</ele>
        <time>2012-05-18T17:34:40Z</time>
      </trkpt>
      <trkpt lat="39.008667664602399" lon="-108.62293367274106">
        <ele>1726.199951171875</ele>
        <time>2012-05-18T17:34:42Z</time>
      </trkpt>
      <trkpt lat="39.008707813918591" lon="-108.62281733192503">
        <ele>1724.800048828125</ele>
        <time>2012-05-18T17:34:50Z</time>
      </trkpt>
      <trkpt lat="39.008725835010409" lon="-108.62265095114708">
        <ele>1723</ele>
        <time>2012-05-18T17:34:53Z</time>
      </trkpt>
      <trkpt lat="39.008783753961325" lon="-108.62250560894608">
        <ele>1720.199951171875</ele>
        <time>2012-05-18T17:34:56Z</time>
      </trkpt>
      <trkpt lat="39.008772689849138" lon="-108.6224702373147">
        <ele>1719.5999755859375</ele>
        <time>2012-05-18T17:34:57Z</time>
      </trkpt>
      <trkpt lat="39.008815689012408" lon="-108.62239513546228">
        <ele>1718.199951171875</ele>
        <time>2012-05-18T17:34:59Z</time>
      </trkpt>
      <trkpt lat="39.008892048150301" lon="-108.62223646603525">
        <ele>1715.800048828125</ele>
        <time>2012-05-18T17:35:02Z</time>
      </trkpt>
      <trkpt lat="39.008911158889532" lon="-108.62218148075044">
        <ele>1714.800048828125</ele>
        <time>2012-05-18T17:35:03Z</time>
      </trkpt>
      <trkpt lat="39.009007634595037" lon="-108.62206237390637">
        <ele>1711.4000244140625</ele>
        <time>2012-05-18T17:35:06Z</time>
      </trkpt>
      <trkpt lat="39.009055914357305" lon="-108.6219368968159">
        <ele>1708.199951171875</ele>
        <time>2012-05-18T17:35:08Z</time>
      </trkpt>
      <trkpt lat="39.009078880771995" lon="-108.62181913107634">
        <ele>1705.800048828125</ele>
        <time>2012-05-18T17:35:10Z</time>
      </trkpt>
      <trkpt lat="39.009140068665147" lon="-108.62169566564262">
        <ele>1703.4000244140625</ele>
        <time>2012-05-18T17:35:13Z</time>
      </trkpt>
      <trkpt lat="39.009149791672826" lon="-108.62150464206934">
        <ele>1699.800048828125</ele>
        <time>2012-05-18T17:35:16Z</time>
      </trkpt>
      <trkpt lat="39.009252050891519" lon="-108.6213562823832">
        <ele>1698</ele>
        <time>2012-05-18T17:35:19Z</time>
      </trkpt>
      <trkpt lat="39.00928390212357" lon="-108.6213269457221">
        <ele>1698.199951171875</ele>
        <time>2012-05-18T17:35:20Z</time>
      </trkpt>
      <trkpt lat="39.009340228512883" lon="-108.62120532430708">
        <ele>1696</ele>
        <time>2012-05-18T17:35:23Z</time>
      </trkpt>
      <trkpt lat="39.009440392255783" lon="-108.62110490910709">
        <ele>1693.199951171875</ele>
        <time>2012-05-18T17:35:26Z</time>
      </trkpt>
      <trkpt lat="39.009511889889836" lon="-108.62101488746703">
        <ele>1691.199951171875</ele>
        <time>2012-05-18T17:35:28Z</time>
      </trkpt>
      <trkpt lat="39.00955019518733" lon="-108.62099812366068">
        <ele>1691</ele>
        <time>2012-05-18T17:35:29Z</time>
      </trkpt>
      <trkpt lat="39.009583471342921" lon="-108.62099275924265">
        <ele>1691</ele>
        <time>2012-05-18T17:35:30Z</time>
      </trkpt>
      <trkpt lat="39.009654298424721" lon="-108.62102695740759">
        <ele>1692.4000244140625</ele>
        <time>2012-05-18T17:35:33Z</time>
      </trkpt>
      <trkpt lat="39.009762341156602" lon="-108.62093282863498">
        <ele>1690.4000244140625</ele>
        <time>2012-05-18T17:35:36Z</time>
      </trkpt>
      <trkpt lat="39.009810537099838" lon="-108.62088957801461">
        <ele>1689</ele>
        <time>2012-05-18T17:35:37Z</time>
      </trkpt>
      <trkpt lat="39.009905336424708" lon="-108.62077809870243">
        <ele>1686.4000244140625</ele>
        <time>2012-05-18T17:35:40Z</time>
      </trkpt>
      <trkpt lat="39.009982198476791" lon="-108.620644826442">
        <ele>1683.800048828125</ele>
        <time>2012-05-18T17:35:44Z</time>
      </trkpt>
      <trkpt lat="39.009989406913519" lon="-108.62064792774618">
        <ele>1684.199951171875</ele>
        <time>2012-05-18T17:35:47Z</time>
      </trkpt>
      <trkpt lat="39.010028382763267" lon="-108.62064625136554">
        <ele>1684.800048828125</ele>
        <time>2012-05-18T17:35:52Z</time>
      </trkpt>
      <trkpt lat="39.010062329471111" lon="-108.6206223629415">
        <ele>1684.800048828125</ele>
        <time>2012-05-18T17:36:20Z</time>
      </trkpt>
      <trkpt lat="39.010071717202663" lon="-108.62059822306037">
        <ele>1684</ele>
        <time>2012-05-18T17:36:21Z</time>
      </trkpt>
      <trkpt lat="39.010144723579288" lon="-108.62045371904969">
        <ele>1679.800048828125</ele>
        <time>2012-05-18T17:36:25Z</time>
      </trkpt>
      <trkpt lat="39.010247066617012" lon="-108.62019086256623">
        <ele>1677.800048828125</ele>
        <time>2012-05-18T17:36:30Z</time>
      </trkpt>
      <trkpt lat="39.010293669998646" lon="-108.6199457757175">
        <ele>1674.800048828125</ele>
        <time>2012-05-18T17:36:35Z</time>
      </trkpt>
      <trkpt lat="39.010273888707161" lon="-108.61978744156659">
        <ele>1671.5999755859375</ele>
        <time>2012-05-18T17:36:39Z</time>
      </trkpt>
      <trkpt lat="39.010327616706491" lon="-108.61961125396192">
        <ele>1668.199951171875</ele>
        <time>2012-05-18T17:36:42Z</time>
      </trkpt>
      <trkpt lat="39.010497266426682" lon="-108.61942023038864">
        <ele>1670.5999755859375</ele>
        <time>2012-05-18T17:36:47Z</time>
      </trkpt>
      <trkpt lat="39.01053037494421" lon="-108.61941863782704">
        <ele>1670.5999755859375</ele>
        <time>2012-05-18T17:36:50Z</time>
      </trkpt>
      <trkpt lat="39.010564237833023" lon="-108.61938930116594">
        <ele>1671.4000244140625</ele>
        <time>2012-05-18T17:36:56Z</time>
      </trkpt>
      <trkpt lat="39.010614864528179" lon="-108.61934378743172">
        <ele>1672.800048828125</ele>
        <time>2012-05-18T17:37:03Z</time>
      </trkpt>
      <trkpt lat="39.010634562000632" lon="-108.61934688873589">
        <ele>1672.5999755859375</ele>
        <time>2012-05-18T17:37:11Z</time>
      </trkpt>
      <trkpt lat="39.010656019672751" lon="-108.61935468390584">
        <ele>1672.199951171875</ele>
        <time>2012-05-18T17:37:16Z</time>
      </trkpt>
      <trkpt lat="39.010732294991612" lon="-108.61937027424574">
        <ele>1671.199951171875</ele>
        <time>2012-05-18T17:37:23Z</time>
      </trkpt>
      <trkpt lat="39.010789627209306" lon="-108.61939466558397">
        <ele>1669.5999755859375</ele>
        <time>2012-05-18T17:37:29Z</time>
      </trkpt>
      <trkpt lat="39.010852575302124" lon="-108.61942802555859">
        <ele>1667.800048828125</ele>
        <time>2012-05-18T17:37:36Z</time>
      </trkpt>
      <trkpt lat="39.010906470939517" lon="-108.6194066517055">
        <ele>1667.5999755859375</ele>
        <time>2012-05-18T17:37:39Z</time>
      </trkpt>
      <trkpt lat="39.010918708518147" lon="-108.6193929053843">
        <ele>1668</ele>
        <time>2012-05-18T17:37:40Z</time>
      </trkpt>
      <trkpt lat="39.011027086526155" lon="-108.61928042024374">
        <ele>1668.5999755859375</ele>
        <time>2012-05-18T17:37:45Z</time>
      </trkpt>
      <trkpt lat="39.011100931093097" lon="-108.61919308081269">
        <ele>1669</ele>
        <time>2012-05-18T17:37:49Z</time>
      </trkpt>
      <trkpt lat="39.011181565001607" lon="-108.61908419989049">
        <ele>1670.800048828125</ele>
        <time>2012-05-18T17:37:54Z</time>
      </trkpt>
      <trkpt lat="39.011303270235658" lon="-108.61898445524275">
        <ele>1669.800048828125</ele>
        <time>2012-05-18T17:37:59Z</time>
      </trkpt>
      <trkpt lat="39.011305617168546" lon="-108.61897942610085">
        <ele>1669.800048828125</ele>
        <time>2012-05-18T17:38:02Z</time>
      </trkpt>
      <trkpt lat="39.011356495320797" lon="-108.61894908361137">
        <ele>1668.5999755859375</ele>
        <time>2012-05-18T17:38:08Z</time>
      </trkpt>
      <trkpt lat="39.011417431756854" lon="-108.61887507140636">
        <ele>1668</ele>
        <time>2012-05-18T17:38:11Z</time>
      </trkpt>
      <trkpt lat="39.011421455070376" lon="-108.61879787407815">
        <ele>1670</ele>
        <time>2012-05-18T17:38:15Z</time>
      </trkpt>
      <trkpt lat="39.011429417878389" lon="-108.61874599009752">
        <ele>1671.199951171875</ele>
        <time>2012-05-18T17:38:19Z</time>
      </trkpt>
      <trkpt lat="39.011442409828305" lon="-108.61872009001672">
        <ele>1671.199951171875</ele>
        <time>2012-05-18T17:38:21Z</time>
      </trkpt>
      <trkpt lat="39.011454144492745" lon="-108.61870533786714">
        <ele>1671</ele>
        <time>2012-05-18T17:38:23Z</time>
      </trkpt>
      <trkpt lat="39.011492617428303" lon="-108.61861472949386">
        <ele>1671.199951171875</ele>
        <time>2012-05-18T17:38:26Z</time>
      </trkpt>
      <trkpt lat="39.011569479480386" lon="-108.61850308254361">
        <ele>1669.199951171875</ele>
        <time>2012-05-18T17:38:30Z</time>
      </trkpt>
      <trkpt lat="39.011575095355511" lon="-108.61848522908986">
        <ele>1669.199951171875</ele>
        <time>2012-05-18T17:38:34Z</time>
      </trkpt>
      <trkpt lat="39.011592278257012" lon="-108.61842764541507">
        <ele>1670.4000244140625</ele>
        <time>2012-05-18T17:38:40Z</time>
      </trkpt>
      <trkpt lat="39.011613819748163" lon="-108.61834893934429">
        <ele>1673</ele>
        <time>2012-05-18T17:38:48Z</time>
      </trkpt>
      <trkpt lat="39.011633181944489" lon="-108.61826813779771">
        <ele>1676.4000244140625</ele>
        <time>2012-05-18T17:38:57Z</time>
      </trkpt>
      <trkpt lat="39.011675342917442" lon="-108.61818926408887">
        <ele>1678.800048828125</ele>
        <time>2012-05-18T17:39:06Z</time>
      </trkpt>
      <trkpt lat="39.011693447828293" lon="-108.61812447197735">
        <ele>1678.199951171875</ele>
        <time>2012-05-18T17:39:13Z</time>
      </trkpt>
      <trkpt lat="39.011714989319444" lon="-108.61808608286083">
        <ele>1677.800048828125</ele>
        <time>2012-05-18T17:39:20Z</time>
      </trkpt>
      <trkpt lat="39.011708786711097" lon="-108.61808842979372">
        <ele>1678</ele>
        <time>2012-05-18T17:39:29Z</time>
      </trkpt>
      <trkpt lat="39.011775087565184" lon="-108.61802816390991">
        <ele>1676.5999755859375</ele>
        <time>2012-05-18T17:40:22Z</time>
      </trkpt>
      <trkpt lat="39.011934427544475" lon="-108.61793763935566">
        <ele>1675.199951171875</ele>
        <time>2012-05-18T17:40:26Z</time>
      </trkpt>
      <trkpt lat="39.01228504255414" lon="-108.61787016503513">
        <ele>1668.5999755859375</ele>
        <time>2012-05-18T17:40:32Z</time>
      </trkpt>
      <trkpt lat="39.012590982019901" lon="-108.61786236986518">
        <ele>1670.199951171875</ele>
        <time>2012-05-18T17:40:36Z</time>
      </trkpt>
      <trkpt lat="39.012783849611878" lon="-108.61798834986985">
        <ele>1670.4000244140625</ele>
        <time>2012-05-18T17:40:39Z</time>
      </trkpt>
      <trkpt lat="39.01282743550837" lon="-108.61802875064313">
        <ele>1670</ele>
        <time>2012-05-18T17:40:40Z</time>
      </trkpt>
      <trkpt lat="39.012920223176479" lon="-108.61807753331959">
        <ele>1670.199951171875</ele>
        <time>2012-05-18T17:40:42Z</time>
      </trkpt>
      <trkpt lat="39.012968335300684" lon="-108.61806940287352">
        <ele>1670.5999755859375</ele>
        <time>2012-05-18T17:40:43Z</time>
      </trkpt>
      <trkpt lat="39.013117952272296" lon="-108.61803830601275">
        <ele>1671.800048828125</ele>
        <time>2012-05-18T17:40:47Z</time>
      </trkpt>
      <trkpt lat="39.013162292540073" lon="-108.6180408205837">
        <ele>1672</ele>
        <time>2012-05-18T17:40:48Z</time>
      </trkpt>
      <trkpt lat="39.013267317786813" lon="-108.61805465072393">
        <ele>1672</ele>
        <time>2012-05-18T17:40:50Z</time>
      </trkpt>
      <trkpt lat="39.013420538976789" lon="-108.61797418445349">
        <ele>1671</ele>
        <time>2012-05-18T17:40:54Z</time>
      </trkpt>
      <trkpt lat="39.013466890901327" lon="-108.61788558773696">
        <ele>1669.5999755859375</ele>
        <time>2012-05-18T17:40:56Z</time>
      </trkpt>
      <trkpt lat="39.013523552566767" lon="-108.61780973151326">
        <ele>1668</ele>
        <time>2012-05-18T17:40:58Z</time>
      </trkpt>
      <trkpt lat="39.013559008017182" lon="-108.61778081394732">
        <ele>1667.199951171875</ele>
        <time>2012-05-18T17:40:59Z</time>
      </trkpt>
      <trkpt lat="39.013683227822185" lon="-108.61776899546385">
        <ele>1665.5999755859375</ele>
        <time>2012-05-18T17:41:02Z</time>
      </trkpt>
      <trkpt lat="39.013702925294638" lon="-108.61773722805083">
        <ele>1664.800048828125</ele>
        <time>2012-05-18T17:41:03Z</time>
      </trkpt>
      <trkpt lat="39.013745589181781" lon="-108.61770822666585">
        <ele>1663.800048828125</ele>
        <time>2012-05-18T17:41:05Z</time>
      </trkpt>
      <trkpt lat="39.013887830078602" lon="-108.61760001629591">
        <ele>1660.199951171875</ele>
        <time>2012-05-18T17:41:09Z</time>
      </trkpt>
      <trkpt lat="39.013998387381434" lon="-108.61748275347054">
        <ele>1657.4000244140625</ele>
        <time>2012-05-18T17:41:13Z</time>
      </trkpt>
      <trkpt lat="39.014031160622835" lon="-108.61731796525419">
        <ele>1655.199951171875</ele>
        <time>2012-05-18T17:41:16Z</time>
      </trkpt>
      <trkpt lat="39.014067789539695" lon="-108.61711747013032">
        <ele>1653</ele>
        <time>2012-05-18T17:41:19Z</time>
      </trkpt>
      <trkpt lat="39.014015402644873" lon="-108.61680415458977">
        <ele>1650.199951171875</ele>
        <time>2012-05-18T17:41:23Z</time>
      </trkpt>
      <trkpt lat="39.013967039063573" lon="-108.61664691008627">
        <ele>1648.5999755859375</ele>
        <time>2012-05-18T17:41:26Z</time>
      </trkpt>
      <trkpt lat="39.013986904174089" lon="-108.61647684127092">
        <ele>1646.199951171875</ele>
        <time>2012-05-18T17:41:29Z</time>
      </trkpt>
      <trkpt lat="39.014047672972083" lon="-108.61625815741718">
        <ele>1642.199951171875</ele>
        <time>2012-05-18T17:41:33Z</time>
      </trkpt>
      <trkpt lat="39.014123529195786" lon="-108.61615749076009">
        <ele>1640.800048828125</ele>
        <time>2012-05-18T17:41:35Z</time>
      </trkpt>
      <trkpt lat="39.014137946069241" lon="-108.61611281521618">
        <ele>1640</ele>
        <time>2012-05-18T17:41:36Z</time>
      </trkpt>
      <trkpt lat="39.014135766774416" lon="-108.61607534810901">
        <ele>1639.5999755859375</ele>
        <time>2012-05-18T17:41:37Z</time>
      </trkpt>
      <trkpt lat="39.01411447674036" lon="-108.61594702117145">
        <ele>1638</ele>
        <time>2012-05-18T17:41:40Z</time>
      </trkpt>
      <trkpt lat="39.01408857665956" lon="-108.61573152244091">
        <ele>1634.4000244140625</ele>
        <time>2012-05-18T17:41:44Z</time>
      </trkpt>
      <trkpt lat="39.014029148966074" lon="-108.61558123491704">
        <ele>1632.199951171875</ele>
        <time>2012-05-18T17:41:47Z</time>
      </trkpt>
      <trkpt lat="39.014026550576091" lon="-108.61552725546062">
        <ele>1631.4000244140625</ele>
        <time>2012-05-18T17:41:48Z</time>
      </trkpt>
      <trkpt lat="39.014021772891283" lon="-108.61541602760553">
        <ele>1629.5999755859375</ele>
        <time>2012-05-18T17:41:50Z</time>
      </trkpt>
      <trkpt lat="39.014004003256559" lon="-108.61525610089302">
        <ele>1625.199951171875</ele>
        <time>2012-05-18T17:41:53Z</time>
      </trkpt>
      <trkpt lat="39.01404021307826" lon="-108.61517529934645">
        <ele>1622.800048828125</ele>
        <time>2012-05-18T17:41:56Z</time>
      </trkpt>
      <trkpt lat="39.014104753732681" lon="-108.61514168791473">
        <ele>1622.199951171875</ele>
        <time>2012-05-18T17:41:59Z</time>
      </trkpt>
      <trkpt lat="39.014160241931677" lon="-108.61499777063727">
        <ele>1624.5999755859375</ele>
        <time>2012-05-18T17:42:03Z</time>
      </trkpt>
      <trkpt lat="39.01423224247992" lon="-108.61493867821991">
        <ele>1623.199951171875</ele>
        <time>2012-05-18T17:42:06Z</time>
      </trkpt>
      <trkpt lat="39.014247916638851" lon="-108.61493021249771">
        <ele>1622.5999755859375</ele>
        <time>2012-05-18T17:42:10Z</time>
      </trkpt>
      <trkpt lat="39.014221765100956" lon="-108.61491428688169">
        <ele>1623.5999755859375</ele>
        <time>2012-05-18T17:42:17Z</time>
      </trkpt>
      <trkpt lat="39.014215981587768" lon="-108.61487740650773">
        <ele>1624</ele>
        <time>2012-05-18T17:42:23Z</time>
      </trkpt>
      <trkpt lat="39.014234421774745" lon="-108.61487137153745">
        <ele>1623</ele>
        <time>2012-05-18T17:42:30Z</time>
      </trkpt>
      <trkpt lat="39.014292508363724" lon="-108.61482627689838">
        <ele>1621</ele>
        <time>2012-05-18T17:42:34Z</time>
      </trkpt>
      <trkpt lat="39.014359395951033" lon="-108.61481244675815">
        <ele>1620.800048828125</ele>
        <time>2012-05-18T17:42:36Z</time>
      </trkpt>
      <trkpt lat="39.014404993504286" lon="-108.61479953862727">
        <ele>1620.800048828125</ele>
        <time>2012-05-18T17:42:38Z</time>
      </trkpt>
      <trkpt lat="39.014561735093594" lon="-108.61475821584463">
        <ele>1619.800048828125</ele>
        <time>2012-05-18T17:42:43Z</time>
      </trkpt>
      <trkpt lat="39.014653684571385" lon="-108.61470733769238">
        <ele>1620.5999755859375</ele>
        <time>2012-05-18T17:42:48Z</time>
      </trkpt>
      <trkpt lat="39.014649074524641" lon="-108.61470147036016">
        <ele>1620.4000244140625</ele>
        <time>2012-05-18T17:42:52Z</time>
      </trkpt>
      <trkpt lat="39.014649661257863" lon="-108.61466584727168">
        <ele>1619.800048828125</ele>
        <time>2012-05-18T17:43:01Z</time>
      </trkpt>
      <trkpt lat="39.014680758118629" lon="-108.61464204266667">
        <ele>1620.4000244140625</ele>
        <time>2012-05-18T17:43:03Z</time>
      </trkpt>
      <trkpt lat="39.014753345400095" lon="-108.61452243290842">
        <ele>1620.800048828125</ele>
        <time>2012-05-18T17:43:09Z</time>
      </trkpt>
      <trkpt lat="39.014789471402764" lon="-108.61446023918688">
        <ele>1620.4000244140625</ele>
        <time>2012-05-18T17:43:11Z</time>
      </trkpt>
      <trkpt lat="39.014823082834482" lon="-108.61439670436084">
        <ele>1619.5999755859375</ele>
        <time>2012-05-18T17:43:13Z</time>
      </trkpt>
      <trkpt lat="39.014936154708266" lon="-108.6142351012677">
        <ele>1618.4000244140625</ele>
        <time>2012-05-18T17:43:18Z</time>
      </trkpt>
      <trkpt lat="39.015106810256839" lon="-108.61396629363298">
        <ele>1617.800048828125</ele>
        <time>2012-05-18T17:43:25Z</time>
      </trkpt>
      <trkpt lat="39.015229102224112" lon="-108.61382472328842">
        <ele>1615.800048828125</ele>
        <time>2012-05-18T17:43:29Z</time>
      </trkpt>
      <trkpt lat="39.015355249866843" lon="-108.61381759867072">
        <ele>1615.199951171875</ele>
        <time>2012-05-18T17:43:33Z</time>
      </trkpt>
      <trkpt lat="39.015481565147638" lon="-108.61383394338191">
        <ele>1618.800048828125</ele>
        <time>2012-05-18T17:43:37Z</time>
      </trkpt>
      <trkpt lat="39.015538142994046" lon="-108.61384006217122">
        <ele>1622</ele>
        <time>2012-05-18T17:43:39Z</time>
      </trkpt>
      <trkpt lat="39.015592290088534" lon="-108.61387124285102">
        <ele>1624.4000244140625</ele>
        <time>2012-05-18T17:43:41Z</time>
      </trkpt>
      <trkpt lat="39.015627661719918" lon="-108.61400895752013">
        <ele>1621.5999755859375</ele>
        <time>2012-05-18T17:43:45Z</time>
      </trkpt>
      <trkpt lat="39.015617435798049" lon="-108.61421154811978">
        <ele>1617.800048828125</ele>
        <time>2012-05-18T17:43:51Z</time>
      </trkpt>
      <trkpt lat="39.015629924833775" lon="-108.61441866494715">
        <ele>1616.4000244140625</ele>
        <time>2012-05-18T17:43:55Z</time>
      </trkpt>
      <trkpt lat="39.01563948020339" lon="-108.6146304756403">
        <ele>1616</ele>
        <time>2012-05-18T17:43:59Z</time>
      </trkpt>
      <trkpt lat="39.015719778835773" lon="-108.61474731937051">
        <ele>1614.800048828125</ele>
        <time>2012-05-18T17:44:02Z</time>
      </trkpt>
      <trkpt lat="39.015777697786689" lon="-108.61482141539454">
        <ele>1613.800048828125</ele>
        <time>2012-05-18T17:44:04Z</time>
      </trkpt>
      <trkpt lat="39.015888590365648" lon="-108.61493448726833">
        <ele>1612.4000244140625</ele>
        <time>2012-05-18T17:44:08Z</time>
      </trkpt>
      <trkpt lat="39.016046170145273" lon="-108.61502408981323">
        <ele>1611.4000244140625</ele>
        <time>2012-05-18T17:44:14Z</time>
      </trkpt>
      <trkpt lat="39.016215233132243" lon="-108.61504353582859">
        <ele>1611.800048828125</ele>
        <time>2012-05-18T17:44:19Z</time>
      </trkpt>
      <trkpt lat="39.01635529473424" lon="-108.61495041288435">
        <ele>1615.800048828125</ele>
        <time>2012-05-18T17:44:24Z</time>
      </trkpt>
      <trkpt lat="39.016367113217711" lon="-108.61487313173711">
        <ele>1615.199951171875</ele>
        <time>2012-05-18T17:44:26Z</time>
      </trkpt>
      <trkpt lat="39.016371974721551" lon="-108.61478327773511">
        <ele>1614.800048828125</ele>
        <time>2012-05-18T17:44:28Z</time>
      </trkpt>
      <trkpt lat="39.016414973884821" lon="-108.61463106237352">
        <ele>1615.199951171875</ele>
        <time>2012-05-18T17:44:32Z</time>
      </trkpt>
      <trkpt lat="39.016420086845756" lon="-108.61459921114147">
        <ele>1615.199951171875</ele>
        <time>2012-05-18T17:44:33Z</time>
      </trkpt>
      <trkpt lat="39.016437521204352" lon="-108.61444925889373">
        <ele>1614</ele>
        <time>2012-05-18T17:44:38Z</time>
      </trkpt>
      <trkpt lat="39.016474150121212" lon="-108.61426343210042">
        <ele>1612.4000244140625</ele>
        <time>2012-05-18T17:44:43Z</time>
      </trkpt>
      <trkpt lat="39.016520082950592" lon="-108.61405564472079">
        <ele>1609.4000244140625</ele>
        <time>2012-05-18T17:44:48Z</time>
      </trkpt>
      <trkpt lat="39.016586383804679" lon="-108.61388700082898">
        <ele>1610.4000244140625</ele>
        <time>2012-05-18T17:44:52Z</time>
      </trkpt>
      <trkpt lat="39.016713621094823" lon="-108.61376613378525">
        <ele>1609</ele>
        <time>2012-05-18T17:44:57Z</time>
      </trkpt>
      <trkpt lat="39.016889473423362" lon="-108.61372313462198">
        <ele>1606.4000244140625</ele>
        <time>2012-05-18T17:45:02Z</time>
      </trkpt>
      <trkpt lat="39.01702618226409" lon="-108.61367988400161">
        <ele>1605.800048828125</ele>
        <time>2012-05-18T17:45:06Z</time>
      </trkpt>
      <trkpt lat="39.017114695161581" lon="-108.61360251903534">
        <ele>1607.4000244140625</ele>
        <time>2012-05-18T17:45:10Z</time>
      </trkpt>
      <trkpt lat="39.01715668849647" lon="-108.61357737332582">
        <ele>1608.4000244140625</ele>
        <time>2012-05-18T17:45:12Z</time>
      </trkpt>
      <trkpt lat="39.017179068177938" lon="-108.61357787624002">
        <ele>1608.5999755859375</ele>
        <time>2012-05-18T17:45:14Z</time>
      </trkpt>
      <trkpt lat="39.017199268564582" lon="-108.61356714740396">
        <ele>1609.199951171875</ele>
        <time>2012-05-18T17:45:21Z</time>
      </trkpt>
      <trkpt lat="39.017307227477431" lon="-108.61357972025871">
        <ele>1609.4000244140625</ele>
        <time>2012-05-18T17:45:27Z</time>
      </trkpt>
      <trkpt lat="39.017319548875093" lon="-108.61360092647374">
        <ele>1608.4000244140625</ele>
        <time>2012-05-18T17:45:28Z</time>
      </trkpt>
      <trkpt lat="39.017339833080769" lon="-108.61366630531847">
        <ele>1604.5999755859375</ele>
        <time>2012-05-18T17:45:31Z</time>
      </trkpt>
      <trkpt lat="39.017339749261737" lon="-108.61369555816054">
        <ele>1602.800048828125</ele>
        <time>2012-05-18T17:45:34Z</time>
      </trkpt>
      <trkpt lat="39.017337653785944" lon="-108.61371969804168">
        <ele>1601.4000244140625</ele>
        <time>2012-05-18T17:45:36Z</time>
      </trkpt>
      <trkpt lat="39.017348885536194" lon="-108.61378046683967">
        <ele>1599.800048828125</ele>
        <time>2012-05-18T17:45:43Z</time>
      </trkpt>
      <trkpt lat="39.017348466441035" lon="-108.61378088593483">
        <ele>1599.800048828125</ele>
        <time>2012-05-18T17:45:44Z</time>
      </trkpt>
      <trkpt lat="39.017324997112155" lon="-108.61391960643232">
        <ele>1601.5999755859375</ele>
        <time>2012-05-18T17:46:03Z</time>
      </trkpt>
      <trkpt lat="39.017348801717162" lon="-108.61398783512414">
        <ele>1601.5999755859375</ele>
        <time>2012-05-18T17:46:05Z</time>
      </trkpt>
      <trkpt lat="39.017377886921167" lon="-108.61400560475886">
        <ele>1600.800048828125</ele>
        <time>2012-05-18T17:46:07Z</time>
      </trkpt>
      <trkpt lat="39.017400098964572" lon="-108.61399722285569">
        <ele>1600</ele>
        <time>2012-05-18T17:46:09Z</time>
      </trkpt>
      <trkpt lat="39.017426669597626" lon="-108.61399135552347">
        <ele>1599</ele>
        <time>2012-05-18T17:46:12Z</time>
      </trkpt>
      <trkpt lat="39.017434800043702" lon="-108.61398490145802">
        <ele>1598.800048828125</ele>
        <time>2012-05-18T17:46:19Z</time>
      </trkpt>
      <trkpt lat="39.017444774508476" lon="-108.61394005827606">
        <ele>1598.4000244140625</ele>
        <time>2012-05-18T17:46:30Z</time>
      </trkpt>
      <trkpt lat="39.017449552193284" lon="-108.61390762031078">
        <ele>1598.4000244140625</ele>
        <time>2012-05-18T17:46:36Z</time>
      </trkpt>
      <trkpt lat="39.017447121441364" lon="-108.61389538273215">
        <ele>1598.5999755859375</ele>
        <time>2012-05-18T17:46:47Z</time>
      </trkpt>
      <trkpt lat="39.017485929653049" lon="-108.61389571800828">
        <ele>1597.5999755859375</ele>
        <time>2012-05-18T17:47:09Z</time>
      </trkpt>
      <trkpt lat="39.017509315162897" lon="-108.6139237973839">
        <ele>1596.800048828125</ele>
        <time>2012-05-18T17:47:15Z</time>
      </trkpt>
      <trkpt lat="39.017608473077416" lon="-108.61391709186137">
        <ele>1594.4000244140625</ele>
        <time>2012-05-18T17:47:20Z</time>
      </trkpt>
      <trkpt lat="39.017709391191602" lon="-108.61382036469877">
        <ele>1596.800048828125</ele>
        <time>2012-05-18T17:47:23Z</time>
      </trkpt>
      <trkpt lat="39.017750462517142" lon="-108.61386571079493">
        <ele>1595.800048828125</ele>
        <time>2012-05-18T17:47:26Z</time>
      </trkpt>
      <trkpt lat="39.017878286540508" lon="-108.61391281709075">
        <ele>1595.199951171875</ele>
        <time>2012-05-18T17:47:31Z</time>
      </trkpt>
      <trkpt lat="39.017907371744514" lon="-108.61391675658524">
        <ele>1595.199951171875</ele>
        <time>2012-05-18T17:47:32Z</time>
      </trkpt>
      <trkpt lat="39.018078614026308" lon="-108.61394667997956">
        <ele>1593.199951171875</ele>
        <time>2012-05-18T17:47:37Z</time>
      </trkpt>
      <trkpt lat="39.018183220177889" lon="-108.61399043351412">
        <ele>1591</ele>
        <time>2012-05-18T17:47:41Z</time>
      </trkpt>
      <trkpt lat="39.018336022272706" lon="-108.61395288258791">
        <ele>1593</ele>
        <time>2012-05-18T17:47:48Z</time>
      </trkpt>
      <trkpt lat="39.018397629261017" lon="-108.61392941325903">
        <ele>1593.199951171875</ele>
        <time>2012-05-18T17:47:51Z</time>
      </trkpt>
      <trkpt lat="39.018380865454674" lon="-108.61387602053583">
        <ele>1593.5999755859375</ele>
        <time>2012-05-18T17:47:53Z</time>
      </trkpt>
      <trkpt lat="39.018379189074039" lon="-108.61381726339459">
        <ele>1594</ele>
        <time>2012-05-18T17:47:56Z</time>
      </trkpt>
      <trkpt lat="39.018407687544823" lon="-108.61380427144468">
        <ele>1593.4000244140625</ele>
        <time>2012-05-18T17:47:58Z</time>
      </trkpt>
      <trkpt lat="39.01848278939724" lon="-108.61380636692047">
        <ele>1591.800048828125</ele>
        <time>2012-05-18T17:48:01Z</time>
      </trkpt>
      <trkpt lat="39.01852386072278" lon="-108.61379337497056">
        <ele>1591.800048828125</ele>
        <time>2012-05-18T17:48:03Z</time>
      </trkpt>
      <trkpt lat="39.018706250935793" lon="-108.61375045962632">
        <ele>1590.5999755859375</ele>
        <time>2012-05-18T17:48:10Z</time>
      </trkpt>
      <trkpt lat="39.01893574744463" lon="-108.61372145824134">
        <ele>1593.4000244140625</ele>
        <time>2012-05-18T17:48:17Z</time>
      </trkpt>
      <trkpt lat="39.019125681370497" lon="-108.61374132335186">
        <ele>1593.4000244140625</ele>
        <time>2012-05-18T17:48:24Z</time>
      </trkpt>
      <trkpt lat="39.019209835678339" lon="-108.61374584957957">
        <ele>1593.800048828125</ele>
        <time>2012-05-18T17:48:28Z</time>
      </trkpt>
      <trkpt lat="39.019269431009889" lon="-108.61378440633416">
        <ele>1593.5999755859375</ele>
        <time>2012-05-18T17:48:32Z</time>
      </trkpt>
      <trkpt lat="39.019263563677669" lon="-108.61378180794418">
        <ele>1593.5999755859375</ele>
        <time>2012-05-18T17:48:42Z</time>
      </trkpt>
      <trkpt lat="39.019256606698036" lon="-108.61376814544201">
        <ele>1593.800048828125</ele>
        <time>2012-05-18T17:49:03Z</time>
      </trkpt>
      <trkpt lat="39.019241770729423" lon="-108.61376303248107">
        <ele>1593.5999755859375</ele>
        <time>2012-05-18T17:50:58Z</time>
      </trkpt>
      <trkpt lat="39.019220313057303" lon="-108.61376160755754">
        <ele>1593.5999755859375</ele>
        <time>2012-05-18T17:55:19Z</time>
      </trkpt>
      <trkpt lat="39.019213272258639" lon="-108.61376294866204">
        <ele>1593.4000244140625</ele>
        <time>2012-05-18T17:55:35Z</time>
      </trkpt>
      <trkpt lat="39.019236825406551" lon="-108.61373067833483">
        <ele>1594.5999755859375</ele>
        <time>2012-05-18T17:57:30Z</time>
      </trkpt>
      <trkpt lat="39.019233975559473" lon="-108.61382162198424">
        <ele>1593</ele>
        <time>2012-05-18T17:57:56Z</time>
      </trkpt>
      <trkpt lat="39.019230790436268" lon="-108.6138326022774">
        <ele>1592.800048828125</ele>
        <time>2012-05-18T17:58:03Z</time>
      </trkpt>
      <trkpt lat="39.019224252551794" lon="-108.61385439522564">
        <ele>1592.4000244140625</ele>
        <time>2012-05-18T17:58:13Z</time>
      </trkpt>
      <trkpt lat="39.019232718273997" lon="-108.61381114460528">
        <ele>1593</ele>
        <time>2012-05-18T17:58:23Z</time>
      </trkpt>
      <trkpt lat="39.019230538979173" lon="-108.61378985457122">
        <ele>1593.199951171875</ele>
        <time>2012-05-18T17:58:29Z</time>
      </trkpt>
      <trkpt lat="39.019236322492361" lon="-108.61376898363233">
        <ele>1593.5999755859375</ele>
        <time>2012-05-18T17:58:35Z</time>
      </trkpt>
      <trkpt lat="39.019266413524747" lon="-108.61375967971981">
        <ele>1593.800048828125</ele>
        <time>2012-05-18T17:58:40Z</time>
      </trkpt>
      <trkpt lat="39.019287284463644" lon="-108.61377619206905">
        <ele>1593.800048828125</ele>
        <time>2012-05-18T17:58:46Z</time>
      </trkpt>
      <trkpt lat="39.019337994977832" lon="-108.61379513517022">
        <ele>1595.4000244140625</ele>
        <time>2012-05-18T17:59:06Z</time>
      </trkpt>
      <trkpt lat="39.019370852038264" lon="-108.61378482542932">
        <ele>1597.199951171875</ele>
        <time>2012-05-18T17:59:14Z</time>
      </trkpt>
      <trkpt lat="39.019307065755129" lon="-108.6137860827148">
        <ele>1593.800048828125</ele>
        <time>2012-05-18T17:59:28Z</time>
      </trkpt>
      <trkpt lat="39.01926314458251" lon="-108.61378692090511">
        <ele>1593.5999755859375</ele>
        <time>2012-05-18T17:59:37Z</time>
      </trkpt>
      <trkpt lat="39.019236238673329" lon="-108.61378021538258">
        <ele>1593.4000244140625</ele>
        <time>2012-05-18T18:00:17Z</time>
      </trkpt>
      <trkpt lat="39.019250320270658" lon="-108.61376655288041">
        <ele>1593.5999755859375</ele>
        <time>2012-05-18T18:00:22Z</time>
      </trkpt>
      <trkpt lat="39.019283512607217" lon="-108.61378549598157">
        <ele>1593.5999755859375</ele>
        <time>2012-05-18T18:00:30Z</time>
      </trkpt>
      <trkpt lat="39.019349562004209" lon="-108.61376889981329">
        <ele>1596.4000244140625</ele>
        <time>2012-05-18T18:00:37Z</time>
      </trkpt>
      <trkpt lat="39.019435895606875" lon="-108.61378373578191">
        <ele>1600.800048828125</ele>
        <time>2012-05-18T18:00:47Z</time>
      </trkpt>
      <trkpt lat="39.019436817616224" lon="-108.61377811990678">
        <ele>1600.800048828125</ele>
        <time>2012-05-18T18:00:58Z</time>
      </trkpt>
      <trkpt lat="39.019334809854627" lon="-108.61374928615987">
        <ele>1595.800048828125</ele>
        <time>2012-05-18T18:02:50Z</time>
      </trkpt>
      <trkpt lat="39.019275549799204" lon="-108.61377141438425">
        <ele>1593.800048828125</ele>
        <time>2012-05-18T18:02:59Z</time>
      </trkpt>
      <trkpt lat="39.01929734274745" lon="-108.61376244574785">
        <ele>1594</ele>
        <time>2012-05-18T18:03:04Z</time>
      </trkpt>
      <trkpt lat="39.019347215071321" lon="-108.61375129781663">
        <ele>1596.4000244140625</ele>
        <time>2012-05-18T18:03:12Z</time>
      </trkpt>
      <trkpt lat="39.019373869523406" lon="-108.61375942826271">
        <ele>1597.5999755859375</ele>
        <time>2012-05-18T18:03:20Z</time>
      </trkpt>
      <trkpt lat="39.019387029111385" lon="-108.61377401277423">
        <ele>1598.199951171875</ele>
        <time>2012-05-18T18:03:30Z</time>
      </trkpt>
      <trkpt lat="39.019439164549112" lon="-108.6138291656971">
        <ele>1600.800048828125</ele>
        <time>2012-05-18T18:03:43Z</time>
      </trkpt>
      <trkpt lat="39.019463807344437" lon="-108.61394508741796">
        <ele>1602</ele>
        <time>2012-05-18T18:03:51Z</time>
      </trkpt>
      <trkpt lat="39.019471267238259" lon="-108.6140361148864">
        <ele>1602.199951171875</ele>
        <time>2012-05-18T18:03:59Z</time>
      </trkpt>
      <trkpt lat="39.019475793465972" lon="-108.61406293697655">
        <ele>1602.4000244140625</ele>
        <time>2012-05-18T18:04:02Z</time>
      </trkpt>
      <trkpt lat="39.019474619999528" lon="-108.61411389894783">
        <ele>1602</ele>
        <time>2012-05-18T18:04:08Z</time>
      </trkpt>
      <trkpt lat="39.019470177590847" lon="-108.61414650455117">
        <ele>1601.4000244140625</ele>
        <time>2012-05-18T18:04:14Z</time>
      </trkpt>
      <trkpt lat="39.019476883113384" lon="-108.61418346874416">
        <ele>1601.5999755859375</ele>
        <time>2012-05-18T18:04:19Z</time>
      </trkpt>
      <trkpt lat="39.019477050751448" lon="-108.61425538547337">
        <ele>1601.199951171875</ele>
        <time>2012-05-18T18:04:27Z</time>
      </trkpt>
      <trkpt lat="39.019461376592517" lon="-108.61432763747871">
        <ele>1600</ele>
        <time>2012-05-18T18:04:36Z</time>
      </trkpt>
      <trkpt lat="39.019452827051282" lon="-108.61436946317554">
        <ele>1599.5999755859375</ele>
        <time>2012-05-18T18:04:42Z</time>
      </trkpt>
      <trkpt lat="39.019451485946774" lon="-108.61440600827336">
        <ele>1599.4000244140625</ele>
        <time>2012-05-18T18:04:48Z</time>
      </trkpt>
      <trkpt lat="39.019472021609545" lon="-108.61443911679089">
        <ele>1599.800048828125</ele>
        <time>2012-05-18T18:04:54Z</time>
      </trkpt>
      <trkpt lat="39.01948694139719" lon="-108.61446434631944">
        <ele>1600</ele>
        <time>2012-05-18T18:04:58Z</time>
      </trkpt>
      <trkpt lat="39.01952700689435" lon="-108.614531904459">
        <ele>1599.800048828125</ele>
        <time>2012-05-18T18:05:07Z</time>
      </trkpt>
      <trkpt lat="39.019555673003197" lon="-108.61457389779389">
        <ele>1599.199951171875</ele>
        <time>2012-05-18T18:05:14Z</time>
      </trkpt>
      <trkpt lat="39.019586350768805" lon="-108.61464103683829">
        <ele>1600</ele>
        <time>2012-05-18T18:05:22Z</time>
      </trkpt>
      <trkpt lat="39.019644604995847" lon="-108.61461270600557">
        <ele>1600.199951171875</ele>
        <time>2012-05-18T18:05:31Z</time>
      </trkpt>
      <trkpt lat="39.019663045182824" lon="-108.61459032632411">
        <ele>1600.199951171875</ele>
        <time>2012-05-18T18:05:37Z</time>
      </trkpt>
      <trkpt lat="39.019662877544761" lon="-108.61458580009639">
        <ele>1600.199951171875</ele>
        <time>2012-05-18T18:05:52Z</time>
      </trkpt>
      <trkpt lat="39.019710570573807" lon="-108.61457481980324">
        <ele>1601</ele>
        <time>2012-05-18T18:06:03Z</time>
      </trkpt>
      <trkpt lat="39.019815092906356" lon="-108.61458336934447">
        <ele>1602.199951171875</ele>
        <time>2012-05-18T18:06:07Z</time>
      </trkpt>
      <trkpt lat="39.019916681572795" lon="-108.6145472433418">
        <ele>1607.800048828125</ele>
        <time>2012-05-18T18:06:12Z</time>
      </trkpt>
      <trkpt lat="39.019930763170123" lon="-108.61452360637486">
        <ele>1609.4000244140625</ele>
        <time>2012-05-18T18:06:13Z</time>
      </trkpt>
      <trkpt lat="39.01992766186595" lon="-108.6144941020757">
        <ele>1610.199951171875</ele>
        <time>2012-05-18T18:06:16Z</time>
      </trkpt>
      <trkpt lat="39.019903354346752" lon="-108.61443668603897">
        <ele>1611.199951171875</ele>
        <time>2012-05-18T18:06:21Z</time>
      </trkpt>
      <trkpt lat="39.01985976845026" lon="-108.6143577285111">
        <ele>1613</ele>
        <time>2012-05-18T18:06:30Z</time>
      </trkpt>
      <trkpt lat="39.019797155633569" lon="-108.61434398218989">
        <ele>1611.800048828125</ele>
        <time>2012-05-18T18:06:36Z</time>
      </trkpt>
      <trkpt lat="39.019743259996176" lon="-108.61435269936919">
        <ele>1609.800048828125</ele>
        <time>2012-05-18T18:06:43Z</time>
      </trkpt>
      <trkpt lat="39.019675953313708" lon="-108.61431489698589">
        <ele>1609.199951171875</ele>
        <time>2012-05-18T18:06:49Z</time>
      </trkpt>
      <trkpt lat="39.019639324396849" lon="-108.61423945985734">
        <ele>1609.800048828125</ele>
        <time>2012-05-18T18:06:57Z</time>
      </trkpt>
      <trkpt lat="39.019628092646599" lon="-108.61411767080426">
        <ele>1611.800048828125</ele>
        <time>2012-05-18T18:07:03Z</time>
      </trkpt>
      <trkpt lat="39.019634798169136" lon="-108.61394206993282">
        <ele>1613.4000244140625</ele>
        <time>2012-05-18T18:07:07Z</time>
      </trkpt>
      <trkpt lat="39.019636726006866" lon="-108.61389169469476">
        <ele>1613.199951171875</ele>
        <time>2012-05-18T18:07:11Z</time>
      </trkpt>
      <trkpt lat="39.019645610824227" lon="-108.61387342214584">
        <ele>1613.800048828125</ele>
        <time>2012-05-18T18:07:13Z</time>
      </trkpt>
      <trkpt lat="39.019669247791171" lon="-108.61381240189075">
        <ele>1615</ele>
        <time>2012-05-18T18:07:15Z</time>
      </trkpt>
      <trkpt lat="39.019689029082656" lon="-108.61365515738726">
        <ele>1615</ele>
        <time>2012-05-18T18:07:18Z</time>
      </trkpt>
      <trkpt lat="39.019698919728398" lon="-108.61359212547541">
        <ele>1614.800048828125</ele>
        <time>2012-05-18T18:07:19Z</time>
      </trkpt>
      <trkpt lat="39.019693387672305" lon="-108.61326673999429">
        <ele>1614.4000244140625</ele>
        <time>2012-05-18T18:07:23Z</time>
      </trkpt>
      <trkpt lat="39.019667906686664" lon="-108.61318132840097">
        <ele>1615</ele>
        <time>2012-05-18T18:07:25Z</time>
      </trkpt>
      <trkpt lat="39.019641419872642" lon="-108.61318258568645">
        <ele>1614.800048828125</ele>
        <time>2012-05-18T18:07:26Z</time>
      </trkpt>
      <trkpt lat="39.019587691873312" lon="-108.61324276775122">
        <ele>1612.800048828125</ele>
        <time>2012-05-18T18:07:29Z</time>
      </trkpt>
      <trkpt lat="39.019570341333747" lon="-108.61325617879629">
        <ele>1612.5999755859375</ele>
        <time>2012-05-18T18:07:30Z</time>
      </trkpt>
      <trkpt lat="39.019548799842596" lon="-108.61323304474354">
        <ele>1614</ele>
        <time>2012-05-18T18:07:34Z</time>
      </trkpt>
      <trkpt lat="39.019566066563129" lon="-108.61319440416992">
        <ele>1614.800048828125</ele>
        <time>2012-05-18T18:07:38Z</time>
      </trkpt>
      <trkpt lat="39.019582075998187" lon="-108.6131676658988">
        <ele>1615.199951171875</ele>
        <time>2012-05-18T18:07:40Z</time>
      </trkpt>
      <trkpt lat="39.019656842574477" lon="-108.61314838752151">
        <ele>1615.800048828125</ele>
        <time>2012-05-18T18:07:48Z</time>
      </trkpt>
      <trkpt lat="39.019670840352774" lon="-108.61314671114087">
        <ele>1615.800048828125</ele>
        <time>2012-05-18T18:07:50Z</time>
      </trkpt>
      <trkpt lat="39.019666481763124" lon="-108.61314922571182">
        <ele>1615.800048828125</ele>
        <time>2012-05-18T18:07:54Z</time>
      </trkpt>
      <trkpt lat="39.019707888364792" lon="-108.6131729464978">
        <ele>1615.4000244140625</ele>
        <time>2012-05-18T18:09:44Z</time>
      </trkpt>
      <trkpt lat="39.019698752090335" lon="-108.61317403614521">
        <ele>1615.199951171875</ele>
        <time>2012-05-18T18:10:03Z</time>
      </trkpt>
      <trkpt lat="39.019728507846594" lon="-108.61313019879162">
        <ele>1616</ele>
        <time>2012-05-18T18:10:41Z</time>
      </trkpt>
      <trkpt lat="39.019733117893338" lon="-108.61311544664204">
        <ele>1616.199951171875</ele>
        <time>2012-05-18T18:10:42Z</time>
      </trkpt>
      <trkpt lat="39.01978550478816" lon="-108.6130603775382">
        <ele>1616.4000244140625</ele>
        <time>2012-05-18T18:10:48Z</time>
      </trkpt>
      <trkpt lat="39.019808135926723" lon="-108.61303674057126">
        <ele>1616.4000244140625</ele>
        <time>2012-05-18T18:10:50Z</time>
      </trkpt>
      <trkpt lat="39.01988466270268" lon="-108.61300086602569">
        <ele>1616.4000244140625</ele>
        <time>2012-05-18T18:10:58Z</time>
      </trkpt>
      <trkpt lat="39.019887009635568" lon="-108.61299726180732">
        <ele>1616.5999755859375</ele>
        <time>2012-05-18T18:10:59Z</time>
      </trkpt>
      <trkpt lat="39.020012067630887" lon="-108.61295074224472">
        <ele>1621</ele>
        <time>2012-05-18T18:11:02Z</time>
      </trkpt>
      <trkpt lat="39.020032938569784" lon="-108.61291981302202">
        <ele>1621.5999755859375</ele>
        <time>2012-05-18T18:11:05Z</time>
      </trkpt>
      <trkpt lat="39.020062107592821" lon="-108.61287161707878">
        <ele>1622.5999755859375</ele>
        <time>2012-05-18T18:11:12Z</time>
      </trkpt>
      <trkpt lat="39.020093958824873" lon="-108.61280556768179">
        <ele>1623.4000244140625</ele>
        <time>2012-05-18T18:11:20Z</time>
      </trkpt>
      <trkpt lat="39.020122541114688" lon="-108.61271663568914">
        <ele>1623.800048828125</ele>
        <time>2012-05-18T18:11:28Z</time>
      </trkpt>
      <trkpt lat="39.020150955766439" lon="-108.61275678500533">
        <ele>1624.800048828125</ele>
        <time>2012-05-18T18:11:33Z</time>
      </trkpt>
      <trkpt lat="39.020154643803835" lon="-108.61276600509882">
        <ele>1625</ele>
        <time>2012-05-18T18:11:34Z</time>
      </trkpt>
      <trkpt lat="39.020161349326372" lon="-108.61286893486977">
        <ele>1625.800048828125</ele>
        <time>2012-05-18T18:11:43Z</time>
      </trkpt>
      <trkpt lat="39.020148944109678" lon="-108.61296507529914">
        <ele>1626.4000244140625</ele>
        <time>2012-05-18T18:11:52Z</time>
      </trkpt>
      <trkpt lat="39.020160846412182" lon="-108.6129813361913">
        <ele>1627</ele>
        <time>2012-05-18T18:11:54Z</time>
      </trkpt>
      <trkpt lat="39.020189344882965" lon="-108.61297706142068">
        <ele>1628</ele>
        <time>2012-05-18T18:11:58Z</time>
      </trkpt>
      <trkpt lat="39.020208874717355" lon="-108.61297404393554">
        <ele>1628.5999755859375</ele>
        <time>2012-05-18T18:12:00Z</time>
      </trkpt>
      <trkpt lat="39.02023502625525" lon="-108.61297278665006">
        <ele>1629.5999755859375</ele>
        <time>2012-05-18T18:12:03Z</time>
      </trkpt>
      <trkpt lat="39.020260171964765" lon="-108.612967338413">
        <ele>1630.4000244140625</ele>
        <time>2012-05-18T18:12:06Z</time>
      </trkpt>
      <trkpt lat="39.020272577181458" lon="-108.61295602284372">
        <ele>1630.5999755859375</ele>
        <time>2012-05-18T18:12:08Z</time>
      </trkpt>
      <trkpt lat="39.020295543596148" lon="-108.61291193403304">
        <ele>1631</ele>
        <time>2012-05-18T18:12:12Z</time>
      </trkpt>
      <trkpt lat="39.020300405099988" lon="-108.61290120519698">
        <ele>1631.199951171875</ele>
        <time>2012-05-18T18:12:13Z</time>
      </trkpt>
      <trkpt lat="39.020320102572441" lon="-108.61279156990349">
        <ele>1631.199951171875</ele>
        <time>2012-05-18T18:12:21Z</time>
      </trkpt>
      <trkpt lat="39.020301578566432" lon="-108.61270154826343">
        <ele>1630</ele>
        <time>2012-05-18T18:12:27Z</time>
      </trkpt>
      <trkpt lat="39.020293112844229" lon="-108.61262569203973">
        <ele>1629.4000244140625</ele>
        <time>2012-05-18T18:12:34Z</time>
      </trkpt>
      <trkpt lat="39.020293531939387" lon="-108.61261328682303">
        <ele>1629.4000244140625</ele>
        <time>2012-05-18T18:12:35Z</time>
      </trkpt>
      <trkpt lat="39.020316917449236" lon="-108.61253634095192">
        <ele>1630.4000244140625</ele>
        <time>2012-05-18T18:12:38Z</time>
      </trkpt>
      <trkpt lat="39.020323790609837" lon="-108.61251689493656">
        <ele>1630.5999755859375</ele>
        <time>2012-05-18T18:12:39Z</time>
      </trkpt>
      <trkpt lat="39.02038405649364" lon="-108.6124339979142">
        <ele>1632.800048828125</ele>
        <time>2012-05-18T18:12:45Z</time>
      </trkpt>
      <trkpt lat="39.020442562177777" lon="-108.61241664737463">
        <ele>1635.4000244140625</ele>
        <time>2012-05-18T18:12:51Z</time>
      </trkpt>
      <trkpt lat="39.020500564947724" lon="-108.61244916915894">
        <ele>1638.4000244140625</ele>
        <time>2012-05-18T18:12:59Z</time>
      </trkpt>
      <trkpt lat="39.020527135580778" lon="-108.61241002567112">
        <ele>1639.800048828125</ele>
        <time>2012-05-18T18:13:04Z</time>
      </trkpt>
      <trkpt lat="39.020527051761746" lon="-108.6123510170728">
        <ele>1639.5999755859375</ele>
        <time>2012-05-18T18:13:10Z</time>
      </trkpt>
      <trkpt lat="39.020545827224851" lon="-108.61226686276495">
        <ele>1640.4000244140625</ele>
        <time>2012-05-18T18:13:18Z</time>
      </trkpt>
      <trkpt lat="39.020581617951393" lon="-108.61218597739935">
        <ele>1641.800048828125</ele>
        <time>2012-05-18T18:13:26Z</time>
      </trkpt>
      <trkpt lat="39.020597292110324" lon="-108.61212051473558">
        <ele>1642.199951171875</ele>
        <time>2012-05-18T18:13:33Z</time>
      </trkpt>
      <trkpt lat="39.020621431991458" lon="-108.61202982254326">
        <ele>1643.199951171875</ele>
        <time>2012-05-18T18:13:42Z</time>
      </trkpt>
      <trkpt lat="39.020638111978769" lon="-108.61198414117098">
        <ele>1644</ele>
        <time>2012-05-18T18:13:46Z</time>
      </trkpt>
      <trkpt lat="39.020629730075598" lon="-108.61194977536798">
        <ele>1643.800048828125</ele>
        <time>2012-05-18T18:13:48Z</time>
      </trkpt>
      <trkpt lat="39.020599890500307" lon="-108.61188674345613">
        <ele>1642.5999755859375</ele>
        <time>2012-05-18T18:13:53Z</time>
      </trkpt>
      <trkpt lat="39.020598130300641" lon="-108.6118708178401">
        <ele>1642.5999755859375</ele>
        <time>2012-05-18T18:13:54Z</time>
      </trkpt>
      <trkpt lat="39.020604835823178" lon="-108.61176989972591">
        <ele>1643</ele>
        <time>2012-05-18T18:14:01Z</time>
      </trkpt>
      <trkpt lat="39.020632077008486" lon="-108.61170242540538">
        <ele>1644.199951171875</ele>
        <time>2012-05-18T18:14:08Z</time>
      </trkpt>
      <trkpt lat="39.020641716197133" lon="-108.61169043928385">
        <ele>1644.5999755859375</ele>
        <time>2012-05-18T18:14:09Z</time>
      </trkpt>
      <trkpt lat="39.020665185526013" lon="-108.61162656918168">
        <ele>1645.4000244140625</ele>
        <time>2012-05-18T18:14:15Z</time>
      </trkpt>
      <trkpt lat="39.020661665126681" lon="-108.6116170976311">
        <ele>1645.199951171875</ele>
        <time>2012-05-18T18:14:16Z</time>
      </trkpt>
      <trkpt lat="39.020662168040872" lon="-108.61157141625881">
        <ele>1645</ele>
        <time>2012-05-18T18:14:21Z</time>
      </trkpt>
      <trkpt lat="39.020631909370422" lon="-108.61147301271558">
        <ele>1644</ele>
        <time>2012-05-18T18:14:30Z</time>
      </trkpt>
      <trkpt lat="39.020612798631191" lon="-108.61143571324646">
        <ele>1643.4000244140625</ele>
        <time>2012-05-18T18:14:35Z</time>
      </trkpt>
      <trkpt lat="39.02061028406024" lon="-108.6113906186074">
        <ele>1643.4000244140625</ele>
        <time>2012-05-18T18:14:39Z</time>
      </trkpt>
      <trkpt lat="39.020625120028853" lon="-108.61136513762176">
        <ele>1643.800048828125</ele>
        <time>2012-05-18T18:14:42Z</time>
      </trkpt>
      <trkpt lat="39.020632999017835" lon="-108.61134996637702">
        <ele>1644</ele>
        <time>2012-05-18T18:14:43Z</time>
      </trkpt>
      <trkpt lat="39.020664934068918" lon="-108.61129975877702">
        <ele>1644.5999755859375</ele>
        <time>2012-05-18T18:14:48Z</time>
      </trkpt>
      <trkpt lat="39.020697707310319" lon="-108.61121099442244">
        <ele>1645.199951171875</ele>
        <time>2012-05-18T18:14:56Z</time>
      </trkpt>
      <trkpt lat="39.020718075335026" lon="-108.61109867691994">
        <ele>1646.5999755859375</ele>
        <time>2012-05-18T18:15:04Z</time>
      </trkpt>
      <trkpt lat="39.020740874111652" lon="-108.61100798472762">
        <ele>1647.800048828125</ele>
        <time>2012-05-18T18:15:12Z</time>
      </trkpt>
      <trkpt lat="39.02080625295639" lon="-108.61091184429824">
        <ele>1650.5999755859375</ele>
        <time>2012-05-18T18:15:22Z</time>
      </trkpt>
      <trkpt lat="39.020832236856222" lon="-108.61085585318506">
        <ele>1651.4000244140625</ele>
        <time>2012-05-18T18:15:28Z</time>
      </trkpt>
      <trkpt lat="39.020856460556388" lon="-108.61079575493932">
        <ele>1652</ele>
        <time>2012-05-18T18:15:35Z</time>
      </trkpt>
      <trkpt lat="39.020869871601462" lon="-108.61075099557638">
        <ele>1652.4000244140625</ele>
        <time>2012-05-18T18:15:40Z</time>
      </trkpt>
      <trkpt lat="39.020865596830845" lon="-108.61073766835034">
        <ele>1652.199951171875</ele>
        <time>2012-05-18T18:15:42Z</time>
      </trkpt>
      <trkpt lat="39.020855203270912" lon="-108.61065451987088">
        <ele>1652.199951171875</ele>
        <time>2012-05-18T18:15:50Z</time>
      </trkpt>
      <trkpt lat="39.020858723670244" lon="-108.61058109439909">
        <ele>1653.199951171875</ele>
        <time>2012-05-18T18:15:59Z</time>
      </trkpt>
      <trkpt lat="39.020887473598123" lon="-108.61050968058407">
        <ele>1655</ele>
        <time>2012-05-18T18:16:08Z</time>
      </trkpt>
      <trkpt lat="39.020898202434182" lon="-108.61044371500611">
        <ele>1656.199951171875</ele>
        <time>2012-05-18T18:16:15Z</time>
      </trkpt>
      <trkpt lat="39.020913038402796" lon="-108.61037012189627">
        <ele>1657.4000244140625</ele>
        <time>2012-05-18T18:16:22Z</time>
      </trkpt>
      <trkpt lat="39.020907338708639" lon="-108.61030197702348">
        <ele>1657.800048828125</ele>
        <time>2012-05-18T18:16:28Z</time>
      </trkpt>
      <trkpt lat="39.020884959027171" lon="-108.61020960845053">
        <ele>1657.800048828125</ele>
        <time>2012-05-18T18:16:37Z</time>
      </trkpt>
      <trkpt lat="39.020895352587104" lon="-108.61012645997107">
        <ele>1658.5999755859375</ele>
        <time>2012-05-18T18:16:46Z</time>
      </trkpt>
      <trkpt lat="39.020914882421494" lon="-108.61004649661481">
        <ele>1659.5999755859375</ele>
        <time>2012-05-18T18:16:52Z</time>
      </trkpt>
      <trkpt lat="39.020923096686602" lon="-108.61000500619411">
        <ele>1660</ele>
        <time>2012-05-18T18:16:56Z</time>
      </trkpt>
      <trkpt lat="39.020942123606801" lon="-108.60996753908694">
        <ele>1660.5999755859375</ele>
        <time>2012-05-18T18:17:00Z</time>
      </trkpt>
      <trkpt lat="39.020998449996114" lon="-108.6098900064826">
        <ele>1661.199951171875</ele>
        <time>2012-05-18T18:17:08Z</time>
      </trkpt>
      <trkpt lat="39.021012531593442" lon="-108.60979252494872">
        <ele>1662</ele>
        <time>2012-05-18T18:17:17Z</time>
      </trkpt>
      <trkpt lat="39.021006496623158" lon="-108.60977861098945">
        <ele>1662</ele>
        <time>2012-05-18T18:17:24Z</time>
      </trkpt>
      <trkpt lat="39.021014124155045" lon="-108.60975111834705">
        <ele>1662.4000244140625</ele>
        <time>2012-05-18T18:17:31Z</time>
      </trkpt>
      <trkpt lat="39.020995851606131" lon="-108.60965271480381">
        <ele>1663.199951171875</ele>
        <time>2012-05-18T18:17:40Z</time>
      </trkpt>
      <trkpt lat="39.020987134426832" lon="-108.60956562682986">
        <ele>1664.199951171875</ele>
        <time>2012-05-18T18:17:48Z</time>
      </trkpt>
      <trkpt lat="39.020992582663894" lon="-108.6095414031297">
        <ele>1664.4000244140625</ele>
        <time>2012-05-18T18:17:57Z</time>
      </trkpt>
      <trkpt lat="39.020955702289939" lon="-108.60950686968863">
        <ele>1664.5999755859375</ele>
        <time>2012-05-18T18:24:03Z</time>
      </trkpt>
      <trkpt lat="39.020953439176083" lon="-108.60949915833771">
        <ele>1664.800048828125</ele>
        <time>2012-05-18T18:24:09Z</time>
      </trkpt>
      <trkpt lat="39.020954612642527" lon="-108.60950418747962">
        <ele>1664.5999755859375</ele>
        <time>2012-05-18T18:24:25Z</time>
      </trkpt>
      <trkpt lat="39.020970705896616" lon="-108.60946252942085">
        <ele>1665.199951171875</ele>
        <time>2012-05-18T18:26:24Z</time>
      </trkpt>
      <trkpt lat="39.0209836140275" lon="-108.60948013141751">
        <ele>1665</ele>
        <time>2012-05-18T18:27:57Z</time>
      </trkpt>
      <trkpt lat="39.020967101678252" lon="-108.60950376838446">
        <ele>1664.800048828125</ele>
        <time>2012-05-18T18:28:08Z</time>
      </trkpt>
      <trkpt lat="39.021014627069235" lon="-108.60951952636242">
        <ele>1664.4000244140625</ele>
        <time>2012-05-18T18:30:41Z</time>
      </trkpt>
      <trkpt lat="39.02101144194603" lon="-108.60953813418746">
        <ele>1664.4000244140625</ele>
        <time>2012-05-18T18:30:48Z</time>
      </trkpt>
      <trkpt lat="39.020987972617149" lon="-108.60959622077644">
        <ele>1663.800048828125</ele>
        <time>2012-05-18T18:30:58Z</time>
      </trkpt>
      <trkpt lat="39.020988894626498" lon="-108.60959831625223">
        <ele>1663.800048828125</ele>
        <time>2012-05-18T18:31:05Z</time>
      </trkpt>
      <trkpt lat="39.020962910726666" lon="-108.60961440950632">
        <ele>1663.5999755859375</ele>
        <time>2012-05-18T18:35:12Z</time>
      </trkpt>
      <trkpt lat="39.020911529660225" lon="-108.60962983220816">
        <ele>1662.800048828125</ele>
        <time>2012-05-18T18:36:22Z</time>
      </trkpt>
      <trkpt lat="39.020960312336683" lon="-108.60958498902619">
        <ele>1663.800048828125</ele>
        <time>2012-05-18T18:37:10Z</time>
      </trkpt>
      <trkpt lat="39.020977076143026" lon="-108.60959739424288">
        <ele>1663.800048828125</ele>
        <time>2012-05-18T18:54:50Z</time>
      </trkpt>
      <trkpt lat="39.02098654769361" lon="-108.6095583345741">
        <ele>1664.199951171875</ele>
        <time>2012-05-18T18:55:18Z</time>
      </trkpt>
      <trkpt lat="39.020992666482925" lon="-108.60951541922987">
        <ele>1664.5999755859375</ele>
        <time>2012-05-18T18:55:24Z</time>
      </trkpt>
      <trkpt lat="39.020992750301957" lon="-108.60951449722052">
        <ele>1664.5999755859375</ele>
        <time>2012-05-18T18:57:15Z</time>
      </trkpt>
      <trkpt lat="39.021001467481256" lon="-108.6095136590302">
        <ele>1664.5999755859375</ele>
        <time>2012-05-18T18:57:24Z</time>
      </trkpt>
      <trkpt lat="39.020998869091272" lon="-108.60950930044055">
        <ele>1664.5999755859375</ele>
        <time>2012-05-18T18:57:30Z</time>
      </trkpt>
      <trkpt lat="39.021009849384427" lon="-108.60956001095474">
        <ele>1664</ele>
        <time>2012-05-18T18:58:03Z</time>
      </trkpt>
      <trkpt lat="39.021005323156714" lon="-108.60957434400916">
        <ele>1664</ele>
        <time>2012-05-18T18:58:09Z</time>
      </trkpt>
      <trkpt lat="39.020981350913644" lon="-108.60961181111634">
        <ele>1663.5999755859375</ele>
        <time>2012-05-18T18:58:14Z</time>
      </trkpt>
      <trkpt lat="39.020961401984096" lon="-108.60964919440448">
        <ele>1663.199951171875</ele>
        <time>2012-05-18T18:58:19Z</time>
      </trkpt>
      <trkpt lat="39.020947823300958" lon="-108.60966889187694">
        <ele>1662.800048828125</ele>
        <time>2012-05-18T18:58:24Z</time>
      </trkpt>
      <trkpt lat="39.020961904898286" lon="-108.6097158305347">
        <ele>1662.5999755859375</ele>
        <time>2012-05-18T19:11:47Z</time>
      </trkpt>
      <trkpt lat="39.020988559350371" lon="-108.60973125323653">
        <ele>1662.5999755859375</ele>
        <time>2012-05-18T19:11:52Z</time>
      </trkpt>
      <trkpt lat="39.021006161347032" lon="-108.60974826849997">
        <ele>1662.4000244140625</ele>
        <time>2012-05-18T19:11:56Z</time>
      </trkpt>
      <trkpt lat="39.021018901839852" lon="-108.60978581942618">
        <ele>1662</ele>
        <time>2012-05-18T19:12:02Z</time>
      </trkpt>
      <trkpt lat="39.021028121933341" lon="-108.60981658101082">
        <ele>1661.5999755859375</ele>
        <time>2012-05-18T19:12:09Z</time>
      </trkpt>
      <trkpt lat="39.021028289571404" lon="-108.60986905172467">
        <ele>1661.199951171875</ele>
        <time>2012-05-18T19:12:24Z</time>
      </trkpt>
      <trkpt lat="39.021017644554377" lon="-108.60988782718778">
        <ele>1661.199951171875</ele>
        <time>2012-05-18T19:12:34Z</time>
      </trkpt>
      <trkpt lat="39.020996438339353" lon="-108.60989914275706">
        <ele>1661.199951171875</ele>
        <time>2012-05-18T19:12:38Z</time>
      </trkpt>
      <trkpt lat="39.020991325378418" lon="-108.60990760847926">
        <ele>1661.199951171875</ele>
        <time>2012-05-18T19:12:40Z</time>
      </trkpt>
      <trkpt lat="39.02100708335638" lon="-108.6098466720432">
        <ele>1661.4000244140625</ele>
        <time>2012-05-18T19:17:05Z</time>
      </trkpt>
      <trkpt lat="39.021015632897615" lon="-108.60979034565389">
        <ele>1662</ele>
        <time>2012-05-18T19:17:11Z</time>
      </trkpt>
      <trkpt lat="39.021009597927332" lon="-108.60972203314304">
        <ele>1662.5999755859375</ele>
        <time>2012-05-18T19:17:18Z</time>
      </trkpt>
      <trkpt lat="39.021016471087933" lon="-108.60964584164321">
        <ele>1663.199951171875</ele>
        <time>2012-05-18T19:17:26Z</time>
      </trkpt>
      <trkpt lat="39.021022589877248" lon="-108.60958658158779">
        <ele>1663.800048828125</ele>
        <time>2012-05-18T19:17:32Z</time>
      </trkpt>
      <trkpt lat="39.021027870476246" lon="-108.6095760203898">
        <ele>1663.800048828125</ele>
        <time>2012-05-18T19:17:39Z</time>
      </trkpt>
      <trkpt lat="39.021035749465227" lon="-108.60951039008796">
        <ele>1664.4000244140625</ele>
        <time>2012-05-18T19:17:53Z</time>
      </trkpt>
      <trkpt lat="39.020986631512642" lon="-108.60947786830366">
        <ele>1665</ele>
        <time>2012-05-18T19:18:00Z</time>
      </trkpt>
      <trkpt lat="39.020949332043529" lon="-108.60948524437845">
        <ele>1664.800048828125</ele>
        <time>2012-05-18T19:18:06Z</time>
      </trkpt>
      <trkpt lat="39.020925778895617" lon="-108.60946227796376">
        <ele>1664.800048828125</ele>
        <time>2012-05-18T19:18:24Z</time>
      </trkpt>
      <trkpt lat="39.020894011482596" lon="-108.60948792658746">
        <ele>1664.199951171875</ele>
        <time>2012-05-18T19:18:45Z</time>
      </trkpt>
      <trkpt lat="39.02094841003418" lon="-108.60949387773871">
        <ele>1664.800048828125</ele>
        <time>2012-05-18T19:21:55Z</time>
      </trkpt>
      <trkpt lat="39.020972717553377" lon="-108.60954970121384">
        <ele>1664.4000244140625</ele>
        <time>2012-05-18T19:22:02Z</time>
      </trkpt>
      <trkpt lat="39.02097774669528" lon="-108.6095879226923">
        <ele>1664</ele>
        <time>2012-05-18T19:22:09Z</time>
      </trkpt>
      <trkpt lat="39.020967688411474" lon="-108.60958934761584">
        <ele>1663.800048828125</ele>
        <time>2012-05-18T19:22:17Z</time>
      </trkpt>
      <trkpt lat="39.020973807200789" lon="-108.60959731042385">
        <ele>1663.800048828125</ele>
        <time>2012-05-18T19:22:30Z</time>
      </trkpt>
      <trkpt lat="39.020961401984096" lon="-108.60961608588696">
        <ele>1663.5999755859375</ele>
        <time>2012-05-18T19:22:36Z</time>
      </trkpt>
      <trkpt lat="39.020958719775081" lon="-108.60962128266692">
        <ele>1663.4000244140625</ele>
        <time>2012-05-18T19:27:59Z</time>
      </trkpt>
      <trkpt lat="39.020962910726666" lon="-108.60962279140949">
        <ele>1663.5999755859375</ele>
        <time>2012-05-18T19:28:06Z</time>
      </trkpt>
      <trkpt lat="39.020953858271241" lon="-108.60962279140949">
        <ele>1663.4000244140625</ele>
        <time>2012-05-18T19:28:45Z</time>
      </trkpt>
      <trkpt lat="39.020953606814146" lon="-108.60962119884789">
        <ele>1663.4000244140625</ele>
        <time>2012-05-18T19:28:52Z</time>
      </trkpt>
      <trkpt lat="39.02096844278276" lon="-108.60966998152435">
        <ele>1663.199951171875</ele>
        <time>2012-05-18T19:35:43Z</time>
      </trkpt>
      <trkpt lat="39.02096601203084" lon="-108.60969236120582">
        <ele>1662.800048828125</ele>
        <time>2012-05-18T19:35:50Z</time>
      </trkpt>
      <trkpt lat="39.020955031737685" lon="-108.60968909226358">
        <ele>1662.800048828125</ele>
        <time>2012-05-18T19:37:30Z</time>
      </trkpt>
      <trkpt lat="39.020953355357051" lon="-108.60962304286659">
        <ele>1663.4000244140625</ele>
        <time>2012-05-18T19:37:36Z</time>
      </trkpt>
      <trkpt lat="39.020962910726666" lon="-108.60959412530065">
        <ele>1663.800048828125</ele>
        <time>2012-05-18T19:37:43Z</time>
      </trkpt>
      <trkpt lat="39.0209870506078" lon="-108.60958297736943">
        <ele>1664</ele>
        <time>2012-05-18T19:37:58Z</time>
      </trkpt>
      <trkpt lat="39.021043879911304" lon="-108.60955917276442">
        <ele>1664</ele>
        <time>2012-05-18T19:38:01Z</time>
      </trkpt>
      <trkpt lat="39.021162232384086" lon="-108.60957367345691">
        <ele>1663.199951171875</ele>
        <time>2012-05-18T19:38:07Z</time>
      </trkpt>
      <trkpt lat="39.021270610392094" lon="-108.60963201150298">
        <ele>1662.199951171875</ele>
        <time>2012-05-18T19:38:14Z</time>
      </trkpt>
      <trkpt lat="39.021382089704275" lon="-108.60969856381416">
        <ele>1660.4000244140625</ele>
        <time>2012-05-18T19:38:22Z</time>
      </trkpt>
      <trkpt lat="39.021534556522965" lon="-108.60975380055606">
        <ele>1658</ele>
        <time>2012-05-18T19:38:30Z</time>
      </trkpt>
      <trkpt lat="39.021663721650839" lon="-108.60976193100214">
        <ele>1655.199951171875</ele>
        <time>2012-05-18T19:38:38Z</time>
      </trkpt>
      <trkpt lat="39.021661374717951" lon="-108.60976092517376">
        <ele>1655.199951171875</ele>
        <time>2012-05-18T19:38:43Z</time>
      </trkpt>
      <trkpt lat="39.021653328090906" lon="-108.60975556075573">
        <ele>1655.4000244140625</ele>
        <time>2012-05-18T19:39:07Z</time>
      </trkpt>
      <trkpt lat="39.021707559004426" lon="-108.60974776558578">
        <ele>1654.4000244140625</ele>
        <time>2012-05-18T19:39:09Z</time>
      </trkpt>
      <trkpt lat="39.021919369697571" lon="-108.60968942753971">
        <ele>1651.199951171875</ele>
        <time>2012-05-18T19:39:13Z</time>
      </trkpt>
      <trkpt lat="39.021985670551658" lon="-108.60965422354639">
        <ele>1650.199951171875</ele>
        <time>2012-05-18T19:39:14Z</time>
      </trkpt>
      <trkpt lat="39.022195134311914" lon="-108.60948155634105">
        <ele>1648.199951171875</ele>
        <time>2012-05-18T19:39:17Z</time>
      </trkpt>
      <trkpt lat="39.022399736568332" lon="-108.609219789505">
        <ele>1648.199951171875</ele>
        <time>2012-05-18T19:39:20Z</time>
      </trkpt>
      <trkpt lat="39.022469390183687" lon="-108.60912423580885">
        <ele>1648.800048828125</ele>
        <time>2012-05-18T19:39:21Z</time>
      </trkpt>
      <trkpt lat="39.022891502827406" lon="-108.60853565856814">
        <ele>1648.4000244140625</ele>
        <time>2012-05-18T19:39:27Z</time>
      </trkpt>
      <trkpt lat="39.023128626868129" lon="-108.60831471160054">
        <ele>1646</ele>
        <time>2012-05-18T19:39:30Z</time>
      </trkpt>
      <trkpt lat="39.023215379565954" lon="-108.60826567746699">
        <ele>1646.199951171875</ele>
        <time>2012-05-18T19:39:31Z</time>
      </trkpt>
      <trkpt lat="39.023472368717194" lon="-108.6081702914089">
        <ele>1647.5999755859375</ele>
        <time>2012-05-18T19:39:34Z</time>
      </trkpt>
      <trkpt lat="39.023551074787974" lon="-108.60814506188035">
        <ele>1647.5999755859375</ele>
        <time>2012-05-18T19:39:35Z</time>
      </trkpt>
      <trkpt lat="39.023962207138538" lon="-108.60802100971341">
        <ele>1649.199951171875</ele>
        <time>2012-05-18T19:39:41Z</time>
      </trkpt>
      <trkpt lat="39.024309469386935" lon="-108.60782101750374">
        <ele>1650.800048828125</ele>
        <time>2012-05-18T19:39:47Z</time>
      </trkpt>
      <trkpt lat="39.024466713890433" lon="-108.60757911577821">
        <ele>1650.199951171875</ele>
        <time>2012-05-18T19:39:51Z</time>
      </trkpt>
      <trkpt lat="39.024519855156541" lon="-108.60743276774883">
        <ele>1649</ele>
        <time>2012-05-18T19:39:53Z</time>
      </trkpt>
      <trkpt lat="39.024614570662379" lon="-108.60714711248875">
        <ele>1648.800048828125</ele>
        <time>2012-05-18T19:39:57Z</time>
      </trkpt>
      <trkpt lat="39.024796290323138" lon="-108.60667831264436">
        <ele>1643.800048828125</ele>
        <time>2012-05-18T19:40:04Z</time>
      </trkpt>
      <trkpt lat="39.024893939495087" lon="-108.6065140273422">
        <ele>1642.800048828125</ele>
        <time>2012-05-18T19:40:08Z</time>
      </trkpt>
      <trkpt lat="39.025090243667364" lon="-108.60628109425306">
        <ele>1641.800048828125</ele>
        <time>2012-05-18T19:40:15Z</time>
      </trkpt>
      <trkpt lat="39.025256540626287" lon="-108.60612854361534">
        <ele>1641.199951171875</ele>
        <time>2012-05-18T19:40:22Z</time>
      </trkpt>
      <trkpt lat="39.025279255583882" lon="-108.60613139346242">
        <ele>1641.199951171875</ele>
        <time>2012-05-18T19:40:23Z</time>
      </trkpt>
      <trkpt lat="39.02532166801393" lon="-108.60616391524673">
        <ele>1641</ele>
        <time>2012-05-18T19:40:25Z</time>
      </trkpt>
      <trkpt lat="39.025381850078702" lon="-108.60618612729013">
        <ele>1641</ele>
        <time>2012-05-18T19:40:28Z</time>
      </trkpt>
      <trkpt lat="39.025410348549485" lon="-108.60615612007678">
        <ele>1640.800048828125</ele>
        <time>2012-05-18T19:40:30Z</time>
      </trkpt>
      <trkpt lat="39.025436080992222" lon="-108.60605612397194">
        <ele>1639.800048828125</ele>
        <time>2012-05-18T19:40:34Z</time>
      </trkpt>
      <trkpt lat="39.025437338277698" lon="-108.60603416338563">
        <ele>1639.5999755859375</ele>
        <time>2012-05-18T19:40:35Z</time>
      </trkpt>
      <trkpt lat="39.02542183175683" lon="-108.6059801839292">
        <ele>1639.4000244140625</ele>
        <time>2012-05-18T19:40:38Z</time>
      </trkpt>
      <trkpt lat="39.025416551157832" lon="-108.60597004182637">
        <ele>1639.199951171875</ele>
        <time>2012-05-18T19:40:40Z</time>
      </trkpt>
      <trkpt lat="39.02543256059289" lon="-108.60596115700901">
        <ele>1639.199951171875</ele>
        <time>2012-05-18T19:40:52Z</time>
      </trkpt>
      <trkpt lat="39.025461310520768" lon="-108.60593802295625">
        <ele>1638.800048828125</ele>
        <time>2012-05-18T19:40:54Z</time>
      </trkpt>
      <trkpt lat="39.025548230856657" lon="-108.60585344955325">
        <ele>1637.5999755859375</ele>
        <time>2012-05-18T19:41:01Z</time>
      </trkpt>
      <trkpt lat="39.025565749034286" lon="-108.60584205016494">
        <ele>1637.4000244140625</ele>
        <time>2012-05-18T19:41:06Z</time>
      </trkpt>
      <trkpt lat="39.025617465376854" lon="-108.60579242929816">
        <ele>1636.800048828125</ele>
        <time>2012-05-18T19:41:12Z</time>
      </trkpt>
      <trkpt lat="39.025705475360155" lon="-108.60569410957396">
        <ele>1635.800048828125</ele>
        <time>2012-05-18T19:41:17Z</time>
      </trkpt>
      <trkpt lat="39.025701703503728" lon="-108.60569100826979">
        <ele>1635.800048828125</ele>
        <time>2012-05-18T19:41:25Z</time>
      </trkpt>
      <trkpt lat="39.025657698512077" lon="-108.60573476180434">
        <ele>1636.199951171875</ele>
        <time>2012-05-18T19:41:43Z</time>
      </trkpt>
      <trkpt lat="39.025597684085369" lon="-108.60585579648614">
        <ele>1637.4000244140625</ele>
        <time>2012-05-18T19:41:51Z</time>
      </trkpt>
      <trkpt lat="39.025462986901402" lon="-108.60599510371685">
        <ele>1639.199951171875</ele>
        <time>2012-05-18T19:42:04Z</time>
      </trkpt>
      <trkpt lat="39.025334743782878" lon="-108.60612083226442">
        <ele>1640.800048828125</ele>
        <time>2012-05-18T19:42:17Z</time>
      </trkpt>
      <trkpt lat="39.025310520082712" lon="-108.60615360550582">
        <ele>1641</ele>
        <time>2012-05-18T19:42:24Z</time>
      </trkpt>
      <trkpt lat="39.025300042703748" lon="-108.60617112368345">
        <ele>1641.199951171875</ele>
        <time>2012-05-18T19:42:33Z</time>
      </trkpt>
      <trkpt lat="39.025280261412263" lon="-108.60621470957994">
        <ele>1641.4000244140625</ele>
        <time>2012-05-18T19:42:41Z</time>
      </trkpt>
      <trkpt lat="39.025290822610259" lon="-108.60627003014088">
        <ele>1641.5999755859375</ele>
        <time>2012-05-18T19:42:47Z</time>
      </trkpt>
      <trkpt lat="39.025286044925451" lon="-108.60630531795323">
        <ele>1641.4000244140625</ele>
        <time>2012-05-18T19:42:48Z</time>
      </trkpt>
      <trkpt lat="39.025224018841982" lon="-108.60642643645406">
        <ele>1641</ele>
        <time>2012-05-18T19:42:51Z</time>
      </trkpt>
      <trkpt lat="39.025174733251333" lon="-108.60653883777559">
        <ele>1640.199951171875</ele>
        <time>2012-05-18T19:42:53Z</time>
      </trkpt>
      <trkpt lat="39.025129973888397" lon="-108.60668401233852">
        <ele>1638.5999755859375</ele>
        <time>2012-05-18T19:42:55Z</time>
      </trkpt>
      <trkpt lat="39.02510273270309" lon="-108.60685148276389">
        <ele>1637.4000244140625</ele>
        <time>2012-05-18T19:42:57Z</time>
      </trkpt>
      <trkpt lat="39.025128884240985" lon="-108.60703814774752">
        <ele>1633.800048828125</ele>
        <time>2012-05-18T19:42:59Z</time>
      </trkpt>
      <trkpt lat="39.025269197300076" lon="-108.60721441917121">
        <ele>1631.800048828125</ele>
        <time>2012-05-18T19:43:02Z</time>
      </trkpt>
      <trkpt lat="39.025401547551155" lon="-108.60726730898023">
        <ele>1630.4000244140625</ele>
        <time>2012-05-18T19:43:05Z</time>
      </trkpt>
      <trkpt lat="39.025502633303404" lon="-108.60727988183498">
        <ele>1630.199951171875</ele>
        <time>2012-05-18T19:43:09Z</time>
      </trkpt>
      <trkpt lat="39.025534484535456" lon="-108.60728952102363">
        <ele>1630</ele>
        <time>2012-05-18T19:43:10Z</time>
      </trkpt>
      <trkpt lat="39.02570178732276" lon="-108.60735246911645">
        <ele>1629</ele>
        <time>2012-05-18T19:43:15Z</time>
      </trkpt>
      <trkpt lat="39.025773033499718" lon="-108.60737836919725">
        <ele>1628.199951171875</ele>
        <time>2012-05-18T19:43:19Z</time>
      </trkpt>
      <trkpt lat="39.025902869179845" lon="-108.60740946605802">
        <ele>1627</ele>
        <time>2012-05-18T19:43:23Z</time>
      </trkpt>
      <trkpt lat="39.026157343760133" lon="-108.60740913078189">
        <ele>1627</ele>
        <time>2012-05-18T19:43:28Z</time>
      </trkpt>
      <trkpt lat="39.026309223845601" lon="-108.6074466817081">
        <ele>1626.199951171875</ele>
        <time>2012-05-18T19:43:31Z</time>
      </trkpt>
      <trkpt lat="39.026339063420892" lon="-108.60747174359858">
        <ele>1625.5999755859375</ele>
        <time>2012-05-18T19:43:32Z</time>
      </trkpt>
      <trkpt lat="39.02641667984426" lon="-108.60752630978823">
        <ele>1624.4000244140625</ele>
        <time>2012-05-18T19:43:34Z</time>
      </trkpt>
      <trkpt lat="39.026494296267629" lon="-108.60758439637721">
        <ele>1622.800048828125</ele>
        <time>2012-05-18T19:43:36Z</time>
      </trkpt>
      <trkpt lat="39.026578282937407" lon="-108.60759504139423">
        <ele>1622.199951171875</ele>
        <time>2012-05-18T19:43:39Z</time>
      </trkpt>
      <trkpt lat="39.026645505800843" lon="-108.60757660120726">
        <ele>1622.199951171875</ele>
        <time>2012-05-18T19:43:42Z</time>
      </trkpt>
      <trkpt lat="39.026676435023546" lon="-108.60757710412145">
        <ele>1622</ele>
        <time>2012-05-18T19:43:44Z</time>
      </trkpt>
      <trkpt lat="39.026743238791823" lon="-108.6075603403151">
        <ele>1622</ele>
        <time>2012-05-18T19:43:48Z</time>
      </trkpt>
      <trkpt lat="39.026747681200504" lon="-108.60755422152579">
        <ele>1622</ele>
        <time>2012-05-18T19:43:49Z</time>
      </trkpt>
      <trkpt lat="39.026825884357095" lon="-108.6075003258884">
        <ele>1622.199951171875</ele>
        <time>2012-05-18T19:43:55Z</time>
      </trkpt>
      <trkpt lat="39.026882043108344" lon="-108.60748029313982">
        <ele>1621.5999755859375</ele>
        <time>2012-05-18T19:43:57Z</time>
      </trkpt>
      <trkpt lat="39.026939207687974" lon="-108.60743712633848">
        <ele>1621</ele>
        <time>2012-05-18T19:44:00Z</time>
      </trkpt>
      <trkpt lat="39.02702160179615" lon="-108.60739664174616">
        <ele>1619.5999755859375</ele>
        <time>2012-05-18T19:44:06Z</time>
      </trkpt>
      <trkpt lat="39.027076167985797" lon="-108.60737107694149">
        <ele>1618.4000244140625</ele>
        <time>2012-05-18T19:44:10Z</time>
      </trkpt>
      <trkpt lat="39.027154706418514" lon="-108.60733235254884">
        <ele>1617.800048828125</ele>
        <time>2012-05-18T19:44:14Z</time>
      </trkpt>
      <trkpt lat="39.027278926223516" lon="-108.60731315799057">
        <ele>1616</ele>
        <time>2012-05-18T19:44:18Z</time>
      </trkpt>
      <trkpt lat="39.027430303394794" lon="-108.60720897093415">
        <ele>1615.4000244140625</ele>
        <time>2012-05-18T19:44:22Z</time>
      </trkpt>
      <trkpt lat="39.027459137141705" lon="-108.60720930621028">
        <ele>1615</ele>
        <time>2012-05-18T19:44:23Z</time>
      </trkpt>
      <trkpt lat="39.027524599805474" lon="-108.60724844969809">
        <ele>1614</ele>
        <time>2012-05-18T19:44:25Z</time>
      </trkpt>
      <trkpt lat="39.027619985863566" lon="-108.60731173306704">
        <ele>1613.199951171875</ele>
        <time>2012-05-18T19:44:29Z</time>
      </trkpt>
      <trkpt lat="39.027688046917319" lon="-108.60729840584099">
        <ele>1612.5999755859375</ele>
        <time>2012-05-18T19:44:31Z</time>
      </trkpt>
      <trkpt lat="39.027726855129004" lon="-108.60729714855552">
        <ele>1612.199951171875</ele>
        <time>2012-05-18T19:44:32Z</time>
      </trkpt>
      <trkpt lat="39.027926847338676" lon="-108.60738675110042">
        <ele>1610.4000244140625</ele>
        <time>2012-05-18T19:44:37Z</time>
      </trkpt>
      <trkpt lat="39.028014186769724" lon="-108.60747308470309">
        <ele>1611.800048828125</ele>
        <time>2012-05-18T19:44:40Z</time>
      </trkpt>
      <trkpt lat="39.028040925040841" lon="-108.60746051184833">
        <ele>1611.4000244140625</ele>
        <time>2012-05-18T19:44:41Z</time>
      </trkpt>
      <trkpt lat="39.028197834268212" lon="-108.60735833644867">
        <ele>1606.4000244140625</ele>
        <time>2012-05-18T19:44:45Z</time>
      </trkpt>
      <trkpt lat="39.028253071010113" lon="-108.60734039917588">
        <ele>1607.5999755859375</ele>
        <time>2012-05-18T19:44:46Z</time>
      </trkpt>
      <trkpt lat="39.028409812599421" lon="-108.60728675499558">
        <ele>1609.199951171875</ele>
        <time>2012-05-18T19:44:49Z</time>
      </trkpt>
      <trkpt lat="39.028502851724625" lon="-108.60723042860627">
        <ele>1607.5999755859375</ele>
        <time>2012-05-18T19:44:52Z</time>
      </trkpt>
      <trkpt lat="39.028612989932299" lon="-108.60720997676253">
        <ele>1606.800048828125</ele>
        <time>2012-05-18T19:44:56Z</time>
      </trkpt>
      <trkpt lat="39.028725810348988" lon="-108.60718952491879">
        <ele>1606</ele>
        <time>2012-05-18T19:45:00Z</time>
      </trkpt>
      <trkpt lat="39.028816251084208" lon="-108.60718633979559">
        <ele>1606.4000244140625</ele>
        <time>2012-05-18T19:45:03Z</time>
      </trkpt>
      <trkpt lat="39.02882806956768" lon="-108.60718030482531">
        <ele>1606.4000244140625</ele>
        <time>2012-05-18T19:45:04Z</time>
      </trkpt>
      <trkpt lat="39.028823878616095" lon="-108.60717720352113">
        <ele>1606.199951171875</ele>
        <time>2012-05-18T19:45:08Z</time>
      </trkpt>
      <trkpt lat="39.028865955770016" lon="-108.60715096816421">
        <ele>1605.5999755859375</ele>
        <time>2012-05-18T19:45:14Z</time>
      </trkpt>
      <trkpt lat="39.028940973803401" lon="-108.6071493756026">
        <ele>1606.4000244140625</ele>
        <time>2012-05-18T19:45:18Z</time>
      </trkpt>
      <trkpt lat="39.028999479487538" lon="-108.60717980191112">
        <ele>1608.199951171875</ele>
        <time>2012-05-18T19:45:41Z</time>
      </trkpt>
      <trkpt lat="39.029107019305229" lon="-108.60716932453215">
        <ele>1609</ele>
        <time>2012-05-18T19:45:45Z</time>
      </trkpt>
      <trkpt lat="39.029202405363321" lon="-108.60716320574284">
        <ele>1609.5999755859375</ele>
        <time>2012-05-18T19:45:49Z</time>
      </trkpt>
      <trkpt lat="39.029271472245455" lon="-108.60713344998658">
        <ele>1609</ele>
        <time>2012-05-18T19:45:54Z</time>
      </trkpt>
      <trkpt lat="39.029388483613729" lon="-108.60705415718257">
        <ele>1607.800048828125</ele>
        <time>2012-05-18T19:45:59Z</time>
      </trkpt>
      <trkpt lat="39.029405498877168" lon="-108.60704753547907">
        <ele>1607.800048828125</ele>
        <time>2012-05-18T19:46:00Z</time>
      </trkpt>
      <trkpt lat="39.029448078945279" lon="-108.60703848302364">
        <ele>1608.4000244140625</ele>
        <time>2012-05-18T19:46:03Z</time>
      </trkpt>
      <trkpt lat="39.029516391456127" lon="-108.60703102312982">
        <ele>1609.5999755859375</ele>
        <time>2012-05-18T19:46:07Z</time>
      </trkpt>
      <trkpt lat="39.029576573520899" lon="-108.60699892044067">
        <ele>1609.800048828125</ele>
        <time>2012-05-18T19:46:10Z</time>
      </trkpt>
      <trkpt lat="39.029620243236423" lon="-108.60699322074652">
        <ele>1609.800048828125</ele>
        <time>2012-05-18T19:46:12Z</time>
      </trkpt>
      <trkpt lat="39.029648154973984" lon="-108.6069992557168">
        <ele>1610.199951171875</ele>
        <time>2012-05-18T19:46:16Z</time>
      </trkpt>
      <trkpt lat="39.029697105288506" lon="-108.60698777250946">
        <ele>1610.199951171875</ele>
        <time>2012-05-18T19:46:22Z</time>
      </trkpt>
      <trkpt lat="39.029755359515548" lon="-108.60700059682131">
        <ele>1610.800048828125</ele>
        <time>2012-05-18T19:46:28Z</time>
      </trkpt>
      <trkpt lat="39.029809422791004" lon="-108.6070063803345">
        <ele>1611.199951171875</ele>
        <time>2012-05-18T19:46:34Z</time>
      </trkpt>
      <trkpt lat="39.029816798865795" lon="-108.60701065510511">
        <ele>1611.4000244140625</ele>
        <time>2012-05-18T19:46:35Z</time>
      </trkpt>
      <trkpt lat="39.029851080849767" lon="-108.60704082995653">
        <ele>1611.800048828125</ele>
        <time>2012-05-18T19:46:39Z</time>
      </trkpt>
      <trkpt lat="39.029865749180317" lon="-108.60706027597189">
        <ele>1612</ele>
        <time>2012-05-18T19:46:41Z</time>
      </trkpt>
      <trkpt lat="39.029919393360615" lon="-108.60712104476988">
        <ele>1610.199951171875</ele>
        <time>2012-05-18T19:46:49Z</time>
      </trkpt>
      <trkpt lat="39.029928697273135" lon="-108.60713470727205">
        <ele>1609.800048828125</ele>
        <time>2012-05-18T19:46:50Z</time>
      </trkpt>
      <trkpt lat="39.029933223500848" lon="-108.60722062177956">
        <ele>1608.800048828125</ele>
        <time>2012-05-18T19:46:53Z</time>
      </trkpt>
      <trkpt lat="39.029862144961953" lon="-108.60739655792713">
        <ele>1609</ele>
        <time>2012-05-18T19:46:58Z</time>
      </trkpt>
      <trkpt lat="39.029749324545264" lon="-108.60750141553581">
        <ele>1609.4000244140625</ele>
        <time>2012-05-18T19:47:02Z</time>
      </trkpt>
      <trkpt lat="39.029664164409041" lon="-108.60761088319123">
        <ele>1609</ele>
        <time>2012-05-18T19:47:06Z</time>
      </trkpt>
      <trkpt lat="39.029530556872487" lon="-108.60770660452545">
        <ele>1609.5999755859375</ele>
        <time>2012-05-18T19:47:11Z</time>
      </trkpt>
      <trkpt lat="39.029443636536598" lon="-108.60780593007803">
        <ele>1608.800048828125</ele>
        <time>2012-05-18T19:47:14Z</time>
      </trkpt>
      <trkpt lat="39.029424358159304" lon="-108.60784381628036">
        <ele>1608.199951171875</ele>
        <time>2012-05-18T19:47:15Z</time>
      </trkpt>
      <trkpt lat="39.029383370652795" lon="-108.60791481100023">
        <ele>1607.199951171875</ele>
        <time>2012-05-18T19:47:18Z</time>
      </trkpt>
      <trkpt lat="39.029374904930592" lon="-108.6079472489655">
        <ele>1606.5999755859375</ele>
        <time>2012-05-18T19:47:19Z</time>
      </trkpt>
      <trkpt lat="39.029303658753633" lon="-108.60809627920389">
        <ele>1606.199951171875</ele>
        <time>2012-05-18T19:47:23Z</time>
      </trkpt>
      <trkpt lat="39.02921992354095" lon="-108.60818085260689">
        <ele>1607.4000244140625</ele>
        <time>2012-05-18T19:47:27Z</time>
      </trkpt>
      <trkpt lat="39.029189413413405" lon="-108.60822628252208">
        <ele>1607.199951171875</ele>
        <time>2012-05-18T19:47:29Z</time>
      </trkpt>
      <trkpt lat="39.029159741476178" lon="-108.60828487202525">
        <ele>1606.4000244140625</ele>
        <time>2012-05-18T19:47:31Z</time>
      </trkpt>
      <trkpt lat="39.029108276590705" lon="-108.60836198553443">
        <ele>1606.4000244140625</ele>
        <time>2012-05-18T19:47:35Z</time>
      </trkpt>
      <trkpt lat="39.029070977121592" lon="-108.60843163914979">
        <ele>1606.199951171875</ele>
        <time>2012-05-18T19:47:38Z</time>
      </trkpt>
      <trkpt lat="39.029028816148639" lon="-108.60849617980421">
        <ele>1606.5999755859375</ele>
        <time>2012-05-18T19:47:40Z</time>
      </trkpt>
      <trkpt lat="39.028972322121263" lon="-108.60857354477048">
        <ele>1606.199951171875</ele>
        <time>2012-05-18T19:47:44Z</time>
      </trkpt>
      <trkpt lat="39.028915660455823" lon="-108.6086758878082">
        <ele>1605.4000244140625</ele>
        <time>2012-05-18T19:47:49Z</time>
      </trkpt>
      <trkpt lat="39.028866039589047" lon="-108.60882676206529">
        <ele>1606.800048828125</ele>
        <time>2012-05-18T19:47:55Z</time>
      </trkpt>
      <trkpt lat="39.02889889664948" lon="-108.60887956805527">
        <ele>1606</ele>
        <time>2012-05-18T19:47:59Z</time>
      </trkpt>
      <trkpt lat="39.028933513909578" lon="-108.6089298594743">
        <ele>1605.199951171875</ele>
        <time>2012-05-18T19:48:04Z</time>
      </trkpt>
      <trkpt lat="39.028984727337956" lon="-108.60892575234175">
        <ele>1602.800048828125</ele>
        <time>2012-05-18T19:48:10Z</time>
      </trkpt>
      <trkpt lat="39.029032252728939" lon="-108.60894243232906">
        <ele>1601.4000244140625</ele>
        <time>2012-05-18T19:48:15Z</time>
      </trkpt>
      <trkpt lat="39.029085729271173" lon="-108.60891938209534">
        <ele>1601.199951171875</ele>
        <time>2012-05-18T19:48:19Z</time>
      </trkpt>
      <trkpt lat="39.029143899679184" lon="-108.60888635739684">
        <ele>1600.4000244140625</ele>
        <time>2012-05-18T19:48:21Z</time>
      </trkpt>
      <trkpt lat="39.02921992354095" lon="-108.60888417810202">
        <ele>1600.5999755859375</ele>
        <time>2012-05-18T19:48:24Z</time>
      </trkpt>
      <trkpt lat="39.029260156676173" lon="-108.6088833399117">
        <ele>1600.5999755859375</ele>
        <time>2012-05-18T19:48:28Z</time>
      </trkpt>
      <trkpt lat="39.029266191646457" lon="-108.60887780785561">
        <ele>1600.4000244140625</ele>
        <time>2012-05-18T19:52:59Z</time>
      </trkpt>
      <trkpt lat="39.029327044263482" lon="-108.60884252004325">
        <ele>1598.4000244140625</ele>
        <time>2012-05-18T19:55:29Z</time>
      </trkpt>
      <trkpt lat="39.029320841655135" lon="-108.60883179120719">
        <ele>1597.5999755859375</ele>
        <time>2012-05-18T19:55:35Z</time>
      </trkpt>
      <trkpt lat="39.029339617118239" lon="-108.60879356972873">
        <ele>1595.4000244140625</ele>
        <time>2012-05-18T19:55:44Z</time>
      </trkpt>
      <trkpt lat="39.029355207458138" lon="-108.60878116451204">
        <ele>1594.800048828125</ele>
        <time>2012-05-18T19:55:50Z</time>
      </trkpt>
      <trkpt lat="39.029301563277841" lon="-108.60877613537014">
        <ele>1593.800048828125</ele>
        <time>2012-05-18T19:55:57Z</time>
      </trkpt>
      <trkpt lat="39.029254876077175" lon="-108.60874906182289">
        <ele>1593</ele>
        <time>2012-05-18T19:56:04Z</time>
      </trkpt>
      <trkpt lat="39.029303742572665" lon="-108.60874244011939">
        <ele>1592.199951171875</ele>
        <time>2012-05-18T19:56:11Z</time>
      </trkpt>
      <trkpt lat="39.029390914365649" lon="-108.60871620476246">
        <ele>1592.800048828125</ele>
        <time>2012-05-18T19:56:15Z</time>
      </trkpt>
      <trkpt lat="39.029562408104539" lon="-108.60863003879786">
        <ele>1590.4000244140625</ele>
        <time>2012-05-18T19:56:21Z</time>
      </trkpt>
      <trkpt lat="39.029655447229743" lon="-108.60858594998717">
        <ele>1588.4000244140625</ele>
        <time>2012-05-18T19:56:25Z</time>
      </trkpt>
      <trkpt lat="39.0296939201653" lon="-108.60858687199652">
        <ele>1588.4000244140625</ele>
        <time>2012-05-18T19:56:26Z</time>
      </trkpt>
      <trkpt lat="39.029744463041425" lon="-108.60858544707298">
        <ele>1588.4000244140625</ele>
        <time>2012-05-18T19:56:29Z</time>
      </trkpt>
      <trkpt lat="39.029782516881824" lon="-108.60860447399318">
        <ele>1589.4000244140625</ele>
        <time>2012-05-18T19:56:35Z</time>
      </trkpt>
      <trkpt lat="39.029885027557611" lon="-108.60860053449869">
        <ele>1589.199951171875</ele>
        <time>2012-05-18T19:56:41Z</time>
      </trkpt>
      <trkpt lat="39.02993330731988" lon="-108.60859399661422">
        <ele>1588.5999755859375</ele>
        <time>2012-05-18T19:56:44Z</time>
      </trkpt>
      <trkpt lat="39.029958620667458" lon="-108.60859944485128">
        <ele>1588.5999755859375</ele>
        <time>2012-05-18T19:56:45Z</time>
      </trkpt>
      <trkpt lat="39.030080577358603" lon="-108.60859097912908">
        <ele>1587.5999755859375</ele>
        <time>2012-05-18T19:56:50Z</time>
      </trkpt>
      <trkpt lat="39.030190715566278" lon="-108.60862283036113">
        <ele>1588</ele>
        <time>2012-05-18T19:56:54Z</time>
      </trkpt>
      <trkpt lat="39.030286353081465" lon="-108.60861545428634">
        <ele>1586.5999755859375</ele>
        <time>2012-05-18T19:56:58Z</time>
      </trkpt>
      <trkpt lat="39.030298423022032" lon="-108.60862827859819">
        <ele>1587</ele>
        <time>2012-05-18T19:56:59Z</time>
      </trkpt>
      <trkpt lat="39.030393306165934" lon="-108.6086240876466">
        <ele>1585.5999755859375</ele>
        <time>2012-05-18T19:57:03Z</time>
      </trkpt>
      <trkpt lat="39.030497577041388" lon="-108.60863984562457">
        <ele>1585.5999755859375</ele>
        <time>2012-05-18T19:57:05Z</time>
      </trkpt>
      <trkpt lat="39.030595980584621" lon="-108.60866356641054">
        <ele>1585.5999755859375</ele>
        <time>2012-05-18T19:57:07Z</time>
      </trkpt>
      <trkpt lat="39.030791698023677" lon="-108.60869851894677">
        <ele>1585.4000244140625</ele>
        <time>2012-05-18T19:57:11Z</time>
      </trkpt>
      <trkpt lat="39.030950535088778" lon="-108.60879658721387">
        <ele>1586</ele>
        <time>2012-05-18T19:57:15Z</time>
      </trkpt>
      <trkpt lat="39.030985068529844" lon="-108.60882818698883">
        <ele>1586.199951171875</ele>
        <time>2012-05-18T19:57:16Z</time>
      </trkpt>
      <trkpt lat="39.031055979430676" lon="-108.60888090915978">
        <ele>1586.199951171875</ele>
        <time>2012-05-18T19:57:18Z</time>
      </trkpt>
      <trkpt lat="39.031094536185265" lon="-108.60888987779617">
        <ele>1585.800048828125</ele>
        <time>2012-05-18T19:57:19Z</time>
      </trkpt>
      <trkpt lat="39.031145414337516" lon="-108.60887705348432">
        <ele>1585</ele>
        <time>2012-05-18T19:57:22Z</time>
      </trkpt>
      <trkpt lat="39.03113485313952" lon="-108.6088645644486">
        <ele>1585</ele>
        <time>2012-05-18T19:57:33Z</time>
      </trkpt>
      <trkpt lat="39.031112557277083" lon="-108.60885987058282">
        <ele>1585.199951171875</ele>
        <time>2012-05-18T19:58:05Z</time>
      </trkpt>
      <trkpt lat="39.031159998849034" lon="-108.60887244343758">
        <ele>1584.800048828125</ele>
        <time>2012-05-18T19:59:01Z</time>
      </trkpt>
      <trkpt lat="39.031181875616312" lon="-108.60888962633908">
        <ele>1584.5999755859375</ele>
        <time>2012-05-18T19:59:02Z</time>
      </trkpt>
      <trkpt lat="39.03129268437624" lon="-108.60905374400318">
        <ele>1584</ele>
        <time>2012-05-18T19:59:06Z</time>
      </trkpt>
      <trkpt lat="39.031466608867049" lon="-108.60927460715175">
        <ele>1580</ele>
        <time>2012-05-18T19:59:10Z</time>
      </trkpt>
      <trkpt lat="39.031612034887075" lon="-108.60936412587762">
        <ele>1578.199951171875</ele>
        <time>2012-05-18T19:59:13Z</time>
      </trkpt>
      <trkpt lat="39.031728459522128" lon="-108.60958775505424">
        <ele>1576.4000244140625</ele>
        <time>2012-05-18T19:59:16Z</time>
      </trkpt>
      <trkpt lat="39.031785372644663" lon="-108.60964802093804">
        <ele>1576.5999755859375</ele>
        <time>2012-05-18T19:59:17Z</time>
      </trkpt>
      <trkpt lat="39.031851086765528" lon="-108.60974550247192">
        <ele>1578.5999755859375</ele>
        <time>2012-05-18T19:59:19Z</time>
      </trkpt>
      <trkpt lat="39.031901294365525" lon="-108.60985086299479">
        <ele>1581.5999755859375</ele>
        <time>2012-05-18T19:59:21Z</time>
      </trkpt>
      <trkpt lat="39.031925685703754" lon="-108.60992428846657">
        <ele>1582.800048828125</ele>
        <time>2012-05-18T19:59:23Z</time>
      </trkpt>
      <trkpt lat="39.031962398439646" lon="-108.60994792543352">
        <ele>1583.199951171875</ele>
        <time>2012-05-18T19:59:25Z</time>
      </trkpt>
      <trkpt lat="39.03200170956552" lon="-108.60994943417609">
        <ele>1583.199951171875</ele>
        <time>2012-05-18T19:59:27Z</time>
      </trkpt>
      <trkpt lat="39.032098855823278" lon="-108.60995454713702">
        <ele>1583.5999755859375</ele>
        <time>2012-05-18T19:59:30Z</time>
      </trkpt>
      <trkpt lat="39.032203042879701" lon="-108.60989034175873">
        <ele>1584.199951171875</ele>
        <time>2012-05-18T19:59:34Z</time>
      </trkpt>
      <trkpt lat="39.032319970428944" lon="-108.60986351966858">
        <ele>1585.4000244140625</ele>
        <time>2012-05-18T19:59:38Z</time>
      </trkpt>
      <trkpt lat="39.032373949885368" lon="-108.60998203977942">
        <ele>1585.4000244140625</ele>
        <time>2012-05-18T19:59:41Z</time>
      </trkpt>
      <trkpt lat="39.032382499426603" lon="-108.61002780497074">
        <ele>1585.199951171875</ele>
        <time>2012-05-18T19:59:42Z</time>
      </trkpt>
      <trkpt lat="39.032482327893376" lon="-108.61020675860345">
        <ele>1584.4000244140625</ele>
        <time>2012-05-18T19:59:47Z</time>
      </trkpt>
      <trkpt lat="39.032714171335101" lon="-108.61043055541813">
        <ele>1583.5999755859375</ele>
        <time>2012-05-18T19:59:55Z</time>
      </trkpt>
      <trkpt lat="39.032786171883345" lon="-108.61059769056737">
        <ele>1584</ele>
        <time>2012-05-18T20:00:00Z</time>
      </trkpt>
      <trkpt lat="39.032789273187518" lon="-108.61062300391495">
        <ele>1584.199951171875</ele>
        <time>2012-05-18T20:00:04Z</time>
      </trkpt>
      <trkpt lat="39.032819699496031" lon="-108.61065460368991">
        <ele>1584.199951171875</ele>
        <time>2012-05-18T20:00:23Z</time>
      </trkpt>
      <trkpt lat="39.032828249037266" lon="-108.61064521595836">
        <ele>1584.199951171875</ele>
        <time>2012-05-18T20:00:28Z</time>
      </trkpt>
      <trkpt lat="39.032870242372155" lon="-108.61057765781879">
        <ele>1583.5999755859375</ele>
        <time>2012-05-18T20:00:41Z</time>
      </trkpt>
      <trkpt lat="39.032915504649282" lon="-108.61052736639977">
        <ele>1583.199951171875</ele>
        <time>2012-05-18T20:00:45Z</time>
      </trkpt>
      <trkpt lat="39.032938638702035" lon="-108.61053105443716">
        <ele>1583</ele>
        <time>2012-05-18T20:00:47Z</time>
      </trkpt>
      <trkpt lat="39.032935872673988" lon="-108.61053583212197">
        <ele>1583</ele>
        <time>2012-05-18T20:00:53Z</time>
      </trkpt>
      <trkpt lat="39.032966215163469" lon="-108.61054262146354">
        <ele>1582.800048828125</ele>
        <time>2012-05-18T20:01:07Z</time>
      </trkpt>
      <trkpt lat="39.03298825956881" lon="-108.61056223511696">
        <ele>1582.5999755859375</ele>
        <time>2012-05-18T20:01:08Z</time>
      </trkpt>
      <trkpt lat="39.033149778842926" lon="-108.61065460368991">
        <ele>1580.800048828125</ele>
        <time>2012-05-18T20:01:12Z</time>
      </trkpt>
      <trkpt lat="39.033308532088995" lon="-108.61057799309492">
        <ele>1580</ele>
        <time>2012-05-18T20:01:15Z</time>
      </trkpt>
      <trkpt lat="39.033337868750095" lon="-108.61051412299275">
        <ele>1579.5999755859375</ele>
        <time>2012-05-18T20:01:16Z</time>
      </trkpt>
      <trkpt lat="39.033401235938072" lon="-108.61039937473834">
        <ele>1578.5999755859375</ele>
        <time>2012-05-18T20:01:18Z</time>
      </trkpt>
      <trkpt lat="39.033454963937402" lon="-108.61031203530729">
        <ele>1576.800048828125</ele>
        <time>2012-05-18T20:01:20Z</time>
      </trkpt>
      <trkpt lat="39.033520761877298" lon="-108.61022419296205">
        <ele>1574.800048828125</ele>
        <time>2012-05-18T20:01:22Z</time>
      </trkpt>
      <trkpt lat="39.033641293644905" lon="-108.61005152575672">
        <ele>1573.4000244140625</ele>
        <time>2012-05-18T20:01:26Z</time>
      </trkpt>
      <trkpt lat="39.033667529001832" lon="-108.6100403778255">
        <ele>1573.199951171875</ele>
        <time>2012-05-18T20:01:29Z</time>
      </trkpt>
      <trkpt lat="39.033720251172781" lon="-108.61004280857742">
        <ele>1573.199951171875</ele>
        <time>2012-05-18T20:01:56Z</time>
      </trkpt>
      <trkpt lat="39.03377247042954" lon="-108.6100797727704">
        <ele>1573.199951171875</ele>
        <time>2012-05-18T20:02:00Z</time>
      </trkpt>
      <trkpt lat="39.033765010535717" lon="-108.61007650382817">
        <ele>1573.199951171875</ele>
        <time>2012-05-18T20:02:18Z</time>
      </trkpt>
      <trkpt lat="39.033832736313343" lon="-108.61004138365388">
        <ele>1572.5999755859375</ele>
        <time>2012-05-18T20:02:30Z</time>
      </trkpt>
      <trkpt lat="39.034007834270597" lon="-108.60988464206457">
        <ele>1571.800048828125</ele>
        <time>2012-05-18T20:02:35Z</time>
      </trkpt>
      <trkpt lat="39.034110931679606" lon="-108.60974407754838">
        <ele>1570.4000244140625</ele>
        <time>2012-05-18T20:02:39Z</time>
      </trkpt>
      <trkpt lat="39.034228445962071" lon="-108.60974768176675">
        <ele>1570.5999755859375</ele>
        <time>2012-05-18T20:02:42Z</time>
      </trkpt>
      <trkpt lat="39.034347720444202" lon="-108.60966553911567">
        <ele>1568.800048828125</ele>
        <time>2012-05-18T20:02:45Z</time>
      </trkpt>
      <trkpt lat="39.034456852823496" lon="-108.60953922383487">
        <ele>1565.4000244140625</ele>
        <time>2012-05-18T20:02:48Z</time>
      </trkpt>
      <trkpt lat="39.034530781209469" lon="-108.60935607925057">
        <ele>1562.4000244140625</ele>
        <time>2012-05-18T20:02:52Z</time>
      </trkpt>
      <trkpt lat="39.034683834761381" lon="-108.60917335376143">
        <ele>1559.199951171875</ele>
        <time>2012-05-18T20:02:56Z</time>
      </trkpt>
      <trkpt lat="39.034767402336001" lon="-108.60910847783089">
        <ele>1558.5999755859375</ele>
        <time>2012-05-18T20:02:58Z</time>
      </trkpt>
      <trkpt lat="39.034858932718635" lon="-108.60904645174742">
        <ele>1559</ele>
        <time>2012-05-18T20:03:00Z</time>
      </trkpt>
      <trkpt lat="39.034981727600098" lon="-108.60898040235043">
        <ele>1556.199951171875</ele>
        <time>2012-05-18T20:03:03Z</time>
      </trkpt>
      <trkpt lat="39.034988014027476" lon="-108.60897026024759">
        <ele>1556</ele>
        <time>2012-05-18T20:03:05Z</time>
      </trkpt>
      <trkpt lat="39.03498818166554" lon="-108.60897126607597">
        <ele>1556</ele>
        <time>2012-05-18T20:03:06Z</time>
      </trkpt>
      <trkpt lat="39.035009471699595" lon="-108.60890328884125">
        <ele>1555</ele>
        <time>2012-05-18T20:03:13Z</time>
      </trkpt>
      <trkpt lat="39.035085160285234" lon="-108.60890278592706">
        <ele>1554.199951171875</ele>
        <time>2012-05-18T20:03:16Z</time>
      </trkpt>
      <trkpt lat="39.035117011517286" lon="-108.6088952422142">
        <ele>1553.800048828125</ele>
        <time>2012-05-18T20:03:18Z</time>
      </trkpt>
      <trkpt lat="39.035145258530974" lon="-108.60888585448265">
        <ele>1553.4000244140625</ele>
        <time>2012-05-18T20:03:20Z</time>
      </trkpt>
      <trkpt lat="39.03521784581244" lon="-108.6088830884546">
        <ele>1551.800048828125</ele>
        <time>2012-05-18T20:03:25Z</time>
      </trkpt>
      <trkpt lat="39.035260761156678" lon="-108.60887780785561">
        <ele>1551</ele>
        <time>2012-05-18T20:03:29Z</time>
      </trkpt>
      <trkpt lat="39.035276100039482" lon="-108.60887294635177">
        <ele>1550.5999755859375</ele>
        <time>2012-05-18T20:03:34Z</time>
      </trkpt>
      <trkpt lat="39.035298228263855" lon="-108.60884645953774">
        <ele>1550.199951171875</ele>
        <time>2012-05-18T20:03:39Z</time>
      </trkpt>
      <trkpt lat="39.035335863009095" lon="-108.60880287364125">
        <ele>1549.4000244140625</ele>
        <time>2012-05-18T20:03:45Z</time>
      </trkpt>
      <trkpt lat="39.035373916849494" lon="-108.60874721780419">
        <ele>1548.5999755859375</ele>
        <time>2012-05-18T20:03:51Z</time>
      </trkpt>
      <trkpt lat="39.035383556038141" lon="-108.6087332200259">
        <ele>1548.5999755859375</ele>
        <time>2012-05-18T20:03:55Z</time>
      </trkpt>
      <trkpt lat="39.035403756424785" lon="-108.60871871933341">
        <ele>1548.4000244140625</ele>
        <time>2012-05-18T20:04:07Z</time>
      </trkpt>
      <trkpt lat="39.035420687869191" lon="-108.60869944095612">
        <ele>1548.199951171875</ele>
        <time>2012-05-18T20:04:13Z</time>
      </trkpt>
      <trkpt lat="39.035430662333965" lon="-108.60867052339017">
        <ele>1548.199951171875</ele>
        <time>2012-05-18T20:04:18Z</time>
      </trkpt>
      <trkpt lat="39.035484055057168" lon="-108.60866876319051">
        <ele>1547</ele>
        <time>2012-05-18T20:04:25Z</time>
      </trkpt>
      <trkpt lat="39.035537615418434" lon="-108.60865727998316">
        <ele>1546</ele>
        <time>2012-05-18T20:04:31Z</time>
      </trkpt>
      <trkpt lat="39.035552870482206" lon="-108.60865225084126">
        <ele>1545.5999755859375</ele>
        <time>2012-05-18T20:04:32Z</time>
      </trkpt>
      <trkpt lat="39.035662170499563" lon="-108.60868980176747">
        <ele>1542.800048828125</ele>
        <time>2012-05-18T20:04:37Z</time>
      </trkpt>
      <trkpt lat="39.035729058086872" lon="-108.60866180621088">
        <ele>1541.4000244140625</ele>
        <time>2012-05-18T20:04:40Z</time>
      </trkpt>
      <trkpt lat="39.035749426111579" lon="-108.60864143818617">
        <ele>1541.199951171875</ele>
        <time>2012-05-18T20:04:41Z</time>
      </trkpt>
      <trkpt lat="39.03577096760273" lon="-108.60863699577749">
        <ele>1540.800048828125</ele>
        <time>2012-05-18T20:04:42Z</time>
      </trkpt>
      <trkpt lat="39.03581790626049" lon="-108.60863272100687">
        <ele>1539.800048828125</ele>
        <time>2012-05-18T20:04:44Z</time>
      </trkpt>
      <trkpt lat="39.035931816324592" lon="-108.60858418978751">
        <ele>1537.5999755859375</ele>
        <time>2012-05-18T20:04:48Z</time>
      </trkpt>
      <trkpt lat="39.036079673096538" lon="-108.60863414593041">
        <ele>1534.199951171875</ele>
        <time>2012-05-18T20:04:51Z</time>
      </trkpt>
      <trkpt lat="39.036128791049123" lon="-108.60862802714109">
        <ele>1533.4000244140625</ele>
        <time>2012-05-18T20:04:52Z</time>
      </trkpt>
      <trkpt lat="39.036219650879502" lon="-108.60866314731538">
        <ele>1531.199951171875</ele>
        <time>2012-05-18T20:04:55Z</time>
      </trkpt>
      <trkpt lat="39.03622685931623" lon="-108.60867094248533">
        <ele>1531</ele>
        <time>2012-05-18T20:05:00Z</time>
      </trkpt>
      <trkpt lat="39.036237420514226" lon="-108.60867169685662">
        <ele>1530.800048828125</ele>
        <time>2012-05-18T20:05:07Z</time>
      </trkpt>
      <trkpt lat="39.036256866529584" lon="-108.60866859555244">
        <ele>1530.5999755859375</ele>
        <time>2012-05-18T20:05:10Z</time>
      </trkpt>
      <trkpt lat="39.036319898441434" lon="-108.60861361026764">
        <ele>1530.199951171875</ele>
        <time>2012-05-18T20:05:39Z</time>
      </trkpt>
      <trkpt lat="39.036485441029072" lon="-108.60851135104895">
        <ele>1528.5999755859375</ele>
        <time>2012-05-18T20:05:43Z</time>
      </trkpt>
      <trkpt lat="39.036670848727226" lon="-108.60842493362725">
        <ele>1526.199951171875</ele>
        <time>2012-05-18T20:05:47Z</time>
      </trkpt>
      <trkpt lat="39.036712842062116" lon="-108.60840288922191">
        <ele>1525.5999755859375</ele>
        <time>2012-05-18T20:05:48Z</time>
      </trkpt>
      <trkpt lat="39.036811497062445" lon="-108.60830515623093">
        <ele>1524.800048828125</ele>
        <time>2012-05-18T20:05:51Z</time>
      </trkpt>
      <trkpt lat="39.036886431276798" lon="-108.60820256173611">
        <ele>1524.4000244140625</ele>
        <time>2012-05-18T20:05:55Z</time>
      </trkpt>
      <trkpt lat="39.036902105435729" lon="-108.60811731778085">
        <ele>1525.199951171875</ele>
        <time>2012-05-18T20:05:58Z</time>
      </trkpt>
      <trkpt lat="39.036921132355928" lon="-108.60810298472643">
        <ele>1525</ele>
        <time>2012-05-18T20:05:59Z</time>
      </trkpt>
      <trkpt lat="39.036997659131885" lon="-108.60808521509171">
        <ele>1523.800048828125</ele>
        <time>2012-05-18T20:06:02Z</time>
      </trkpt>
      <trkpt lat="39.037027414888144" lon="-108.60807649791241">
        <ele>1523.199951171875</ele>
        <time>2012-05-18T20:06:03Z</time>
      </trkpt>
      <trkpt lat="39.037066306918859" lon="-108.60806107521057">
        <ele>1522.800048828125</ele>
        <time>2012-05-18T20:06:05Z</time>
      </trkpt>
      <trkpt lat="39.037082148715854" lon="-108.60804984346032">
        <ele>1522.5999755859375</ele>
        <time>2012-05-18T20:06:06Z</time>
      </trkpt>
      <trkpt lat="39.037147862836719" lon="-108.60795454122126">
        <ele>1522.4000244140625</ele>
        <time>2012-05-18T20:06:10Z</time>
      </trkpt>
      <trkpt lat="39.03712741099298" lon="-108.60779629088938">
        <ele>1523.800048828125</ele>
        <time>2012-05-18T20:06:14Z</time>
      </trkpt>
      <trkpt lat="39.037132691591978" lon="-108.60772169195116">
        <ele>1524</ele>
        <time>2012-05-18T20:06:16Z</time>
      </trkpt>
      <trkpt lat="39.037174265831709" lon="-108.60768958926201">
        <ele>1523.5999755859375</ele>
        <time>2012-05-18T20:06:18Z</time>
      </trkpt>
      <trkpt lat="39.037238722667098" lon="-108.60767969861627">
        <ele>1522.800048828125</ele>
        <time>2012-05-18T20:06:20Z</time>
      </trkpt>
      <trkpt lat="39.03732237406075" lon="-108.60763443633914">
        <ele>1522</ele>
        <time>2012-05-18T20:06:22Z</time>
      </trkpt>
      <trkpt lat="39.037370905280113" lon="-108.60756847076118">
        <ele>1522</ele>
        <time>2012-05-18T20:06:24Z</time>
      </trkpt>
      <trkpt lat="39.037378029897809" lon="-108.60753712244332">
        <ele>1522.199951171875</ele>
        <time>2012-05-18T20:06:25Z</time>
      </trkpt>
      <trkpt lat="39.037419185042381" lon="-108.60748859122396">
        <ele>1522.800048828125</ele>
        <time>2012-05-18T20:06:28Z</time>
      </trkpt>
      <trkpt lat="39.037468051537871" lon="-108.60755413770676">
        <ele>1522</ele>
        <time>2012-05-18T20:06:32Z</time>
      </trkpt>
      <trkpt lat="39.037537537515163" lon="-108.60757743939757">
        <ele>1521.5999755859375</ele>
        <time>2012-05-18T20:06:36Z</time>
      </trkpt>
      <trkpt lat="39.037605430930853" lon="-108.60763275995851">
        <ele>1520</ele>
        <time>2012-05-18T20:06:39Z</time>
      </trkpt>
      <trkpt lat="39.037609957158566" lon="-108.6077625118196">
        <ele>1517.800048828125</ele>
        <time>2012-05-18T20:06:41Z</time>
      </trkpt>
      <trkpt lat="39.037613477557898" lon="-108.60785471275449">
        <ele>1516.4000244140625</ele>
        <time>2012-05-18T20:06:42Z</time>
      </trkpt>
      <trkpt lat="39.037636360153556" lon="-108.60811673104763">
        <ele>1515</ele>
        <time>2012-05-18T20:06:45Z</time>
      </trkpt>
      <trkpt lat="39.037764435634017" lon="-108.60828587785363">
        <ele>1513.199951171875</ele>
        <time>2012-05-18T20:06:49Z</time>
      </trkpt>
      <trkpt lat="39.037786731496453" lon="-108.60830674879253">
        <ele>1513</ele>
        <time>2012-05-18T20:06:52Z</time>
      </trkpt>
      <trkpt lat="39.037833837792277" lon="-108.60832837410271">
        <ele>1512.5999755859375</ele>
        <time>2012-05-18T20:07:35Z</time>
      </trkpt>
      <trkpt lat="39.037961913272738" lon="-108.60842769965529">
        <ele>1511.800048828125</ele>
        <time>2012-05-18T20:07:39Z</time>
      </trkpt>
      <trkpt lat="39.038192080333829" lon="-108.60852518118918">
        <ele>1508</ele>
        <time>2012-05-18T20:07:43Z</time>
      </trkpt>
      <trkpt lat="39.038368603214622" lon="-108.60855686478317">
        <ele>1506</ele>
        <time>2012-05-18T20:07:46Z</time>
      </trkpt>
      <trkpt lat="39.03843255713582" lon="-108.60859709791839">
        <ele>1504.5999755859375</ele>
        <time>2012-05-18T20:07:48Z</time>
      </trkpt>
      <trkpt lat="39.038516711443663" lon="-108.60864437185228">
        <ele>1502.4000244140625</ele>
        <time>2012-05-18T20:07:50Z</time>
      </trkpt>
      <trkpt lat="39.038608828559518" lon="-108.60866985283792">
        <ele>1501.199951171875</ele>
        <time>2012-05-18T20:07:53Z</time>
      </trkpt>
      <trkpt lat="39.038722487166524" lon="-108.60877077095211">
        <ele>1500.800048828125</ele>
        <time>2012-05-18T20:07:57Z</time>
      </trkpt>
      <trkpt lat="39.038843773305416" lon="-108.60890789888799">
        <ele>1501.800048828125</ele>
        <time>2012-05-18T20:08:00Z</time>
      </trkpt>
      <trkpt lat="39.038867997005582" lon="-108.60894494690001">
        <ele>1502</ele>
        <time>2012-05-18T20:08:01Z</time>
      </trkpt>
      <trkpt lat="39.038956928998232" lon="-108.60914225690067">
        <ele>1503</ele>
        <time>2012-05-18T20:08:06Z</time>
      </trkpt>
      <trkpt lat="39.038998251780868" lon="-108.60920713283122">
        <ele>1503</ele>
        <time>2012-05-18T20:08:09Z</time>
      </trkpt>
      <trkpt lat="39.039108641445637" lon="-108.609309643507">
        <ele>1501.800048828125</ele>
        <time>2012-05-18T20:08:14Z</time>
      </trkpt>
      <trkpt lat="39.039210984483361" lon="-108.60935549251735">
        <ele>1499.5999755859375</ele>
        <time>2012-05-18T20:08:16Z</time>
      </trkpt>
      <trkpt lat="39.039251385256648" lon="-108.60934920608997">
        <ele>1499</ele>
        <time>2012-05-18T20:08:17Z</time>
      </trkpt>
      <trkpt lat="39.039295306429267" lon="-108.60933914780617">
        <ele>1498.4000244140625</ele>
        <time>2012-05-18T20:08:19Z</time>
      </trkpt>
      <trkpt lat="39.03931693173945" lon="-108.60934040509164">
        <ele>1498</ele>
        <time>2012-05-18T20:08:20Z</time>
      </trkpt>
      <trkpt lat="39.039417933672667" lon="-108.60931986942887">
        <ele>1497.199951171875</ele>
        <time>2012-05-18T20:08:23Z</time>
      </trkpt>
      <trkpt lat="39.039484653621912" lon="-108.60917611978948">
        <ele>1495</ele>
        <time>2012-05-18T20:08:26Z</time>
      </trkpt>
      <trkpt lat="39.039517929777503" lon="-108.60902365297079">
        <ele>1492.4000244140625</ele>
        <time>2012-05-18T20:08:28Z</time>
      </trkpt>
      <trkpt lat="39.039533101022243" lon="-108.60892918892205">
        <ele>1491</ele>
        <time>2012-05-18T20:08:29Z</time>
      </trkpt>
      <trkpt lat="39.039493706077337" lon="-108.60864085145295">
        <ele>1488.5999755859375</ele>
        <time>2012-05-18T20:08:32Z</time>
      </trkpt>
      <trkpt lat="39.039545422419906" lon="-108.60847874544561">
        <ele>1487.4000244140625</ele>
        <time>2012-05-18T20:08:35Z</time>
      </trkpt>
      <trkpt lat="39.039691183716059" lon="-108.60839685425162">
        <ele>1485.800048828125</ele>
        <time>2012-05-18T20:08:39Z</time>
      </trkpt>
      <trkpt lat="39.039756646379828" lon="-108.60829434357584">
        <ele>1485.800048828125</ele>
        <time>2012-05-18T20:08:41Z</time>
      </trkpt>
      <trkpt lat="39.039816744625568" lon="-108.60818965360522">
        <ele>1485.800048828125</ele>
        <time>2012-05-18T20:08:43Z</time>
      </trkpt>
      <trkpt lat="39.039853205904365" lon="-108.60815168358386">
        <ele>1484.4000244140625</ele>
        <time>2012-05-18T20:08:44Z</time>
      </trkpt>
      <trkpt lat="39.039949765428901" lon="-108.60809468664229">
        <ele>1480.199951171875</ele>
        <time>2012-05-18T20:08:46Z</time>
      </trkpt>
      <trkpt lat="39.040114553645253" lon="-108.60800759866834">
        <ele>1476.800048828125</ele>
        <time>2012-05-18T20:08:49Z</time>
      </trkpt>
      <trkpt lat="39.040150595828891" lon="-108.60798220150173">
        <ele>1476.5999755859375</ele>
        <time>2012-05-18T20:08:50Z</time>
      </trkpt>
      <trkpt lat="39.040242210030556" lon="-108.60791179351509">
        <ele>1475.4000244140625</ele>
        <time>2012-05-18T20:08:53Z</time>
      </trkpt>
      <trkpt lat="39.040315970778465" lon="-108.60786368139088">
        <ele>1472</ele>
        <time>2012-05-18T20:08:55Z</time>
      </trkpt>
      <trkpt lat="39.04041051864624" lon="-108.60778464004397">
        <ele>1469</ele>
        <time>2012-05-18T20:08:59Z</time>
      </trkpt>
      <trkpt lat="39.040516465902328" lon="-108.60780919902027">
        <ele>1465.5999755859375</ele>
        <time>2012-05-18T20:09:03Z</time>
      </trkpt>
      <trkpt lat="39.040642194449902" lon="-108.6077226139605">
        <ele>1463</ele>
        <time>2012-05-18T20:09:06Z</time>
      </trkpt>
      <trkpt lat="39.040826177224517" lon="-108.60767198726535">
        <ele>1459.800048828125</ele>
        <time>2012-05-18T20:09:09Z</time>
      </trkpt>
      <trkpt lat="39.040950145572424" lon="-108.60761431977153">
        <ele>1456.800048828125</ele>
        <time>2012-05-18T20:09:12Z</time>
      </trkpt>
      <trkpt lat="39.040959952399135" lon="-108.60752773471177">
        <ele>1455.5999755859375</ele>
        <time>2012-05-18T20:09:14Z</time>
      </trkpt>
      <trkpt lat="39.040972944349051" lon="-108.60746512189507">
        <ele>1454.800048828125</ele>
        <time>2012-05-18T20:09:15Z</time>
      </trkpt>
      <trkpt lat="39.041060535237193" lon="-108.60723956488073">
        <ele>1453.5999755859375</ele>
        <time>2012-05-18T20:09:18Z</time>
      </trkpt>
      <trkpt lat="39.041077047586441" lon="-108.60717494040728">
        <ele>1453.4000244140625</ele>
        <time>2012-05-18T20:09:19Z</time>
      </trkpt>
      <trkpt lat="39.041080232709646" lon="-108.60707938671112">
        <ele>1453.199951171875</ele>
        <time>2012-05-18T20:09:21Z</time>
      </trkpt>
      <trkpt lat="39.0411361400038" lon="-108.60690789297223">
        <ele>1455</ele>
        <time>2012-05-18T20:09:25Z</time>
      </trkpt>
      <trkpt lat="39.041280141100287" lon="-108.60674360767007">
        <ele>1454</ele>
        <time>2012-05-18T20:09:30Z</time>
      </trkpt>
      <trkpt lat="39.041400169953704" lon="-108.60663564875722">
        <ele>1453.800048828125</ele>
        <time>2012-05-18T20:09:34Z</time>
      </trkpt>
      <trkpt lat="39.041554480791092" lon="-108.60652760602534">
        <ele>1451.199951171875</ele>
        <time>2012-05-18T20:09:38Z</time>
      </trkpt>
      <trkpt lat="39.041669480502605" lon="-108.60641260631382">
        <ele>1453.5999755859375</ele>
        <time>2012-05-18T20:09:42Z</time>
      </trkpt>
      <trkpt lat="39.04169755987823" lon="-108.60636700876057">
        <ele>1454.199951171875</ele>
        <time>2012-05-18T20:09:43Z</time>
      </trkpt>
      <trkpt lat="39.04175816103816" lon="-108.60626164823771">
        <ele>1455.5999755859375</ele>
        <time>2012-05-18T20:09:45Z</time>
      </trkpt>
      <trkpt lat="39.041779199615121" lon="-108.60621672123671">
        <ele>1455.4000244140625</ele>
        <time>2012-05-18T20:09:46Z</time>
      </trkpt>
      <trkpt lat="39.041820354759693" lon="-108.60617632046342">
        <ele>1454.5999755859375</ele>
        <time>2012-05-18T20:09:49Z</time>
      </trkpt>
      <trkpt lat="39.041831837967038" lon="-108.6061738897115">
        <ele>1454.5999755859375</ele>
        <time>2012-05-18T20:09:50Z</time>
      </trkpt>
      <trkpt lat="39.041874501854181" lon="-108.60617003403604">
        <ele>1454.5999755859375</ele>
        <time>2012-05-18T20:09:54Z</time>
      </trkpt>
      <trkpt lat="39.041889421641827" lon="-108.60618520528078">
        <ele>1454.800048828125</ele>
        <time>2012-05-18T20:09:56Z</time>
      </trkpt>
      <trkpt lat="39.041948514059186" lon="-108.6062582116574">
        <ele>1455.800048828125</ele>
        <time>2012-05-18T20:10:02Z</time>
      </trkpt>
      <trkpt lat="39.041957566514611" lon="-108.60627782531083">
        <ele>1455.5999755859375</ele>
        <time>2012-05-18T20:10:03Z</time>
      </trkpt>
      <trkpt lat="39.041987238451838" lon="-108.60634655691683">
        <ele>1455</ele>
        <time>2012-05-18T20:10:08Z</time>
      </trkpt>
      <trkpt lat="39.041982963681221" lon="-108.60634110867977">
        <ele>1455</ele>
        <time>2012-05-18T20:10:16Z</time>
      </trkpt>
      <trkpt lat="39.042027136310935" lon="-108.60629601404071">
        <ele>1455.4000244140625</ele>
        <time>2012-05-18T20:11:05Z</time>
      </trkpt>
      <trkpt lat="39.042146243155003" lon="-108.60624421387911">
        <ele>1453.5999755859375</ele>
        <time>2012-05-18T20:11:08Z</time>
      </trkpt>
      <trkpt lat="39.042265266180038" lon="-108.60615746118128">
        <ele>1449.199951171875</ele>
        <time>2012-05-18T20:11:11Z</time>
      </trkpt>
      <trkpt lat="39.042407590895891" lon="-108.60603718087077">
        <ele>1445.800048828125</ele>
        <time>2012-05-18T20:11:14Z</time>
      </trkpt>
      <trkpt lat="39.042660975828767" lon="-108.60586803406477">
        <ele>1446</ele>
        <time>2012-05-18T20:11:18Z</time>
      </trkpt>
      <trkpt lat="39.042716296389699" lon="-108.60581615008414">
        <ele>1446</ele>
        <time>2012-05-18T20:11:19Z</time>
      </trkpt>
      <trkpt lat="39.042879324406385" lon="-108.60568572767079">
        <ele>1446</ele>
        <time>2012-05-18T20:11:22Z</time>
      </trkpt>
      <trkpt lat="39.042973956093192" lon="-108.6056868173182">
        <ele>1445.800048828125</ele>
        <time>2012-05-18T20:11:25Z</time>
      </trkpt>
      <trkpt lat="39.043006561696529" lon="-108.60570726916194">
        <ele>1445.5999755859375</ele>
        <time>2012-05-18T20:11:26Z</time>
      </trkpt>
      <trkpt lat="39.043040759861469" lon="-108.60572545789182">
        <ele>1445.5999755859375</ele>
        <time>2012-05-18T20:11:27Z</time>
      </trkpt>
      <trkpt lat="39.04312826693058" lon="-108.60577072016895">
        <ele>1445.4000244140625</ele>
        <time>2012-05-18T20:11:29Z</time>
      </trkpt>
      <trkpt lat="39.043183336034417" lon="-108.60580039210618">
        <ele>1445.199951171875</ele>
        <time>2012-05-18T20:11:30Z</time>
      </trkpt>
      <trkpt lat="39.043293222784996" lon="-108.60585487447679">
        <ele>1444.800048828125</ele>
        <time>2012-05-18T20:11:32Z</time>
      </trkpt>
      <trkpt lat="39.043354578316212" lon="-108.60595235601068">
        <ele>1444.199951171875</ele>
        <time>2012-05-18T20:11:34Z</time>
      </trkpt>
      <trkpt lat="39.043393721804023" lon="-108.60604422166944">
        <ele>1444</ele>
        <time>2012-05-18T20:11:36Z</time>
      </trkpt>
      <trkpt lat="39.043423309922218" lon="-108.60611731186509">
        <ele>1443.800048828125</ele>
        <time>2012-05-18T20:11:38Z</time>
      </trkpt>
      <trkpt lat="39.043452395126224" lon="-108.60619928687811">
        <ele>1443.4000244140625</ele>
        <time>2012-05-18T20:11:42Z</time>
      </trkpt>
      <trkpt lat="39.043463794514537" lon="-108.60626357607543">
        <ele>1443.4000244140625</ele>
        <time>2012-05-18T20:11:47Z</time>
      </trkpt>
      <trkpt lat="39.043453233316541" lon="-108.60626357607543">
        <ele>1443.4000244140625</ele>
        <time>2012-05-18T20:11:53Z</time>
      </trkpt>
      <trkpt lat="39.043461196124554" lon="-108.60618646256626">
        <ele>1443.4000244140625</ele>
        <time>2012-05-18T20:11:58Z</time>
      </trkpt>
      <trkpt lat="39.043448036536574" lon="-108.60602133907378">
        <ele>1443.800048828125</ele>
        <time>2012-05-18T20:12:03Z</time>
      </trkpt>
      <trkpt lat="39.043454825878143" lon="-108.60594732686877">
        <ele>1444.199951171875</ele>
        <time>2012-05-18T20:12:05Z</time>
      </trkpt>
      <trkpt lat="39.04347469098866" lon="-108.60594464465976">
        <ele>1444.199951171875</ele>
        <time>2012-05-18T20:12:06Z</time>
      </trkpt>
      <trkpt lat="39.043570999056101" lon="-108.60604539513588">
        <ele>1444.199951171875</ele>
        <time>2012-05-18T20:12:09Z</time>
      </trkpt>
      <trkpt lat="39.043663870543242" lon="-108.60623817890882">
        <ele>1442.199951171875</ele>
        <time>2012-05-18T20:12:12Z</time>
      </trkpt>
      <trkpt lat="39.043683735653758" lon="-108.6062843631953">
        <ele>1442.199951171875</ele>
        <time>2012-05-18T20:12:13Z</time>
      </trkpt>
      <trkpt lat="39.043736541643739" lon="-108.60635099932551">
        <ele>1442.5999755859375</ele>
        <time>2012-05-18T20:12:15Z</time>
      </trkpt>
      <trkpt lat="39.04380401596427" lon="-108.60638368874788">
        <ele>1442.800048828125</ele>
        <time>2012-05-18T20:12:17Z</time>
      </trkpt>
      <trkpt lat="39.043829832226038" lon="-108.6063985247165">
        <ele>1442.800048828125</ele>
        <time>2012-05-18T20:12:18Z</time>
      </trkpt>
      <trkpt lat="39.043870652094483" lon="-108.60643213614821">
        <ele>1442.4000244140625</ele>
        <time>2012-05-18T20:12:20Z</time>
      </trkpt>
      <trkpt lat="39.043928990140557" lon="-108.60656825825572">
        <ele>1440.800048828125</ele>
        <time>2012-05-18T20:12:24Z</time>
      </trkpt>
      <trkpt lat="39.043939299881458" lon="-108.60659952275455">
        <ele>1440.5999755859375</ele>
        <time>2012-05-18T20:12:25Z</time>
      </trkpt>
      <trkpt lat="39.043976850807667" lon="-108.60664277337492">
        <ele>1439.800048828125</ele>
        <time>2012-05-18T20:12:27Z</time>
      </trkpt>
      <trkpt lat="39.044058239087462" lon="-108.60676028765738">
        <ele>1438.800048828125</ele>
        <time>2012-05-18T20:12:31Z</time>
      </trkpt>
      <trkpt lat="39.044181704521179" lon="-108.606843855232">
        <ele>1440.5999755859375</ele>
        <time>2012-05-18T20:12:34Z</time>
      </trkpt>
      <trkpt lat="39.044219003990293" lon="-108.60686413943768">
        <ele>1441</ele>
        <time>2012-05-18T20:12:35Z</time>
      </trkpt>
      <trkpt lat="39.044298632070422" lon="-108.60690336674452">
        <ele>1441</ele>
        <time>2012-05-18T20:12:39Z</time>
      </trkpt>
      <trkpt lat="39.044495020061731" lon="-108.60695784911513">
        <ele>1440.800048828125</ele>
        <time>2012-05-18T20:12:45Z</time>
      </trkpt>
      <trkpt lat="39.044841360300779" lon="-108.60699674114585">
        <ele>1440.199951171875</ele>
        <time>2012-05-18T20:12:52Z</time>
      </trkpt>
      <trkpt lat="39.045081501826644" lon="-108.60700562596321">
        <ele>1440</ele>
        <time>2012-05-18T20:12:56Z</time>
      </trkpt>
      <trkpt lat="39.045141013339162" lon="-108.60699699260294">
        <ele>1440.199951171875</ele>
        <time>2012-05-18T20:12:57Z</time>
      </trkpt>
      <trkpt lat="39.045305131003261" lon="-108.6069871019572">
        <ele>1439.800048828125</ele>
        <time>2012-05-18T20:13:00Z</time>
      </trkpt>
      <trkpt lat="39.04562464915216" lon="-108.60698509030044">
        <ele>1435.5999755859375</ele>
        <time>2012-05-18T20:13:06Z</time>
      </trkpt>
      <trkpt lat="39.045760184526443" lon="-108.60698408447206">
        <ele>1434.4000244140625</ele>
        <time>2012-05-18T20:13:08Z</time>
      </trkpt>
      <trkpt lat="39.045957745984197" lon="-108.60694091767073">
        <ele>1434.800048828125</ele>
        <time>2012-05-18T20:13:11Z</time>
      </trkpt>
      <trkpt lat="39.046023208647966" lon="-108.60691317357123">
        <ele>1435</ele>
        <time>2012-05-18T20:13:12Z</time>
      </trkpt>
      <trkpt lat="39.046151787042618" lon="-108.6068182066083">
        <ele>1433.5999755859375</ele>
        <time>2012-05-18T20:13:14Z</time>
      </trkpt>
      <trkpt lat="39.046346582472324" lon="-108.60666364431381">
        <ele>1435.800048828125</ele>
        <time>2012-05-18T20:13:17Z</time>
      </trkpt>
      <trkpt lat="39.046495528891683" lon="-108.60661653801799">
        <ele>1435.199951171875</ele>
        <time>2012-05-18T20:13:19Z</time>
      </trkpt>
      <trkpt lat="39.046800713986158" lon="-108.60667873173952">
        <ele>1434.4000244140625</ele>
        <time>2012-05-18T20:13:23Z</time>
      </trkpt>
      <trkpt lat="39.047100031748414" lon="-108.60674067400396">
        <ele>1433.4000244140625</ele>
        <time>2012-05-18T20:13:27Z</time>
      </trkpt>
      <trkpt lat="39.04716968536377" lon="-108.60673631541431">
        <ele>1433.199951171875</ele>
        <time>2012-05-18T20:13:28Z</time>
      </trkpt>
      <trkpt lat="39.047362385317683" lon="-108.60664411447942">
        <ele>1433</ele>
        <time>2012-05-18T20:13:31Z</time>
      </trkpt>
      <trkpt lat="39.047494316473603" lon="-108.6064656637609">
        <ele>1432.5999755859375</ele>
        <time>2012-05-18T20:13:34Z</time>
      </trkpt>
      <trkpt lat="39.047544440254569" lon="-108.60630456358194">
        <ele>1430.4000244140625</ele>
        <time>2012-05-18T20:13:36Z</time>
      </trkpt>
      <trkpt lat="39.04757427982986" lon="-108.60623449087143">
        <ele>1429.4000244140625</ele>
        <time>2012-05-18T20:13:37Z</time>
      </trkpt>
      <trkpt lat="39.047618536278605" lon="-108.60618386417627">
        <ele>1429.199951171875</ele>
        <time>2012-05-18T20:13:38Z</time>
      </trkpt>
      <trkpt lat="39.047823138535023" lon="-108.60606056638062">
        <ele>1428.199951171875</ele>
        <time>2012-05-18T20:13:42Z</time>
      </trkpt>
      <trkpt lat="39.048029752448201" lon="-108.60604665242136">
        <ele>1427.800048828125</ele>
        <time>2012-05-18T20:13:46Z</time>
      </trkpt>
      <trkpt lat="39.048077696934342" lon="-108.60605595633388">
        <ele>1428.199951171875</ele>
        <time>2012-05-18T20:13:47Z</time>
      </trkpt>
      <trkpt lat="39.04820024035871" lon="-108.60612653195858">
        <ele>1429</ele>
        <time>2012-05-18T20:13:50Z</time>
      </trkpt>
      <trkpt lat="39.048242568969727" lon="-108.60614689998329">
        <ele>1429.199951171875</ele>
        <time>2012-05-18T20:13:51Z</time>
      </trkpt>
      <trkpt lat="39.048314820975065" lon="-108.606146145612">
        <ele>1429.5999755859375</ele>
        <time>2012-05-18T20:13:53Z</time>
      </trkpt>
      <trkpt lat="39.048440968617797" lon="-108.60608655028045">
        <ele>1430</ele>
        <time>2012-05-18T20:13:57Z</time>
      </trkpt>
      <trkpt lat="39.048475250601768" lon="-108.60607883892953">
        <ele>1430.199951171875</ele>
        <time>2012-05-18T20:13:58Z</time>
      </trkpt>
      <trkpt lat="39.048759313300252" lon="-108.60598613508046">
        <ele>1431.199951171875</ele>
        <time>2012-05-18T20:14:06Z</time>
      </trkpt>
      <trkpt lat="39.049109173938632" lon="-108.60585177317262">
        <ele>1432</ele>
        <time>2012-05-18T20:14:16Z</time>
      </trkpt>
      <trkpt lat="39.049356775358319" lon="-108.60584439709783">
        <ele>1433.199951171875</ele>
        <time>2012-05-18T20:14:22Z</time>
      </trkpt>
      <trkpt lat="39.049584092572331" lon="-108.60587750561535">
        <ele>1435.199951171875</ele>
        <time>2012-05-18T20:14:28Z</time>
      </trkpt>
      <trkpt lat="39.049781989306211" lon="-108.60578471794724">
        <ele>1436.800048828125</ele>
        <time>2012-05-18T20:14:34Z</time>
      </trkpt>
      <trkpt lat="39.049888858571649" lon="-108.60568405129015">
        <ele>1437.5999755859375</ele>
        <time>2012-05-18T20:14:39Z</time>
      </trkpt>
      <trkpt lat="39.049926577135921" lon="-108.60573526471853">
        <ele>1437.800048828125</ele>
        <time>2012-05-18T20:14:42Z</time>
      </trkpt>
      <trkpt lat="39.049934288486838" lon="-108.60575295053422">
        <ele>1437.800048828125</ele>
        <time>2012-05-18T20:14:44Z</time>
      </trkpt>
      <trkpt lat="39.049934456124902" lon="-108.60575269907713">
        <ele>1437.800048828125</ele>
        <time>2012-05-18T20:14:46Z</time>
      </trkpt>
      <trkpt lat="39.049935210496187" lon="-108.60574934631586">
        <ele>1437.800048828125</ele>
        <time>2012-05-18T20:15:18Z</time>
      </trkpt>
      <trkpt lat="39.049938144162297" lon="-108.60571841709316">
        <ele>1437.800048828125</ele>
        <time>2012-05-18T20:15:28Z</time>
      </trkpt>
      <trkpt lat="39.049943760037422" lon="-108.60571221448481">
        <ele>1437.800048828125</ele>
        <time>2012-05-18T20:15:29Z</time>
      </trkpt>
      <trkpt lat="39.049956249073148" lon="-108.60572260804474">
        <ele>1437.800048828125</ele>
        <time>2012-05-18T20:15:35Z</time>
      </trkpt>
      <trkpt lat="39.049956751987338" lon="-108.60575521364808">
        <ele>1438</ele>
        <time>2012-05-18T20:15:40Z</time>
      </trkpt>
      <trkpt lat="39.04992314055562" lon="-108.60574280843139">
        <ele>1437.800048828125</ele>
        <time>2012-05-18T20:17:37Z</time>
      </trkpt>
      <trkpt lat="39.049913752824068" lon="-108.6057129688561">
        <ele>1437.5999755859375</ele>
        <time>2012-05-18T20:17:43Z</time>
      </trkpt>
      <trkpt lat="39.049928924068809" lon="-108.60573794692755">
        <ele>1437.800048828125</ele>
        <time>2012-05-18T20:17:48Z</time>
      </trkpt>
      <trkpt lat="39.049915345385671" lon="-108.60569234937429">
        <ele>1437.5999755859375</ele>
        <time>2012-05-18T20:17:53Z</time>
      </trkpt>
      <trkpt lat="39.049901347607374" lon="-108.60566971823573">
        <ele>1437.5999755859375</ele>
        <time>2012-05-18T20:17:54Z</time>
      </trkpt>
      <trkpt lat="39.049860611557961" lon="-108.60566653311253">
        <ele>1437.4000244140625</ele>
        <time>2012-05-18T20:17:56Z</time>
      </trkpt>
      <trkpt lat="39.04977310448885" lon="-108.60576233826578">
        <ele>1436.5999755859375</ele>
        <time>2012-05-18T20:18:01Z</time>
      </trkpt>
      <trkpt lat="39.049745108932257" lon="-108.60578102990985">
        <ele>1436.4000244140625</ele>
        <time>2012-05-18T20:18:02Z</time>
      </trkpt>
      <trkpt lat="39.049597419798374" lon="-108.60585353337228">
        <ele>1435.199951171875</ele>
        <time>2012-05-18T20:18:07Z</time>
      </trkpt>
      <trkpt lat="39.049477055668831" lon="-108.60584959387779">
        <ele>1434.199951171875</ele>
        <time>2012-05-18T20:18:12Z</time>
      </trkpt>
      <trkpt lat="39.049362307414412" lon="-108.60581019893289">
        <ele>1433.199951171875</ele>
        <time>2012-05-18T20:18:18Z</time>
      </trkpt>
      <trkpt lat="39.049222078174353" lon="-108.60579879954457">
        <ele>1432.4000244140625</ele>
        <time>2012-05-18T20:18:24Z</time>
      </trkpt>
      <trkpt lat="39.049097774550319" lon="-108.6058215983212">
        <ele>1431.800048828125</ele>
        <time>2012-05-18T20:18:30Z</time>
      </trkpt>
      <trkpt lat="39.048989564180374" lon="-108.60586962662637">
        <ele>1431.5999755859375</ele>
        <time>2012-05-18T20:18:35Z</time>
      </trkpt>
      <trkpt lat="39.048832654953003" lon="-108.60593215562403">
        <ele>1431.199951171875</ele>
        <time>2012-05-18T20:18:43Z</time>
      </trkpt>
      <trkpt lat="39.048667028546333" lon="-108.60601790249348">
        <ele>1430.800048828125</ele>
        <time>2012-05-18T20:18:50Z</time>
      </trkpt>
      <trkpt lat="39.048473825678229" lon="-108.60608043149114">
        <ele>1430.199951171875</ele>
        <time>2012-05-18T20:18:58Z</time>
      </trkpt>
      <trkpt lat="39.048315910622478" lon="-108.60613617114723">
        <ele>1429.5999755859375</ele>
        <time>2012-05-18T20:19:05Z</time>
      </trkpt>
      <trkpt lat="39.048277521505952" lon="-108.60615771263838">
        <ele>1429.4000244140625</ele>
        <time>2012-05-18T20:19:07Z</time>
      </trkpt>
      <trkpt lat="39.048220105469227" lon="-108.60614488832653">
        <ele>1429.199951171875</ele>
        <time>2012-05-18T20:19:09Z</time>
      </trkpt>
      <trkpt lat="39.048152212053537" lon="-108.60610130243003">
        <ele>1428.5999755859375</ele>
        <time>2012-05-18T20:19:11Z</time>
      </trkpt>
      <trkpt lat="39.048042660579085" lon="-108.60604883171618">
        <ele>1428</ele>
        <time>2012-05-18T20:19:14Z</time>
      </trkpt>
      <trkpt lat="39.047920703887939" lon="-108.60604153946042">
        <ele>1427.199951171875</ele>
        <time>2012-05-18T20:19:18Z</time>
      </trkpt>
      <trkpt lat="39.047775445505977" lon="-108.60608990304172">
        <ele>1428.5999755859375</ele>
        <time>2012-05-18T20:19:24Z</time>
      </trkpt>
      <trkpt lat="39.047715095803142" lon="-108.60610901378095">
        <ele>1429</ele>
        <time>2012-05-18T20:19:29Z</time>
      </trkpt>
      <trkpt lat="39.04766907915473" lon="-108.60611571930349">
        <ele>1429.199951171875</ele>
        <time>2012-05-18T20:19:35Z</time>
      </trkpt>
      <trkpt lat="39.047663295641541" lon="-108.60612074844539">
        <ele>1429.199951171875</ele>
        <time>2012-05-18T20:19:37Z</time>
      </trkpt>
      <trkpt lat="39.04763194732368" lon="-108.60616559162736">
        <ele>1429.199951171875</ele>
        <time>2012-05-18T20:19:43Z</time>
      </trkpt>
      <trkpt lat="39.047597581520677" lon="-108.60617439262569">
        <ele>1429.800048828125</ele>
        <time>2012-05-18T20:19:50Z</time>
      </trkpt>
      <trkpt lat="39.0475894510746" lon="-108.60617564991117">
        <ele>1430</ele>
        <time>2012-05-18T20:20:05Z</time>
      </trkpt>
      <trkpt lat="39.047586349770427" lon="-108.60617606900632">
        <ele>1430</ele>
        <time>2012-05-18T20:20:42Z</time>
      </trkpt>
      <trkpt lat="39.047586601227522" lon="-108.6061791703105">
        <ele>1430</ele>
        <time>2012-05-18T20:23:31Z</time>
      </trkpt>
      <trkpt lat="39.047594564035535" lon="-108.60618000850081">
        <ele>1429.800048828125</ele>
        <time>2012-05-18T20:23:39Z</time>
      </trkpt>
      <trkpt lat="39.047637730836868" lon="-108.60618981532753">
        <ele>1428.800048828125</ele>
        <time>2012-05-18T20:25:26Z</time>
      </trkpt>
      <trkpt lat="39.047650471329689" lon="-108.60618487000465">
        <ele>1428.5999755859375</ele>
        <time>2012-05-18T20:25:34Z</time>
      </trkpt>
      <trkpt lat="39.047667402774096" lon="-108.60616668127477">
        <ele>1428.800048828125</ele>
        <time>2012-05-18T20:25:48Z</time>
      </trkpt>
      <trkpt lat="39.047681568190455" lon="-108.60613290220499">
        <ele>1429</ele>
        <time>2012-05-18T20:25:58Z</time>
      </trkpt>
      <trkpt lat="39.047670839354396" lon="-108.60611312091351">
        <ele>1429.199951171875</ele>
        <time>2012-05-18T20:26:02Z</time>
      </trkpt>
      <trkpt lat="39.047711910679936" lon="-108.60610130243003">
        <ele>1429</ele>
        <time>2012-05-18T20:26:08Z</time>
      </trkpt>
      <trkpt lat="39.047814672812819" lon="-108.60606945119798">
        <ele>1428.199951171875</ele>
        <time>2012-05-18T20:26:13Z</time>
      </trkpt>
      <trkpt lat="39.047974348068237" lon="-108.60603458248079">
        <ele>1427.5999755859375</ele>
        <time>2012-05-18T20:26:18Z</time>
      </trkpt>
      <trkpt lat="39.048151960596442" lon="-108.60608470626175">
        <ele>1428.5999755859375</ele>
        <time>2012-05-18T20:26:23Z</time>
      </trkpt>
      <trkpt lat="39.048317419365048" lon="-108.60613659024239">
        <ele>1429.5999755859375</ele>
        <time>2012-05-18T20:26:28Z</time>
      </trkpt>
      <trkpt lat="39.048486733809114" lon="-108.60606492497027">
        <ele>1430.199951171875</ele>
        <time>2012-05-18T20:26:34Z</time>
      </trkpt>
      <trkpt lat="39.048742465674877" lon="-108.60597976483405">
        <ele>1431</ele>
        <time>2012-05-18T20:26:43Z</time>
      </trkpt>
      <trkpt lat="39.048925945535302" lon="-108.60584707930684">
        <ele>1431.199951171875</ele>
        <time>2012-05-18T20:26:51Z</time>
      </trkpt>
      <trkpt lat="39.049071790650487" lon="-108.60576443374157">
        <ele>1431.4000244140625</ele>
        <time>2012-05-18T20:26:57Z</time>
      </trkpt>
      <trkpt lat="39.04925518669188" lon="-108.60575269907713">
        <ele>1432.4000244140625</ele>
        <time>2012-05-18T20:27:03Z</time>
      </trkpt>
      <trkpt lat="39.049377227202058" lon="-108.60572176985443">
        <ele>1433.199951171875</ele>
        <time>2012-05-18T20:27:08Z</time>
      </trkpt>
      <trkpt lat="39.049490382894874" lon="-108.60575940459967">
        <ele>1434.199951171875</ele>
        <time>2012-05-18T20:27:12Z</time>
      </trkpt>
      <trkpt lat="39.049636563286185" lon="-108.60572445206344">
        <ele>1435.4000244140625</ele>
        <time>2012-05-18T20:27:17Z</time>
      </trkpt>
      <trkpt lat="39.049688363447785" lon="-108.60571598634124">
        <ele>1435.800048828125</ele>
        <time>2012-05-18T20:27:20Z</time>
      </trkpt>
      <trkpt lat="39.049697415903211" lon="-108.6057177465409">
        <ele>1436</ele>
        <time>2012-05-18T20:27:21Z</time>
      </trkpt>
      <trkpt lat="39.049694314599037" lon="-108.60573425889015">
        <ele>1435.800048828125</ele>
        <time>2012-05-18T20:27:24Z</time>
      </trkpt>
      <trkpt lat="39.049615440890193" lon="-108.60569343902171">
        <ele>1435.199951171875</ele>
        <time>2012-05-18T20:31:25Z</time>
      </trkpt>
      <trkpt lat="39.049468003213406" lon="-108.6057283077389">
        <ele>1434</ele>
        <time>2012-05-18T20:31:29Z</time>
      </trkpt>
      <trkpt lat="39.049339173361659" lon="-108.60570140182972">
        <ele>1432.800048828125</ele>
        <time>2012-05-18T20:31:33Z</time>
      </trkpt>
      <trkpt lat="39.049234064295888" lon="-108.60569000244141">
        <ele>1432.199951171875</ele>
        <time>2012-05-18T20:31:37Z</time>
      </trkpt>
      <trkpt lat="39.049130799248815" lon="-108.60568094998598">
        <ele>1431.5999755859375</ele>
        <time>2012-05-18T20:31:40Z</time>
      </trkpt>
      <trkpt lat="39.049013368785381" lon="-108.60561146400869">
        <ele>1430.5999755859375</ele>
        <time>2012-05-18T20:31:43Z</time>
      </trkpt>
      <trkpt lat="39.048944553360343" lon="-108.60552211292088">
        <ele>1430</ele>
        <time>2012-05-18T20:31:46Z</time>
      </trkpt>
      <trkpt lat="39.048953270539641" lon="-108.60538917593658">
        <ele>1429.4000244140625</ele>
        <time>2012-05-18T20:31:49Z</time>
      </trkpt>
      <trkpt lat="39.049025941640139" lon="-108.60529747791588">
        <ele>1429.4000244140625</ele>
        <time>2012-05-18T20:31:52Z</time>
      </trkpt>
      <trkpt lat="39.049141611903906" lon="-108.60537584871054">
        <ele>1430.800048828125</ele>
        <time>2012-05-18T20:31:54Z</time>
      </trkpt>
      <trkpt lat="39.049193412065506" lon="-108.60540317371488">
        <ele>1431.199951171875</ele>
        <time>2012-05-18T20:31:55Z</time>
      </trkpt>
      <trkpt lat="39.049232136458158" lon="-108.60543368384242">
        <ele>1431.5999755859375</ele>
        <time>2012-05-18T20:31:56Z</time>
      </trkpt>
      <trkpt lat="39.049298521131277" lon="-108.60549964942038">
        <ele>1432.4000244140625</ele>
        <time>2012-05-18T20:31:58Z</time>
      </trkpt>
      <trkpt lat="39.049382926896214" lon="-108.60556595027447">
        <ele>1433</ele>
        <time>2012-05-18T20:32:01Z</time>
      </trkpt>
      <trkpt lat="39.049430200830102" lon="-108.60556293278933">
        <ele>1433.4000244140625</ele>
        <time>2012-05-18T20:32:03Z</time>
      </trkpt>
      <trkpt lat="39.049515780061483" lon="-108.60560970380902">
        <ele>1434.199951171875</ele>
        <time>2012-05-18T20:32:08Z</time>
      </trkpt>
      <trkpt lat="39.049468003213406" lon="-108.60566611401737">
        <ele>1433.800048828125</ele>
        <time>2012-05-18T20:32:12Z</time>
      </trkpt>
      <trkpt lat="39.049452496692538" lon="-108.60567927360535">
        <ele>1433.800048828125</ele>
        <time>2012-05-18T20:32:13Z</time>
      </trkpt>
      <trkpt lat="39.049358116462827" lon="-108.60569838434458">
        <ele>1433</ele>
        <time>2012-05-18T20:32:17Z</time>
      </trkpt>
      <trkpt lat="39.04928058385849" lon="-108.60568463802338">
        <ele>1432.4000244140625</ele>
        <time>2012-05-18T20:32:21Z</time>
      </trkpt>
      <trkpt lat="39.049153346568346" lon="-108.6056646052748">
        <ele>1431.5999755859375</ele>
        <time>2012-05-18T20:32:25Z</time>
      </trkpt>
      <trkpt lat="39.049031054601073" lon="-108.60563300549984">
        <ele>1430.800048828125</ele>
        <time>2012-05-18T20:32:29Z</time>
      </trkpt>
      <trkpt lat="39.049020241945982" lon="-108.60559998080134">
        <ele>1430.5999755859375</ele>
        <time>2012-05-18T20:32:30Z</time>
      </trkpt>
      <trkpt lat="39.049015464261174" lon="-108.60541918314993">
        <ele>1429.800048828125</ele>
        <time>2012-05-18T20:32:33Z</time>
      </trkpt>
      <trkpt lat="39.049022505059838" lon="-108.60527501441538">
        <ele>1429.199951171875</ele>
        <time>2012-05-18T20:32:36Z</time>
      </trkpt>
      <trkpt lat="39.049127027392387" lon="-108.60535858199">
        <ele>1430.5999755859375</ele>
        <time>2012-05-18T20:32:38Z</time>
      </trkpt>
      <trkpt lat="39.049208499491215" lon="-108.60541356727481">
        <ele>1431.4000244140625</ele>
        <time>2012-05-18T20:32:40Z</time>
      </trkpt>
      <trkpt lat="39.049226520583034" lon="-108.6054505314678">
        <ele>1431.5999755859375</ele>
        <time>2012-05-18T20:32:41Z</time>
      </trkpt>
      <trkpt lat="39.049187293276191" lon="-108.60550593584776">
        <ele>1431.4000244140625</ele>
        <time>2012-05-18T20:32:44Z</time>
      </trkpt>
      <trkpt lat="39.049098948016763" lon="-108.60556066967547">
        <ele>1431</ele>
        <time>2012-05-18T20:32:48Z</time>
      </trkpt>
      <trkpt lat="39.049025103449821" lon="-108.60543821007013">
        <ele>1430</ele>
        <time>2012-05-18T20:32:52Z</time>
      </trkpt>
      <trkpt lat="39.049008088186383" lon="-108.60537031665444">
        <ele>1429.5999755859375</ele>
        <time>2012-05-18T20:32:53Z</time>
      </trkpt>
      <trkpt lat="39.049016637727618" lon="-108.6052880063653">
        <ele>1429.199951171875</ele>
        <time>2012-05-18T20:32:55Z</time>
      </trkpt>
      <trkpt lat="39.049099115654826" lon="-108.6053464282304">
        <ele>1430.199951171875</ele>
        <time>2012-05-18T20:32:57Z</time>
      </trkpt>
      <trkpt lat="39.049215791746974" lon="-108.60542312264442">
        <ele>1431.5999755859375</ele>
        <time>2012-05-18T20:33:00Z</time>
      </trkpt>
      <trkpt lat="39.049234064295888" lon="-108.60545572824776">
        <ele>1431.800048828125</ele>
        <time>2012-05-18T20:33:01Z</time>
      </trkpt>
      <trkpt lat="39.049214702099562" lon="-108.60549026168883">
        <ele>1431.5999755859375</ele>
        <time>2012-05-18T20:33:03Z</time>
      </trkpt>
      <trkpt lat="39.049150915816426" lon="-108.60552605241537">
        <ele>1431.199951171875</ele>
        <time>2012-05-18T20:33:06Z</time>
      </trkpt>
      <trkpt lat="39.049111353233457" lon="-108.60555681400001">
        <ele>1431</ele>
        <time>2012-05-18T20:33:08Z</time>
      </trkpt>
      <trkpt lat="39.049090733751655" lon="-108.60555723309517">
        <ele>1430.800048828125</ele>
        <time>2012-05-18T20:33:09Z</time>
      </trkpt>
      <trkpt lat="39.049049494788051" lon="-108.60551104880869">
        <ele>1430.4000244140625</ele>
        <time>2012-05-18T20:33:11Z</time>
      </trkpt>
      <trkpt lat="39.049013536423445" lon="-108.60538909211755">
        <ele>1429.5999755859375</ele>
        <time>2012-05-18T20:33:13Z</time>
      </trkpt>
      <trkpt lat="39.049001801759005" lon="-108.60532186925411">
        <ele>1429.4000244140625</ele>
        <time>2012-05-18T20:33:14Z</time>
      </trkpt>
      <trkpt lat="39.049036502838135" lon="-108.60527333803475">
        <ele>1429.4000244140625</ele>
        <time>2012-05-18T20:33:16Z</time>
      </trkpt>
      <trkpt lat="39.049078244715929" lon="-108.60530938021839">
        <ele>1429.800048828125</ele>
        <time>2012-05-18T20:33:17Z</time>
      </trkpt>
      <trkpt lat="39.049201458692551" lon="-108.60540837049484">
        <ele>1431.4000244140625</ele>
        <time>2012-05-18T20:33:20Z</time>
      </trkpt>
      <trkpt lat="39.049217635765672" lon="-108.6054383777082">
        <ele>1431.5999755859375</ele>
        <time>2012-05-18T20:33:21Z</time>
      </trkpt>
      <trkpt lat="39.049216294661164" lon="-108.60548104159534">
        <ele>1431.5999755859375</ele>
        <time>2012-05-18T20:33:23Z</time>
      </trkpt>
      <trkpt lat="39.049134822562337" lon="-108.60554549843073">
        <ele>1431.199951171875</ele>
        <time>2012-05-18T20:33:28Z</time>
      </trkpt>
      <trkpt lat="39.049075143411756" lon="-108.60554776154459">
        <ele>1430.800048828125</ele>
        <time>2012-05-18T20:33:33Z</time>
      </trkpt>
      <trkpt lat="39.049039771780372" lon="-108.60548213124275">
        <ele>1430.199951171875</ele>
        <time>2012-05-18T20:33:35Z</time>
      </trkpt>
      <trkpt lat="39.049021666869521" lon="-108.60542169772089">
        <ele>1429.800048828125</ele>
        <time>2012-05-18T20:33:36Z</time>
      </trkpt>
      <trkpt lat="39.049007082358003" lon="-108.60528876073658">
        <ele>1429.199951171875</ele>
        <time>2012-05-18T20:33:38Z</time>
      </trkpt>
      <trkpt lat="39.049025103449821" lon="-108.60528951510787">
        <ele>1429.199951171875</ele>
        <time>2012-05-18T20:33:39Z</time>
      </trkpt>
      <trkpt lat="39.049116298556328" lon="-108.60535740852356">
        <ele>1430.4000244140625</ele>
        <time>2012-05-18T20:33:41Z</time>
      </trkpt>
      <trkpt lat="39.049231633543968" lon="-108.60543980263174">
        <ele>1431.5999755859375</ele>
        <time>2012-05-18T20:33:44Z</time>
      </trkpt>
      <trkpt lat="39.049256611615419" lon="-108.60546796582639">
        <ele>1432</ele>
        <time>2012-05-18T20:33:45Z</time>
      </trkpt>
      <trkpt lat="39.049372198060155" lon="-108.60555773600936">
        <ele>1433</ele>
        <time>2012-05-18T20:33:51Z</time>
      </trkpt>
      <trkpt lat="39.04946917667985" lon="-108.60556217841804">
        <ele>1433.800048828125</ele>
        <time>2012-05-18T20:33:56Z</time>
      </trkpt>
      <trkpt lat="39.049595491960645" lon="-108.60561699606478">
        <ele>1435</ele>
        <time>2012-05-18T20:34:03Z</time>
      </trkpt>
      <trkpt lat="39.049640670418739" lon="-108.60564683564007">
        <ele>1435.4000244140625</ele>
        <time>2012-05-18T20:34:07Z</time>
      </trkpt>
      <trkpt lat="39.049694314599037" lon="-108.60569595359266">
        <ele>1435.800048828125</ele>
        <time>2012-05-18T20:34:15Z</time>
      </trkpt>
      <trkpt lat="39.049699259921908" lon="-108.60570106655359">
        <ele>1435.800048828125</ele>
        <time>2012-05-18T20:34:26Z</time>
      </trkpt>
      <trkpt lat="39.049698254093528" lon="-108.60572353005409">
        <ele>1436</ele>
        <time>2012-05-18T20:34:32Z</time>
      </trkpt>
      <trkpt lat="39.049698924645782" lon="-108.60571841709316">
        <ele>1436</ele>
        <time>2012-05-18T20:37:56Z</time>
      </trkpt>
    </trkseg>
  </trk>

</gpx>
